<?xml version='1.0' encoding='UTF-8'?><gpx version="1.1" creator="JPX - https://github.com/jenetics/jpx" xmlns="http://www.topografix.com/GPX/1/1"><trk><trkseg><trkpt lat="43.92163696578506" lon="8.024954625755358"><ele>36.0</ele><time>2026-04-25T07:53:06.999Z</time></trkpt><trkpt lat="43.92152372991104" lon="8.024946075088781"><ele>36.0</ele><time>2026-04-25T07:53:08.999Z</time></trkpt><trkpt lat="43.92149281238958" lon="8.025036003136446"><ele>36.0</ele><time>2026-04-25T07:53:09.999Z</time></trkpt><trkpt lat="43.921406324435104" lon="8.025046212613429"><ele>36.0</ele><time>2026-04-25T07:53:11.999Z</time></trkpt><trkpt lat="43.92131297379494" lon="8.025057566576635"><ele>36.0</ele><time>2026-04-25T07:53:13.999Z</time></trkpt><trkpt lat="43.92124532249944" lon="8.025058131520366"><ele>36.0</ele><time>2026-04-25T07:53:15.999Z</time></trkpt><trkpt lat="43.921300350673704" lon="8.025117423138706"><ele>37.8</ele><time>2026-04-25T07:53:28.999Z</time></trkpt><trkpt lat="43.921380541591844" lon="8.025110272957297"><ele>39.6</ele><time>2026-04-25T07:53:29.999Z</time></trkpt><trkpt lat="43.92146991404007" lon="8.0251013939358"><ele>41.4</ele><time>2026-04-25T07:53:30.999Z</time></trkpt><trkpt lat="43.92157718068347" lon="8.025095290282787"><ele>43.2</ele><time>2026-04-25T07:53:31.999Z</time></trkpt><trkpt lat="43.92169401623989" lon="8.025087333024485"><ele>45.0</ele><time>2026-04-25T07:53:32.999Z</time></trkpt><trkpt lat="43.92182347037312" lon="8.025110568577556"><ele>45.666666666666664</ele><time>2026-04-25T07:53:33.999Z</time></trkpt><trkpt lat="43.921971061137654" lon="8.025097252104997"><ele>46.33333333333333</ele><time>2026-04-25T07:53:34.999Z</time></trkpt><trkpt lat="43.92212223094848" lon="8.025083612723659"><ele>47.0</ele><time>2026-04-25T07:53:35.999Z</time></trkpt><trkpt lat="43.92227853255856" lon="8.025069365066228"><ele>47.0</ele><time>2026-04-25T07:53:36.999Z</time></trkpt><trkpt lat="43.92243667641675" lon="8.025053584347518"><ele>47.0</ele><time>2026-04-25T07:53:37.999Z</time></trkpt><trkpt lat="43.92259001203693" lon="8.025038283427273"><ele>47.0</ele><time>2026-04-25T07:53:38.999Z</time></trkpt><trkpt lat="43.92274578643274" lon="8.024996763254187"><ele>46.0</ele><time>2026-04-25T07:53:39.999Z</time></trkpt><trkpt lat="43.92289000375729" lon="8.024958712941666"><ele>45.0</ele><time>2026-04-25T07:53:40.999Z</time></trkpt><trkpt lat="43.923032060383356" lon="8.02488404247001"><ele>44.0</ele><time>2026-04-25T07:53:41.999Z</time></trkpt><trkpt lat="43.923160547316186" lon="8.024763432340542"><ele>44.0</ele><time>2026-04-25T07:53:42.999Z</time></trkpt><trkpt lat="43.923273765052045" lon="8.024621160647126"><ele>44.0</ele><time>2026-04-25T07:53:43.999Z</time></trkpt><trkpt lat="43.923379587294995" lon="8.024475052959005"><ele>44.0</ele><time>2026-04-25T07:53:44.999Z</time></trkpt><trkpt lat="43.9234704473522" lon="8.024346599939344"><ele>44.0</ele><time>2026-04-25T07:53:45.999Z</time></trkpt><trkpt lat="43.92356323137422" lon="8.024235807966429"><ele>43.75</ele><time>2026-04-25T07:53:46.999Z</time></trkpt><trkpt lat="43.92365371287218" lon="8.024114809901336"><ele>43.5</ele><time>2026-04-25T07:53:47.999Z</time></trkpt><trkpt lat="43.9237482118373" lon="8.02399602008745"><ele>43.25</ele><time>2026-04-25T07:53:48.999Z</time></trkpt><trkpt lat="43.92384213638385" lon="8.023872644855224"><ele>43.0</ele><time>2026-04-25T07:53:49.999Z</time></trkpt><trkpt lat="43.9239360074905" lon="8.02373916947501"><ele>43.0</ele><time>2026-04-25T07:53:50.999Z</time></trkpt><trkpt lat="43.92403938520152" lon="8.023610860190251"><ele>43.0</ele><time>2026-04-25T07:53:51.999Z</time></trkpt><trkpt lat="43.92414608516897" lon="8.023504743842192"><ele>43.0</ele><time>2026-04-25T07:53:52.999Z</time></trkpt><trkpt lat="43.924259662110956" lon="8.023409804571608"><ele>43.0</ele><time>2026-04-25T07:53:53.999Z</time></trkpt><trkpt lat="43.924369425478474" lon="8.023302278817523"><ele>44.0</ele><time>2026-04-25T07:53:54.999Z</time></trkpt><trkpt lat="43.92447413498645" lon="8.02318188519766"><ele>45.0</ele><time>2026-04-25T07:53:55.999Z</time></trkpt><trkpt lat="43.92457863698373" lon="8.023057455535316"><ele>46.0</ele><time>2026-04-25T07:53:56.999Z</time></trkpt><trkpt lat="43.92467574582678" lon="8.022942880590698"><ele>47.0</ele><time>2026-04-25T07:53:57.999Z</time></trkpt><trkpt lat="43.92475823660698" lon="8.022834916169746"><ele>47.0</ele><time>2026-04-25T07:53:58.999Z</time></trkpt><trkpt lat="43.924841935572374" lon="8.022731523699875"><ele>47.0</ele><time>2026-04-25T07:53:59.999Z</time></trkpt><trkpt lat="43.924932838652175" lon="8.022627668859196"><ele>47.0</ele><time>2026-04-25T07:54:00.999Z</time></trkpt><trkpt lat="43.92502172739033" lon="8.022516878834935"><ele>47.0</ele><time>2026-04-25T07:54:01.999Z</time></trkpt><trkpt lat="43.9251182807484" lon="8.0224030544297"><ele>47.75</ele><time>2026-04-25T07:54:02.999Z</time></trkpt><trkpt lat="43.92521400107887" lon="8.022268888644113"><ele>48.5</ele><time>2026-04-25T07:54:03.999Z</time></trkpt><trkpt lat="43.925308409433995" lon="8.022139188528103"><ele>49.25</ele><time>2026-04-25T07:54:04.999Z</time></trkpt><trkpt lat="43.92540291626404" lon="8.022007129689552"><ele>50.0</ele><time>2026-04-25T07:54:05.999Z</time></trkpt><trkpt lat="43.925504251107284" lon="8.021872608299613"><ele>50.0</ele><time>2026-04-25T07:54:06.999Z</time></trkpt><trkpt lat="43.92560757699374" lon="8.021740811289407"><ele>50.0</ele><time>2026-04-25T07:54:07.999Z</time></trkpt><trkpt lat="43.92571395554094" lon="8.021605442116975"><ele>50.0</ele><time>2026-04-25T07:54:08.999Z</time></trkpt><trkpt lat="43.925820653358834" lon="8.02146225851702"><ele>50.0</ele><time>2026-04-25T07:54:09.999Z</time></trkpt><trkpt lat="43.92593716851049" lon="8.021308744848591"><ele>51.66666666666667</ele><time>2026-04-25T07:54:10.999Z</time></trkpt><trkpt lat="43.92606462470291" lon="8.021133475426257"><ele>53.33333333333333</ele><time>2026-04-25T07:54:11.999Z</time></trkpt><trkpt lat="43.92617577007507" lon="8.020982329922742"><ele>55.0</ele><time>2026-04-25T07:54:12.999Z</time></trkpt><trkpt lat="43.926270228916216" lon="8.020836700812616"><ele>53.5</ele><time>2026-04-25T07:54:13.999Z</time></trkpt><trkpt lat="43.92635344462083" lon="8.020687698361709"><ele>52.0</ele><time>2026-04-25T07:54:14.999Z</time></trkpt><trkpt lat="43.92644060508472" lon="8.020532103716116"><ele>50.5</ele><time>2026-04-25T07:54:15.999Z</time></trkpt><trkpt lat="43.926515546058994" lon="8.020378657913062"><ele>49.0</ele><time>2026-04-25T07:54:16.999Z</time></trkpt><trkpt lat="43.92658531998475" lon="8.020236289559657"><ele>49.0</ele><time>2026-04-25T07:54:17.999Z</time></trkpt><trkpt lat="43.92666090039438" lon="8.0200943172541"><ele>49.0</ele><time>2026-04-25T07:54:18.999Z</time></trkpt><trkpt lat="43.926753116526484" lon="8.019958387290124"><ele>49.0</ele><time>2026-04-25T07:54:19.999Z</time></trkpt><trkpt lat="43.9268572947788" lon="8.019846508742656"><ele>49.0</ele><time>2026-04-25T07:54:20.999Z</time></trkpt><trkpt lat="43.9269700542779" lon="8.019755043001544"><ele>48.5</ele><time>2026-04-25T07:54:21.999Z</time></trkpt><trkpt lat="43.92708705571598" lon="8.019678241848565"><ele>48.0</ele><time>2026-04-25T07:54:22.999Z</time></trkpt><trkpt lat="43.92721107472416" lon="8.019625839792909"><ele>47.5</ele><time>2026-04-25T07:54:23.999Z</time></trkpt><trkpt lat="43.9273388109809" lon="8.01959160860917"><ele>47.0</ele><time>2026-04-25T07:54:24.999Z</time></trkpt><trkpt lat="43.92747441411853" lon="8.01957323471014"><ele>46.5</ele><time>2026-04-25T07:54:25.999Z</time></trkpt><trkpt lat="43.92760570756658" lon="8.01957357645038"><ele>46.0</ele><time>2026-04-25T07:54:26.999Z</time></trkpt><trkpt lat="43.92773899118799" lon="8.019601948426423"><ele>45.5</ele><time>2026-04-25T07:54:27.999Z</time></trkpt><trkpt lat="43.9278682288108" lon="8.019649734577783"><ele>45.0</ele><time>2026-04-25T07:54:28.999Z</time></trkpt><trkpt lat="43.927988756931974" lon="8.019724667689403"><ele>45.0</ele><time>2026-04-25T07:54:29.998Z</time></trkpt><trkpt lat="43.92809950006874" lon="8.019820219333985"><ele>45.0</ele><time>2026-04-25T07:54:30.998Z</time></trkpt><trkpt lat="43.928199662324666" lon="8.01992488203196"><ele>45.0</ele><time>2026-04-25T07:54:31.998Z</time></trkpt><trkpt lat="43.9282923494923" lon="8.020030373526955"><ele>45.0</ele><time>2026-04-25T07:54:32.998Z</time></trkpt><trkpt lat="43.928379371193884" lon="8.02013547713983"><ele>45.75</ele><time>2026-04-25T07:54:33.998Z</time></trkpt><trkpt lat="43.92846878730389" lon="8.020242491017003"><ele>46.5</ele><time>2026-04-25T07:54:34.998Z</time></trkpt><trkpt lat="43.92856026431069" lon="8.02034421308514"><ele>47.25</ele><time>2026-04-25T07:54:35.998Z</time></trkpt><trkpt lat="43.9286615613269" lon="8.020433567158019"><ele>48.0</ele><time>2026-04-25T07:54:36.998Z</time></trkpt><trkpt lat="43.92877608549561" lon="8.020512784517832"><ele>48.0</ele><time>2026-04-25T07:54:37.998Z</time></trkpt><trkpt lat="43.928914168038006" lon="8.020582862011889"><ele>48.0</ele><time>2026-04-25T07:54:38.998Z</time></trkpt><trkpt lat="43.92907944712054" lon="8.020650835581986"><ele>48.0</ele><time>2026-04-25T07:54:39.998Z</time></trkpt><trkpt lat="43.929255917482216" lon="8.020724463578672"><ele>48.0</ele><time>2026-04-25T07:54:40.998Z</time></trkpt><trkpt lat="43.92943854989296" lon="8.020810857496544"><ele>48.0</ele><time>2026-04-25T07:54:41.998Z</time></trkpt><trkpt lat="43.92962740399019" lon="8.020898592569"><ele>48.0</ele><time>2026-04-25T07:54:42.998Z</time></trkpt><trkpt lat="43.92981975102799" lon="8.020978932460029"><ele>49.33333333333333</ele><time>2026-04-25T07:54:43.998Z</time></trkpt><trkpt lat="43.9300137044738" lon="8.021070901677778"><ele>50.666666666666664</ele><time>2026-04-25T07:54:44.998Z</time></trkpt><trkpt lat="43.9302063942367" lon="8.021165855105027"><ele>52.0</ele><time>2026-04-25T07:54:45.998Z</time></trkpt><trkpt lat="43.930395204820606" lon="8.021272850499106"><ele>52.666666666666664</ele><time>2026-04-25T07:54:46.998Z</time></trkpt><trkpt lat="43.93058879217171" lon="8.021349788863128"><ele>53.33333333333333</ele><time>2026-04-25T07:54:47.998Z</time></trkpt><trkpt lat="43.930779008390274" lon="8.021419383132066"><ele>54.0</ele><time>2026-04-25T07:54:48.999Z</time></trkpt><trkpt lat="43.930962541446455" lon="8.021458103488573"><ele>54.33333333333333</ele><time>2026-04-25T07:54:49.999Z</time></trkpt><trkpt lat="43.93113739359323" lon="8.021469640805261"><ele>54.666666666666664</ele><time>2026-04-25T07:54:50.999Z</time></trkpt><trkpt lat="43.93130982755152" lon="8.021481194542453"><ele>55.0</ele><time>2026-04-25T07:54:51.999Z</time></trkpt><trkpt lat="43.931471033692446" lon="8.021441700201438"><ele>55.0</ele><time>2026-04-25T07:54:52.999Z</time></trkpt><trkpt lat="43.931628447230004" lon="8.021378432472108"><ele>55.0</ele><time>2026-04-25T07:54:53.999Z</time></trkpt><trkpt lat="43.93177322389464" lon="8.021283503587146"><ele>55.0</ele><time>2026-04-25T07:54:54.999Z</time></trkpt><trkpt lat="43.93190704168429" lon="8.021153640622927"><ele>56.0</ele><time>2026-04-25T07:54:55.999Z</time></trkpt><trkpt lat="43.93202705566913" lon="8.021001796780398"><ele>57.0</ele><time>2026-04-25T07:54:56.999Z</time></trkpt><trkpt lat="43.932143329979716" lon="8.020827374754605"><ele>58.0</ele><time>2026-04-25T07:54:57.999Z</time></trkpt><trkpt lat="43.93225106114635" lon="8.020642186813543"><ele>58.0</ele><time>2026-04-25T07:54:58.999Z</time></trkpt><trkpt lat="43.93235600544129" lon="8.02045241421925"><ele>58.0</ele><time>2026-04-25T07:54:59.999Z</time></trkpt><trkpt lat="43.93245585002004" lon="8.020272200747032"><ele>58.0</ele><time>2026-04-25T07:55:00.999Z</time></trkpt><trkpt lat="43.93253606918371" lon="8.020102406118978"><ele>66.0</ele><time>2026-04-25T07:55:01.999Z</time></trkpt><trkpt lat="43.93259124092383" lon="8.019909667001283"><ele>74.0</ele><time>2026-04-25T07:55:02.999Z</time></trkpt><trkpt lat="43.93262200431278" lon="8.01970009468489"><ele>82.0</ele><time>2026-04-25T07:55:03.999Z</time></trkpt><trkpt lat="43.932636003087424" lon="8.019490991571075"><ele>82.0</ele><time>2026-04-25T07:55:04.999Z</time></trkpt><trkpt lat="43.932641481848094" lon="8.019286427360429"><ele>82.0</ele><time>2026-04-25T07:55:05.999Z</time></trkpt><trkpt lat="43.93265016593288" lon="8.019083590144676"><ele>82.0</ele><time>2026-04-25T07:55:06.999Z</time></trkpt><trkpt lat="43.93265431791976" lon="8.018892240009801"><ele>82.0</ele><time>2026-04-25T07:55:07.999Z</time></trkpt><trkpt lat="43.932662877967395" lon="8.018710927760896"><ele>79.0</ele><time>2026-04-25T07:55:08.999Z</time></trkpt><trkpt lat="43.93267211354647" lon="8.018536630337394"><ele>76.0</ele><time>2026-04-25T07:55:09.999Z</time></trkpt><trkpt lat="43.932693679936435" lon="8.01835492519739"><ele>73.0</ele><time>2026-04-25T07:55:10.999Z</time></trkpt><trkpt lat="43.93272334731245" lon="8.018169940288768"><ele>70.0</ele><time>2026-04-25T07:55:11.999Z</time></trkpt><trkpt lat="43.93276506785295" lon="8.017998687458693"><ele>68.4</ele><time>2026-04-25T07:55:12.999Z</time></trkpt><trkpt lat="43.93281363136481" lon="8.017861096872277"><ele>66.8</ele><time>2026-04-25T07:55:13.999Z</time></trkpt><trkpt lat="43.93286784587381" lon="8.017754922902993"><ele>65.2</ele><time>2026-04-25T07:55:14.999Z</time></trkpt><trkpt lat="43.932931008907474" lon="8.017647030669155"><ele>63.6</ele><time>2026-04-25T07:55:15.999Z</time></trkpt><trkpt lat="43.93301366022424" lon="8.017543044574518"><ele>62.0</ele><time>2026-04-25T07:55:16.999Z</time></trkpt><trkpt lat="43.933103669888915" lon="8.01744490784708"><ele>62.0</ele><time>2026-04-25T07:55:17.999Z</time></trkpt><trkpt lat="43.933206435892046" lon="8.017358993774913"><ele>62.0</ele><time>2026-04-25T07:55:18.999Z</time></trkpt><trkpt lat="43.93331905886519" lon="8.017283872134062"><ele>62.0</ele><time>2026-04-25T07:55:19.999Z</time></trkpt><trkpt lat="43.933437619564856" lon="8.017224619329715"><ele>62.0</ele><time>2026-04-25T07:55:20.999Z</time></trkpt><trkpt lat="43.933556087230414" lon="8.017156156766468"><ele>62.0</ele><time>2026-04-25T07:55:21.999Z</time></trkpt><trkpt lat="43.933673519687495" lon="8.017082262859814"><ele>62.0</ele><time>2026-04-25T07:55:22.999Z</time></trkpt><trkpt lat="43.93378155831839" lon="8.01698793975302"><ele>62.0</ele><time>2026-04-25T07:55:23.999Z</time></trkpt><trkpt lat="43.93388545892594" lon="8.016885049707746"><ele>62.0</ele><time>2026-04-25T07:55:24.999Z</time></trkpt><trkpt lat="43.93397507032416" lon="8.016787633529344"><ele>62.0</ele><time>2026-04-25T07:55:25.999Z</time></trkpt><trkpt lat="43.934078625015594" lon="8.016687353554437"><ele>62.0</ele><time>2026-04-25T07:55:26.999Z</time></trkpt><trkpt lat="43.93417708422027" lon="8.0165891354527"><ele>62.0</ele><time>2026-04-25T07:55:27.999Z</time></trkpt><trkpt lat="43.93427541659406" lon="8.016518586949626"><ele>62.0</ele><time>2026-04-25T07:55:28.999Z</time></trkpt><trkpt lat="43.93438359086022" lon="8.016477693387042"><ele>60.75</ele><time>2026-04-25T07:55:29.999Z</time></trkpt><trkpt lat="43.93449778508732" lon="8.016419286751146"><ele>59.5</ele><time>2026-04-25T07:55:30.999Z</time></trkpt><trkpt lat="43.934597618751006" lon="8.016349225937324"><ele>58.25</ele><time>2026-04-25T07:55:31.999Z</time></trkpt><trkpt lat="43.93469745820778" lon="8.016254895798326"><ele>57.0</ele><time>2026-04-25T07:55:32.999Z</time></trkpt><trkpt lat="43.93479304951175" lon="8.016156201143403"><ele>57.0</ele><time>2026-04-25T07:55:33.999Z</time></trkpt><trkpt lat="43.93488617976002" lon="8.016058275701818"><ele>57.0</ele><time>2026-04-25T07:55:34.999Z</time></trkpt><trkpt lat="43.93497805853997" lon="8.015973294717362"><ele>57.0</ele><time>2026-04-25T07:55:35.999Z</time></trkpt><trkpt lat="43.93507596664446" lon="8.01589745173482"><ele>57.0</ele><time>2026-04-25T07:55:36.999Z</time></trkpt><trkpt lat="43.93517091295541" lon="8.015848713807687"><ele>57.0</ele><time>2026-04-25T07:55:37.999Z</time></trkpt><trkpt lat="43.93526411315739" lon="8.015814272665699"><ele>56.400000000000006</ele><time>2026-04-25T07:55:38.999Z</time></trkpt><trkpt lat="43.93536042218254" lon="8.015796081491168"><ele>55.800000000000004</ele><time>2026-04-25T07:55:39.999Z</time></trkpt><trkpt lat="43.93545192370938" lon="8.015780701394448"><ele>55.2</ele><time>2026-04-25T07:55:40.999Z</time></trkpt><trkpt lat="43.93554408766614" lon="8.015770032757422"><ele>54.6</ele><time>2026-04-25T07:55:41.999Z</time></trkpt><trkpt lat="43.9356537776144" lon="8.015763806176848"><ele>54.0</ele><time>2026-04-25T07:55:42.999Z</time></trkpt><trkpt lat="43.935814916116804" lon="8.015768010356386"><ele>54.0</ele><time>2026-04-25T07:55:43.999Z</time></trkpt><trkpt lat="43.93600385317962" lon="8.015768357275507"><ele>54.0</ele><time>2026-04-25T07:55:44.999Z</time></trkpt><trkpt lat="43.93616692113049" lon="8.015769370423957"><ele>54.0</ele><time>2026-04-25T07:55:45.999Z</time></trkpt><trkpt lat="43.93629366486909" lon="8.015779961794008"><ele>55.2</ele><time>2026-04-25T07:55:46.999Z</time></trkpt><trkpt lat="43.9363917584968" lon="8.015840930774395"><ele>56.400000000000006</ele><time>2026-04-25T07:55:47.999Z</time></trkpt><trkpt lat="43.93648124760135" lon="8.015886487659577"><ele>57.6</ele><time>2026-04-25T07:55:48.999Z</time></trkpt><trkpt lat="43.93655912538692" lon="8.015984830894883"><ele>58.8</ele><time>2026-04-25T07:55:49.999Z</time></trkpt><trkpt lat="43.9366312779858" lon="8.016093706214466"><ele>60.0</ele><time>2026-04-25T07:55:50.999Z</time></trkpt><trkpt lat="43.93669942979872" lon="8.016201891405556"><ele>60.0</ele><time>2026-04-25T07:55:51.999Z</time></trkpt><trkpt lat="43.93676841281825" lon="8.016301004787184"><ele>60.0</ele><time>2026-04-25T07:55:52.999Z</time></trkpt><trkpt lat="43.93685015408086" lon="8.016399409527823"><ele>60.0</ele><time>2026-04-25T07:55:53.999Z</time></trkpt><trkpt lat="43.93693958239397" lon="8.01648042918356"><ele>60.0</ele><time>2026-04-25T07:55:54.999Z</time></trkpt><trkpt lat="43.93703316782104" lon="8.016547453748421"><ele>60.0</ele><time>2026-04-25T07:55:55.999Z</time></trkpt><trkpt lat="43.9371318393003" lon="8.016630976299421"><ele>62.0</ele><time>2026-04-25T07:55:56.999Z</time></trkpt><trkpt lat="43.93723076809459" lon="8.016687422086964"><ele>64.0</ele><time>2026-04-25T07:55:57.999Z</time></trkpt><trkpt lat="43.937356606822966" lon="8.016749759822297"><ele>66.0</ele><time>2026-04-25T07:55:58.999Z</time></trkpt><trkpt lat="43.93748659110483" lon="8.016808829182043"><ele>68.0</ele><time>2026-04-25T07:55:59.999Z</time></trkpt><trkpt lat="43.937581313852775" lon="8.016828235803835"><ele>68.0</ele><time>2026-04-25T07:56:00.999Z</time></trkpt><trkpt lat="43.937677181470306" lon="8.016861800856448"><ele>68.0</ele><time>2026-04-25T07:56:01.999Z</time></trkpt><trkpt lat="43.937772159382384" lon="8.016901625024458"><ele>68.0</ele><time>2026-04-25T07:56:02.999Z</time></trkpt><trkpt lat="43.93787555035401" lon="8.016924537363918"><ele>68.0</ele><time>2026-04-25T07:56:03.999Z</time></trkpt><trkpt lat="43.93797932970696" lon="8.016866607364301"><ele>68.0</ele><time>2026-04-25T07:56:04.999Z</time></trkpt><trkpt lat="43.93806145955425" lon="8.016869727199333"><ele>68.0</ele><time>2026-04-25T07:56:05.999Z</time></trkpt><trkpt lat="43.93814507679362" lon="8.016861346640235"><ele>68.0</ele><time>2026-04-25T07:56:06.999Z</time></trkpt><trkpt lat="43.93824571236184" lon="8.016925402552596"><ele>68.0</ele><time>2026-04-25T07:56:07.999Z</time></trkpt><trkpt lat="43.93834859483305" lon="8.016926271242783"><ele>68.0</ele><time>2026-04-25T07:56:08.999Z</time></trkpt><trkpt lat="43.93851363935498" lon="8.016924533139965"><ele>68.6</ele><time>2026-04-25T07:56:09.999Z</time></trkpt><trkpt lat="43.93863370709375" lon="8.016926646369548"><ele>69.19999999999999</ele><time>2026-04-25T07:56:10.999Z</time></trkpt><trkpt lat="43.93873467067738" lon="8.016947365486146"><ele>69.8</ele><time>2026-04-25T07:56:11.999Z</time></trkpt><trkpt lat="43.93883825785466" lon="8.016923876605883"><ele>70.39999999999999</ele><time>2026-04-25T07:56:12.999Z</time></trkpt><trkpt lat="43.93893955082148" lon="8.016937074361332"><ele>71.0</ele><time>2026-04-25T07:56:13.999Z</time></trkpt><trkpt lat="43.9390313053776" lon="8.016932583512412"><ele>71.0</ele><time>2026-04-25T07:56:14.999Z</time></trkpt><trkpt lat="43.93912279422499" lon="8.016924848772364"><ele>71.0</ele><time>2026-04-25T07:56:15.999Z</time></trkpt><trkpt lat="43.9392147686083" lon="8.016904759893054"><ele>71.0</ele><time>2026-04-25T07:56:16.999Z</time></trkpt><trkpt lat="43.93930432228593" lon="8.016863954343728"><ele>71.0</ele><time>2026-04-25T07:56:17.999Z</time></trkpt><trkpt lat="43.93938672469465" lon="8.016802610348675"><ele>71.0</ele><time>2026-04-25T07:56:18.999Z</time></trkpt><trkpt lat="43.939460186781936" lon="8.01670207118791"><ele>72.2</ele><time>2026-04-25T07:56:19.999Z</time></trkpt><trkpt lat="43.93952266725047" lon="8.016576779305812"><ele>73.39999999999999</ele><time>2026-04-25T07:56:20.999Z</time></trkpt><trkpt lat="43.93955431016224" lon="8.016432494876527"><ele>74.6</ele><time>2026-04-25T07:56:21.999Z</time></trkpt><trkpt lat="43.939593741331024" lon="8.016283790805637"><ele>75.8</ele><time>2026-04-25T07:56:22.999Z</time></trkpt><trkpt lat="43.939634150245055" lon="8.016134885042888"><ele>77.0</ele><time>2026-04-25T07:56:23.999Z</time></trkpt><trkpt lat="43.939685999395024" lon="8.015989722058585"><ele>77.0</ele><time>2026-04-25T07:56:24.999Z</time></trkpt><trkpt lat="43.93975406546559" lon="8.015852309529796"><ele>77.0</ele><time>2026-04-25T07:56:25.999Z</time></trkpt><trkpt lat="43.9398255987067" lon="8.015721540203787"><ele>77.0</ele><time>2026-04-25T07:56:26.999Z</time></trkpt><trkpt lat="43.939890836839176" lon="8.015599982750476"><ele>77.0</ele><time>2026-04-25T07:56:27.999Z</time></trkpt><trkpt lat="43.93995765109289" lon="8.015478602654488"><ele>76.0</ele><time>2026-04-25T07:56:28.999Z</time></trkpt><trkpt lat="43.94001984195828" lon="8.015347709231182"><ele>75.0</ele><time>2026-04-25T07:56:29.999Z</time></trkpt><trkpt lat="43.94005934940323" lon="8.015195042639798"><ele>74.0</ele><time>2026-04-25T07:56:30.999Z</time></trkpt><trkpt lat="43.94009014114454" lon="8.015037217659707"><ele>73.0</ele><time>2026-04-25T07:56:31.999Z</time></trkpt><trkpt lat="43.940114758253536" lon="8.014881585903348"><ele>76.6</ele><time>2026-04-25T07:56:32.999Z</time></trkpt><trkpt lat="43.94014368849173" lon="8.014723924232477"><ele>80.19999999999999</ele><time>2026-04-25T07:56:33.999Z</time></trkpt><trkpt lat="43.94016815879886" lon="8.014566695910066"><ele>83.8</ele><time>2026-04-25T07:56:34.999Z</time></trkpt><trkpt lat="43.9401949658877" lon="8.01442027732318"><ele>87.39999999999999</ele><time>2026-04-25T07:56:35.999Z</time></trkpt><trkpt lat="43.94022232584123" lon="8.014290725128545"><ele>91.0</ele><time>2026-04-25T07:56:36.999Z</time></trkpt><trkpt lat="43.94027451582023" lon="8.014168265164246"><ele>90.0</ele><time>2026-04-25T07:56:37.999Z</time></trkpt><trkpt lat="43.940320516705164" lon="8.014044525692416"><ele>89.0</ele><time>2026-04-25T07:56:38.999Z</time></trkpt><trkpt lat="43.94036325341201" lon="8.013926443602168"><ele>88.0</ele><time>2026-04-25T07:56:39.999Z</time></trkpt><trkpt lat="43.94040159005482" lon="8.01382051900246"><ele>87.0</ele><time>2026-04-25T07:56:40.999Z</time></trkpt><trkpt lat="43.94044457313953" lon="8.01370175626169"><ele>86.0</ele><time>2026-04-25T07:56:41.999Z</time></trkpt><trkpt lat="43.94048391239899" lon="8.01359521709215"><ele>86.0</ele><time>2026-04-25T07:56:42.999Z</time></trkpt><trkpt lat="43.94052904820797" lon="8.013472979314995"><ele>86.0</ele><time>2026-04-25T07:56:43.999Z</time></trkpt><trkpt lat="43.94057422025289" lon="8.01335064262121"><ele>86.0</ele><time>2026-04-25T07:56:44.999Z</time></trkpt><trkpt lat="43.940615745545216" lon="8.01323818222092"><ele>86.0</ele><time>2026-04-25T07:56:45.999Z</time></trkpt><trkpt lat="43.940657507947286" lon="8.013113939677325"><ele>86.0</ele><time>2026-04-25T07:56:46.999Z</time></trkpt><trkpt lat="43.94069336475213" lon="8.012982323536455"><ele>85.8</ele><time>2026-04-25T07:56:47.999Z</time></trkpt><trkpt lat="43.940709229832855" lon="8.012832275723245"><ele>85.6</ele><time>2026-04-25T07:56:48.999Z</time></trkpt><trkpt lat="43.940714796682315" lon="8.012705234502235"><ele>85.4</ele><time>2026-04-25T07:56:49.999Z</time></trkpt><trkpt lat="43.94069593330387" lon="8.012565241963609"><ele>85.2</ele><time>2026-04-25T07:56:50.999Z</time></trkpt><trkpt lat="43.94064841662526" lon="8.012439379521934"><ele>85.0</ele><time>2026-04-25T07:56:51.999Z</time></trkpt><trkpt lat="43.94056815825883" lon="8.01236385798323"><ele>86.4</ele><time>2026-04-25T07:56:52.999Z</time></trkpt><trkpt lat="43.94050146747227" lon="8.012272726246794"><ele>87.8</ele><time>2026-04-25T07:56:53.999Z</time></trkpt><trkpt lat="43.940448252116525" lon="8.0121742369339"><ele>89.19999999999999</ele><time>2026-04-25T07:56:55Z</time></trkpt><trkpt lat="43.94039629880338" lon="8.012057610549242"><ele>90.6</ele><time>2026-04-25T07:56:56Z</time></trkpt><trkpt lat="43.940357968660045" lon="8.01194251648368"><ele>92.0</ele><time>2026-04-25T07:56:57Z</time></trkpt><trkpt lat="43.94033628745209" lon="8.011809224574842"><ele>92.0</ele><time>2026-04-25T07:56:58Z</time></trkpt><trkpt lat="43.940306850131954" lon="8.011674675776554"><ele>92.0</ele><time>2026-04-25T07:56:59Z</time></trkpt><trkpt lat="43.94032310284585" lon="8.011526163078441"><ele>92.0</ele><time>2026-04-25T07:57:00Z</time></trkpt><trkpt lat="43.94032556746862" lon="8.011423465668653"><ele>92.0</ele><time>2026-04-25T07:57:01Z</time></trkpt><trkpt lat="43.94033908048131" lon="8.011322695880954"><ele>92.0</ele><time>2026-04-25T07:57:03Z</time></trkpt><trkpt lat="43.94037879097226" lon="8.011179584463752"><ele>91.8</ele><time>2026-04-25T07:57:05Z</time></trkpt><trkpt lat="43.940428159075466" lon="8.011081346594311"><ele>91.6</ele><time>2026-04-25T07:57:06Z</time></trkpt><trkpt lat="43.94047870413469" lon="8.010959767358449"><ele>91.39999999999999</ele><time>2026-04-25T07:57:07Z</time></trkpt><trkpt lat="43.94049057379054" lon="8.01079705187318"><ele>91.19999999999999</ele><time>2026-04-25T07:57:08Z</time></trkpt><trkpt lat="43.94053544279898" lon="8.010673023206676"><ele>91.0</ele><time>2026-04-25T07:57:09Z</time></trkpt><trkpt lat="43.94058364415598" lon="8.010546716391865"><ele>88.8</ele><time>2026-04-25T07:57:10Z</time></trkpt><trkpt lat="43.94063260493772" lon="8.010438583450414"><ele>86.6</ele><time>2026-04-25T07:57:11Z</time></trkpt><trkpt lat="43.94070223855938" lon="8.01033359512938"><ele>84.4</ele><time>2026-04-25T07:57:12Z</time></trkpt><trkpt lat="43.94077369663041" lon="8.010232011217456"><ele>82.2</ele><time>2026-04-25T07:57:13Z</time></trkpt><trkpt lat="43.94085336434738" lon="8.010142347773002"><ele>80.0</ele><time>2026-04-25T07:57:14Z</time></trkpt><trkpt lat="43.9409387996002" lon="8.010063002220807"><ele>81.8</ele><time>2026-04-25T07:57:15Z</time></trkpt><trkpt lat="43.94101827055993" lon="8.00996972504269"><ele>83.6</ele><time>2026-04-25T07:57:16Z</time></trkpt><trkpt lat="43.94109140998855" lon="8.009865064268352"><ele>85.4</ele><time>2026-04-25T07:57:17Z</time></trkpt><trkpt lat="43.941187671555596" lon="8.009785300157656"><ele>87.2</ele><time>2026-04-25T07:57:18Z</time></trkpt><trkpt lat="43.941257516683876" lon="8.009663703142062"><ele>89.0</ele><time>2026-04-25T07:57:19Z</time></trkpt><trkpt lat="43.941337366573755" lon="8.009556947836396"><ele>89.0</ele><time>2026-04-25T07:57:20Z</time></trkpt><trkpt lat="43.94142176728979" lon="8.00948016000045"><ele>89.0</ele><time>2026-04-25T07:57:21Z</time></trkpt><trkpt lat="43.941521943338586" lon="8.009383374050806"><ele>89.0</ele><time>2026-04-25T07:57:22Z</time></trkpt><trkpt lat="43.941603458526984" lon="8.009250171558373"><ele>89.0</ele><time>2026-04-25T07:57:23Z</time></trkpt><trkpt lat="43.94167032799003" lon="8.009116734228433"><ele>97.0</ele><time>2026-04-25T07:57:24Z</time></trkpt><trkpt lat="43.94173684386941" lon="8.00898373265556"><ele>105.0</ele><time>2026-04-25T07:57:25Z</time></trkpt><trkpt lat="43.94180472126396" lon="8.008847817142637"><ele>113.0</ele><time>2026-04-25T07:57:26Z</time></trkpt><trkpt lat="43.94186954414922" lon="8.00871299176324"><ele>121.0</ele><time>2026-04-25T07:57:27Z</time></trkpt><trkpt lat="43.941931976273985" lon="8.008574499799606"><ele>121.0</ele><time>2026-04-25T07:57:28Z</time></trkpt><trkpt lat="43.94199061464789" lon="8.008426054394421"><ele>121.0</ele><time>2026-04-25T07:57:29Z</time></trkpt><trkpt lat="43.9420438030711" lon="8.00827821492652"><ele>121.0</ele><time>2026-04-25T07:57:30Z</time></trkpt><trkpt lat="43.942094290183995" lon="8.00812982311332"><ele>121.0</ele><time>2026-04-25T07:57:31Z</time></trkpt><trkpt lat="43.94214333393505" lon="8.007983421311222"><ele>115.75</ele><time>2026-04-25T07:57:32Z</time></trkpt><trkpt lat="43.94219200830512" lon="8.00783812220467"><ele>110.5</ele><time>2026-04-25T07:57:33Z</time></trkpt><trkpt lat="43.94224021402311" lon="8.007694222027377"><ele>105.25</ele><time>2026-04-25T07:57:34Z</time></trkpt><trkpt lat="43.94228705860629" lon="8.00755193142967"><ele>100.0</ele><time>2026-04-25T07:57:35Z</time></trkpt><trkpt lat="43.94231630673342" lon="8.007407039686031"><ele>95.25</ele><time>2026-04-25T07:57:36Z</time></trkpt><trkpt lat="43.94235267770836" lon="8.007261200500503"><ele>90.5</ele><time>2026-04-25T07:57:37Z</time></trkpt><trkpt lat="43.94238727503433" lon="8.00711875103468"><ele>85.75</ele><time>2026-04-25T07:57:38Z</time></trkpt><trkpt lat="43.94242143686664" lon="8.006964878742517"><ele>81.0</ele><time>2026-04-25T07:57:39Z</time></trkpt><trkpt lat="43.942453859604754" lon="8.006810900777444"><ele>81.0</ele><time>2026-04-25T07:57:40Z</time></trkpt><trkpt lat="43.94249895652249" lon="8.006661716585395"><ele>81.0</ele><time>2026-04-25T07:57:41Z</time></trkpt><trkpt lat="43.94255520066239" lon="8.006522917711326"><ele>81.0</ele><time>2026-04-25T07:57:42Z</time></trkpt><trkpt lat="43.94262790576062" lon="8.006388001904599"><ele>81.0</ele><time>2026-04-25T07:57:43Z</time></trkpt><trkpt lat="43.94269378264918" lon="8.006260135217136"><ele>82.75</ele><time>2026-04-25T07:57:44Z</time></trkpt><trkpt lat="43.942759922871055" lon="8.006129548726877"><ele>84.5</ele><time>2026-04-25T07:57:45Z</time></trkpt><trkpt lat="43.94282287853622" lon="8.005997234970664"><ele>86.25</ele><time>2026-04-25T07:57:46Z</time></trkpt><trkpt lat="43.94288620347518" lon="8.005867006603067"><ele>88.0</ele><time>2026-04-25T07:57:47Z</time></trkpt><trkpt lat="43.94294806321106" lon="8.005742734137332"><ele>88.0</ele><time>2026-04-25T07:57:48Z</time></trkpt><trkpt lat="43.94301118589699" lon="8.005619339762314"><ele>88.0</ele><time>2026-04-25T07:57:49Z</time></trkpt><trkpt lat="43.94307656645784" lon="8.005500611620059"><ele>88.0</ele><time>2026-04-25T07:57:50Z</time></trkpt><trkpt lat="43.943138186088895" lon="8.00538371721571"><ele>88.0</ele><time>2026-04-25T07:57:50.999Z</time></trkpt><trkpt lat="43.94320371805765" lon="8.00526460158552"><ele>88.0</ele><time>2026-04-25T07:57:51.999Z</time></trkpt><trkpt lat="43.94327179147064" lon="8.005151376854926"><ele>88.0</ele><time>2026-04-25T07:57:52.999Z</time></trkpt><trkpt lat="43.943343643302796" lon="8.00503354698809"><ele>88.0</ele><time>2026-04-25T07:57:53.999Z</time></trkpt><trkpt lat="43.943416301079026" lon="8.004922804087334"><ele>88.0</ele><time>2026-04-25T07:57:54.999Z</time></trkpt><trkpt lat="43.94349228086831" lon="8.004810259963767"><ele>88.0</ele><time>2026-04-25T07:57:55.999Z</time></trkpt><trkpt lat="43.943553119677574" lon="8.004714726919147"><ele>88.0</ele><time>2026-04-25T07:57:56.999Z</time></trkpt><trkpt lat="43.943606509289154" lon="8.004627167922708"><ele>86.66666666666666</ele><time>2026-04-25T07:57:57.999Z</time></trkpt><trkpt lat="43.94365947183662" lon="8.00454616484567"><ele>85.33333333333333</ele><time>2026-04-25T07:57:58.999Z</time></trkpt><trkpt lat="43.94371702904862" lon="8.004472203532082"><ele>84.0</ele><time>2026-04-25T07:57:59.999Z</time></trkpt><trkpt lat="43.94380532643156" lon="8.004420350319004"><ele>82.66666666666667</ele><time>2026-04-25T07:58:00.999Z</time></trkpt><trkpt lat="43.943898225051676" lon="8.004399750178779"><ele>81.33333333333334</ele><time>2026-04-25T07:58:01.999Z</time></trkpt><trkpt lat="43.94400021167275" lon="8.0044075712479"><ele>80.0</ele><time>2026-04-25T07:58:02.999Z</time></trkpt><trkpt lat="43.94410334898309" lon="8.004439881415786"><ele>80.0</ele><time>2026-04-25T07:58:03.999Z</time></trkpt><trkpt lat="43.94420929975222" lon="8.004491126249253"><ele>80.0</ele><time>2026-04-25T07:58:04.999Z</time></trkpt><trkpt lat="43.944319581436844" lon="8.00452075322137"><ele>80.0</ele><time>2026-04-25T07:58:05.999Z</time></trkpt><trkpt lat="43.94443235092138" lon="8.00451246320745"><ele>80.0</ele><time>2026-04-25T07:58:06.999Z</time></trkpt><trkpt lat="43.94454158849089" lon="8.004471233197778"><ele>83.25</ele><time>2026-04-25T07:58:07.999Z</time></trkpt><trkpt lat="43.944651300160714" lon="8.00442225906728"><ele>86.5</ele><time>2026-04-25T07:58:08.999Z</time></trkpt><trkpt lat="43.94476112590778" lon="8.004370068663013"><ele>89.75</ele><time>2026-04-25T07:58:09.999Z</time></trkpt><trkpt lat="43.944867022779015" lon="8.004308918546528"><ele>93.0</ele><time>2026-04-25T07:58:10.999Z</time></trkpt><trkpt lat="43.944971919070504" lon="8.004207046229354"><ele>92.25</ele><time>2026-04-25T07:58:11.999Z</time></trkpt><trkpt lat="43.945084282803364" lon="8.004124865683254"><ele>91.5</ele><time>2026-04-25T07:58:12.999Z</time></trkpt><trkpt lat="43.94516139660125" lon="8.0040525619549"><ele>90.75</ele><time>2026-04-25T07:58:13.999Z</time></trkpt><trkpt lat="43.94526485429102" lon="8.003966211100977"><ele>90.0</ele><time>2026-04-25T07:58:14.999Z</time></trkpt><trkpt lat="43.94536109730217" lon="8.003874605324333"><ele>90.0</ele><time>2026-04-25T07:58:15.999Z</time></trkpt><trkpt lat="43.94545600802513" lon="8.003794919467511"><ele>90.0</ele><time>2026-04-25T07:58:16.999Z</time></trkpt><trkpt lat="43.94555489789736" lon="8.00370377947938"><ele>90.0</ele><time>2026-04-25T07:58:17.999Z</time></trkpt><trkpt lat="43.945651118021516" lon="8.003614407993375"><ele>90.0</ele><time>2026-04-25T07:58:18.999Z</time></trkpt><trkpt lat="43.945749725877725" lon="8.003524876249461"><ele>90.0</ele><time>2026-04-25T07:58:19.999Z</time></trkpt><trkpt lat="43.94584216502079" lon="8.003430945509844"><ele>90.0</ele><time>2026-04-25T07:58:20.999Z</time></trkpt><trkpt lat="43.94593303414012" lon="8.003326244289832"><ele>90.0</ele><time>2026-04-25T07:58:21.999Z</time></trkpt><trkpt lat="43.94601900541551" lon="8.003219315557834"><ele>90.0</ele><time>2026-04-25T07:58:22.999Z</time></trkpt><trkpt lat="43.946099600789594" lon="8.003100453556087"><ele>89.2</ele><time>2026-04-25T07:58:23.999Z</time></trkpt><trkpt lat="43.94617577325279" lon="8.002985754511123"><ele>88.4</ele><time>2026-04-25T07:58:24.999Z</time></trkpt><trkpt lat="43.94625302370344" lon="8.002870493898673"><ele>87.6</ele><time>2026-04-25T07:58:25.999Z</time></trkpt><trkpt lat="43.946323184918654" lon="8.002765854407537"><ele>86.8</ele><time>2026-04-25T07:58:26.999Z</time></trkpt><trkpt lat="43.94640617932828" lon="8.002668239441082"><ele>86.0</ele><time>2026-04-25T07:58:27.999Z</time></trkpt><trkpt lat="43.94650328582508" lon="8.002595554576002"><ele>86.0</ele><time>2026-04-25T07:58:28.999Z</time></trkpt><trkpt lat="43.94661339162183" lon="8.002546089514395"><ele>86.0</ele><time>2026-04-25T07:58:29.999Z</time></trkpt><trkpt lat="43.94672273129935" lon="8.002503503349551"><ele>86.0</ele><time>2026-04-25T07:58:30.999Z</time></trkpt><trkpt lat="43.94683562945458" lon="8.002460662170032"><ele>86.0</ele><time>2026-04-25T07:58:31.999Z</time></trkpt><trkpt lat="43.94694966617572" lon="8.002424971763698"><ele>84.75</ele><time>2026-04-25T07:58:32.999Z</time></trkpt><trkpt lat="43.94706540310341" lon="8.00240236213288"><ele>83.5</ele><time>2026-04-25T07:58:33.999Z</time></trkpt><trkpt lat="43.94718002348746" lon="8.002386217756401"><ele>82.25</ele><time>2026-04-25T07:58:34.999Z</time></trkpt><trkpt lat="43.94729734216303" lon="8.00236572303199"><ele>81.0</ele><time>2026-04-25T07:58:35.999Z</time></trkpt><trkpt lat="43.94741726677884" lon="8.002355127803206"><ele>81.0</ele><time>2026-04-25T07:58:36.999Z</time></trkpt><trkpt lat="43.947543405560566" lon="8.002363731530137"><ele>81.0</ele><time>2026-04-25T07:58:37.999Z</time></trkpt><trkpt lat="43.94768235782388" lon="8.002389852169918"><ele>81.0</ele><time>2026-04-25T07:58:38.999Z</time></trkpt><trkpt lat="43.94781185615827" lon="8.002413053257216"><ele>81.0</ele><time>2026-04-25T07:58:39.999Z</time></trkpt><trkpt lat="43.94793540283456" lon="8.002435179228481"><ele>82.25</ele><time>2026-04-25T07:58:40.999Z</time></trkpt><trkpt lat="43.94805455075456" lon="8.00245768782303"><ele>83.5</ele><time>2026-04-25T07:58:41.999Z</time></trkpt><trkpt lat="43.94816603191583" lon="8.002476484245076"><ele>84.75</ele><time>2026-04-25T07:58:42.999Z</time></trkpt><trkpt lat="43.94827544483519" lon="8.002491649992194"><ele>86.0</ele><time>2026-04-25T07:58:43.999Z</time></trkpt><trkpt lat="43.94838241059537" lon="8.00251274281805"><ele>87.0</ele><time>2026-04-25T07:58:44.999Z</time></trkpt><trkpt lat="43.94846846719063" lon="8.00252665597335"><ele>88.0</ele><time>2026-04-25T07:58:45.999Z</time></trkpt><trkpt lat="43.94856013529008" lon="8.00253431908671"><ele>89.0</ele><time>2026-04-25T07:58:46.999Z</time></trkpt><trkpt lat="43.94866443671622" lon="8.002554696620114"><ele>90.0</ele><time>2026-04-25T07:58:47.999Z</time></trkpt><trkpt lat="43.94876858154769" lon="8.002578886506484"><ele>91.0</ele><time>2026-04-25T07:58:48.999Z</time></trkpt><trkpt lat="43.94886950150831" lon="8.002599696342802"><ele>91.0</ele><time>2026-04-25T07:58:49.999Z</time></trkpt><trkpt lat="43.94896682503652" lon="8.002615549108324"><ele>91.0</ele><time>2026-04-25T07:58:50.999Z</time></trkpt><trkpt lat="43.94906276157284" lon="8.002629470929444"><ele>91.0</ele><time>2026-04-25T07:58:51.999Z</time></trkpt><trkpt lat="43.949161514110045" lon="8.00265193060949"><ele>91.0</ele><time>2026-04-25T07:58:52.999Z</time></trkpt><trkpt lat="43.949240319690404" lon="8.002671211864865"><ele>91.0</ele><time>2026-04-25T07:58:53.999Z</time></trkpt><trkpt lat="43.94931872765875" lon="8.002675440560159"><ele>90.66666666666666</ele><time>2026-04-25T07:58:54.999Z</time></trkpt><trkpt lat="43.949404138876666" lon="8.002694166115829"><ele>90.33333333333333</ele><time>2026-04-25T07:58:55.999Z</time></trkpt><trkpt lat="43.949487441322596" lon="8.002718411378709"><ele>90.0</ele><time>2026-04-25T07:58:56.999Z</time></trkpt><trkpt lat="43.94958146107041" lon="8.002734124051067"><ele>89.66666666666667</ele><time>2026-04-25T07:58:57.999Z</time></trkpt><trkpt lat="43.94964771079152" lon="8.002739088127914"><ele>89.33333333333334</ele><time>2026-04-25T07:58:58.999Z</time></trkpt><trkpt lat="43.94974339470725" lon="8.002747342261323"><ele>89.0</ele><time>2026-04-25T07:59:01Z</time></trkpt><trkpt lat="43.949858165626615" lon="8.002745515077649"><ele>89.0</ele><time>2026-04-25T07:59:03Z</time></trkpt><trkpt lat="43.94997736499855" lon="8.002750427956455"><ele>89.0</ele><time>2026-04-25T07:59:05Z</time></trkpt><trkpt lat="43.950089904667806" lon="8.002752007167963"><ele>89.0</ele><time>2026-04-25T07:59:07Z</time></trkpt><trkpt lat="43.950212375279534" lon="8.002760998365304"><ele>89.0</ele><time>2026-04-25T07:59:09Z</time></trkpt><trkpt lat="43.950340694769366" lon="8.002766638230092"><ele>89.5</ele><time>2026-04-25T07:59:11Z</time></trkpt><trkpt lat="43.95046730274081" lon="8.002773069830027"><ele>90.0</ele><time>2026-04-25T07:59:13Z</time></trkpt><trkpt lat="43.95058434763925" lon="8.00278107975113"><ele>90.5</ele><time>2026-04-25T07:59:15Z</time></trkpt><trkpt lat="43.95069656970489" lon="8.002792701286204"><ele>91.0</ele><time>2026-04-25T07:59:17Z</time></trkpt><trkpt lat="43.950801168918886" lon="8.002805444154912"><ele>92.0</ele><time>2026-04-25T07:59:19Z</time></trkpt><trkpt lat="43.95090004068574" lon="8.00281480883668"><ele>93.0</ele><time>2026-04-25T07:59:21Z</time></trkpt><trkpt lat="43.95101509375851" lon="8.002787660429302"><ele>94.0</ele><time>2026-04-25T07:59:23Z</time></trkpt><trkpt lat="43.95106721204411" lon="8.002738077529786"><ele>95.0</ele><time>2026-04-25T07:59:24Z</time></trkpt><trkpt lat="43.95111239850617" lon="8.002668631486031"><ele>96.00000000000001</ele><time>2026-04-25T07:59:25Z</time></trkpt><trkpt lat="43.95115517966474" lon="8.002585937375827"><ele>97.0</ele><time>2026-04-25T07:59:26Z</time></trkpt><trkpt lat="43.95120317429165" lon="8.002491666439784"><ele>97.0</ele><time>2026-04-25T07:59:27Z</time></trkpt><trkpt lat="43.95126240706738" lon="8.00238311349344"><ele>97.0</ele><time>2026-04-25T07:59:28Z</time></trkpt><trkpt lat="43.951322480293605" lon="8.002261916622382"><ele>97.0</ele><time>2026-04-25T07:59:29Z</time></trkpt><trkpt lat="43.95138825633836" lon="8.002130228729557"><ele>97.0</ele><time>2026-04-25T07:59:30Z</time></trkpt><trkpt lat="43.951464692109106" lon="8.001974052332152"><ele>97.0</ele><time>2026-04-25T07:59:31Z</time></trkpt><trkpt lat="43.95154628403451" lon="8.001802062238127"><ele>97.0</ele><time>2026-04-25T07:59:32Z</time></trkpt><trkpt lat="43.951637576405176" lon="8.001611433414809"><ele>97.0</ele><time>2026-04-25T07:59:33Z</time></trkpt><trkpt lat="43.95173547974302" lon="8.001370082402833"><ele>99.0</ele><time>2026-04-25T07:59:34Z</time></trkpt><trkpt lat="43.95183652619311" lon="8.001160941818153"><ele>101.0</ele><time>2026-04-25T07:59:35Z</time></trkpt><trkpt lat="43.95192139256913" lon="8.000980258857052"><ele>103.0</ele><time>2026-04-25T07:59:36Z</time></trkpt><trkpt lat="43.95199585809225" lon="8.000791214455258"><ele>103.0</ele><time>2026-04-25T07:59:37Z</time></trkpt><trkpt lat="43.952090712777746" lon="8.000608567329355"><ele>103.0</ele><time>2026-04-25T07:59:38Z</time></trkpt><trkpt lat="43.95217802427846" lon="8.000408121806796"><ele>103.0</ele><time>2026-04-25T07:59:39Z</time></trkpt><trkpt lat="43.95225892256409" lon="8.000214633043933"><ele>103.0</ele><time>2026-04-25T07:59:40Z</time></trkpt><trkpt lat="43.95232587196446" lon="8.000018675472994"><ele>103.0</ele><time>2026-04-25T07:59:41Z</time></trkpt><trkpt lat="43.95235762463809" lon="7.999817813817249"><ele>103.0</ele><time>2026-04-25T07:59:42Z</time></trkpt><trkpt lat="43.952377951188346" lon="7.999644404240317"><ele>103.0</ele><time>2026-04-25T07:59:43Z</time></trkpt><trkpt lat="43.952431744524624" lon="7.999503193557309"><ele>103.0</ele><time>2026-04-25T07:59:44Z</time></trkpt><trkpt lat="43.95252457988403" lon="7.999399134339043"><ele>103.0</ele><time>2026-04-25T07:59:45Z</time></trkpt><trkpt lat="43.9526456824491" lon="7.999346699609577"><ele>103.0</ele><time>2026-04-25T07:59:46Z</time></trkpt><trkpt lat="43.952790385757304" lon="7.99933792875221"><ele>103.0</ele><time>2026-04-25T07:59:47Z</time></trkpt><trkpt lat="43.95295268729309" lon="7.999334900400065"><ele>105.33333333333334</ele><time>2026-04-25T07:59:48Z</time></trkpt><trkpt lat="43.953142524521944" lon="7.999336258099887"><ele>107.66666666666666</ele><time>2026-04-25T07:59:49Z</time></trkpt><trkpt lat="43.95332128085929" lon="7.999323395179119"><ele>110.0</ele><time>2026-04-25T07:59:50Z</time></trkpt><trkpt lat="43.95346062021378" lon="7.999312286130074"><ele>110.0</ele><time>2026-04-25T07:59:51Z</time></trkpt><trkpt lat="43.953582740955675" lon="7.999342898202171"><ele>110.0</ele><time>2026-04-25T07:59:52Z</time></trkpt><trkpt lat="43.95370683875546" lon="7.999485272998063"><ele>110.0</ele><time>2026-04-25T07:59:53Z</time></trkpt><trkpt lat="43.95386229872574" lon="7.999581208770956"><ele>110.0</ele><time>2026-04-25T07:59:54Z</time></trkpt><trkpt lat="43.95401068866072" lon="7.999649695843578"><ele>110.0</ele><time>2026-04-25T07:59:55Z</time></trkpt><trkpt lat="43.95415236792351" lon="7.999677445675718"><ele>110.0</ele><time>2026-04-25T07:59:56Z</time></trkpt><trkpt lat="43.95430599032669" lon="7.999689720539075"><ele>113.0</ele><time>2026-04-25T07:59:57Z</time></trkpt><trkpt lat="43.95446040467046" lon="7.999701534157199"><ele>116.0</ele><time>2026-04-25T07:59:58Z</time></trkpt><trkpt lat="43.954601617481444" lon="7.9996777746486565"><ele>119.0</ele><time>2026-04-25T07:59:59Z</time></trkpt><trkpt lat="43.954729236115924" lon="7.999599533934022"><ele>122.0</ele><time>2026-04-25T08:00:00Z</time></trkpt><trkpt lat="43.95484403703963" lon="7.999484897547408"><ele>122.0</ele><time>2026-04-25T08:00:01Z</time></trkpt><trkpt lat="43.95493700210663" lon="7.99933743496331"><ele>122.0</ele><time>2026-04-25T08:00:02Z</time></trkpt><trkpt lat="43.95501534997716" lon="7.999162367725694"><ele>122.0</ele><time>2026-04-25T08:00:03Z</time></trkpt><trkpt lat="43.95508030351447" lon="7.998980501099272"><ele>122.0</ele><time>2026-04-25T08:00:04Z</time></trkpt><trkpt lat="43.955149261929506" lon="7.9987998117024794"><ele>120.66666666666666</ele><time>2026-04-25T08:00:05Z</time></trkpt><trkpt lat="43.95522876122059" lon="7.998621254754366"><ele>119.33333333333334</ele><time>2026-04-25T08:00:05.999Z</time></trkpt><trkpt lat="43.955314703623" lon="7.998445403114126"><ele>118.0</ele><time>2026-04-25T08:00:06.999Z</time></trkpt><trkpt lat="43.95540641688092" lon="7.998268832091063"><ele>118.0</ele><time>2026-04-25T08:00:07.999Z</time></trkpt><trkpt lat="43.95550767665604" lon="7.99809497932383"><ele>118.0</ele><time>2026-04-25T08:00:08.999Z</time></trkpt><trkpt lat="43.95562734520982" lon="7.997936466888579"><ele>118.0</ele><time>2026-04-25T08:00:09.999Z</time></trkpt><trkpt lat="43.95573991466396" lon="7.997811881883598"><ele>118.0</ele><time>2026-04-25T08:00:10.999Z</time></trkpt><trkpt lat="43.955842649216244" lon="7.997701495138846"><ele>118.0</ele><time>2026-04-25T08:00:11.999Z</time></trkpt><trkpt lat="43.95593694647108" lon="7.997623557699248"><ele>118.0</ele><time>2026-04-25T08:00:12.999Z</time></trkpt><trkpt lat="43.95605624936249" lon="7.997594775432268"><ele>118.0</ele><time>2026-04-25T08:00:13.999Z</time></trkpt><trkpt lat="43.95618261001128" lon="7.9976259480182526"><ele>125.5</ele><time>2026-04-25T08:00:14.999Z</time></trkpt><trkpt lat="43.956286119683284" lon="7.997712676308086"><ele>133.0</ele><time>2026-04-25T08:00:15.999Z</time></trkpt><trkpt lat="43.95638740232688" lon="7.9978273894478145"><ele>140.5</ele><time>2026-04-25T08:00:16.999Z</time></trkpt><trkpt lat="43.95649049179582" lon="7.997928965867744"><ele>148.0</ele><time>2026-04-25T08:00:17.999Z</time></trkpt><trkpt lat="43.956598242498664" lon="7.997990116005636"><ele>152.2</ele><time>2026-04-25T08:00:18.999Z</time></trkpt><trkpt lat="43.956704800142916" lon="7.998009683306913"><ele>156.4</ele><time>2026-04-25T08:00:19.999Z</time></trkpt><trkpt lat="43.95681302206702" lon="7.998010060731008"><ele>160.6</ele><time>2026-04-25T08:00:20.999Z</time></trkpt><trkpt lat="43.95691774399441" lon="7.997982726236006"><ele>164.79999999999998</ele><time>2026-04-25T08:00:21.999Z</time></trkpt><trkpt lat="43.95701563788471" lon="7.997937388826822"><ele>169.0</ele><time>2026-04-25T08:00:22.999Z</time></trkpt><trkpt lat="43.95711035611167" lon="7.9978721384178115"><ele>169.0</ele><time>2026-04-25T08:00:23.999Z</time></trkpt><trkpt lat="43.95720185304257" lon="7.997784583670051"><ele>169.0</ele><time>2026-04-25T08:00:24.999Z</time></trkpt><trkpt lat="43.95728802767415" lon="7.997671783807865"><ele>169.0</ele><time>2026-04-25T08:00:25.999Z</time></trkpt><trkpt lat="43.95736375469758" lon="7.997532977257843"><ele>169.0</ele><time>2026-04-25T08:00:26.999Z</time></trkpt><trkpt lat="43.95742394853814" lon="7.9973871758477095"><ele>166.5</ele><time>2026-04-25T08:00:27.999Z</time></trkpt><trkpt lat="43.95747166397107" lon="7.9972254495089565"><ele>164.0</ele><time>2026-04-25T08:00:28.999Z</time></trkpt><trkpt lat="43.95750746872162" lon="7.9970476027119295"><ele>161.5</ele><time>2026-04-25T08:00:29.999Z</time></trkpt><trkpt lat="43.95753710094192" lon="7.9968706573222175"><ele>159.0</ele><time>2026-04-25T08:00:30.999Z</time></trkpt><trkpt lat="43.95756712704707" lon="7.996700910109533"><ele>153.5</ele><time>2026-04-25T08:00:31.999Z</time></trkpt><trkpt lat="43.95759623375027" lon="7.996529471293665"><ele>148.0</ele><time>2026-04-25T08:00:32.999Z</time></trkpt><trkpt lat="43.95762415816899" lon="7.996328787746496"><ele>142.5</ele><time>2026-04-25T08:00:33.999Z</time></trkpt><trkpt lat="43.95765549274535" lon="7.996122428427948"><ele>137.0</ele><time>2026-04-25T08:00:34.999Z</time></trkpt><trkpt lat="43.95769931149071" lon="7.995896734112194"><ele>134.33333333333331</ele><time>2026-04-25T08:00:35.999Z</time></trkpt><trkpt lat="43.9577567644225" lon="7.995636177558657"><ele>131.66666666666666</ele><time>2026-04-25T08:00:36.999Z</time></trkpt><trkpt lat="43.95782280874746" lon="7.995364982406337"><ele>129.0</ele><time>2026-04-25T08:00:37.999Z</time></trkpt><trkpt lat="43.95788223111312" lon="7.995107883883581"><ele>126.33333333333334</ele><time>2026-04-25T08:00:38.999Z</time></trkpt><trkpt lat="43.95793866779353" lon="7.994866827265897"><ele>123.66666666666667</ele><time>2026-04-25T08:00:39.999Z</time></trkpt><trkpt lat="43.95800115073488" lon="7.994620933124854"><ele>121.0</ele><time>2026-04-25T08:00:40.999Z</time></trkpt><trkpt lat="43.95807090011945" lon="7.99439267363331"><ele>121.0</ele><time>2026-04-25T08:00:41.999Z</time></trkpt><trkpt lat="43.958156810301865" lon="7.994184031000506"><ele>121.0</ele><time>2026-04-25T08:00:42.999Z</time></trkpt><trkpt lat="43.95825978439349" lon="7.99399328466802"><ele>121.0</ele><time>2026-04-25T08:00:43.999Z</time></trkpt><trkpt lat="43.95838032360242" lon="7.993818273309627"><ele>127.66666666666667</ele><time>2026-04-25T08:00:44.999Z</time></trkpt><trkpt lat="43.95850763588693" lon="7.9936552214445245"><ele>134.33333333333334</ele><time>2026-04-25T08:00:45.999Z</time></trkpt><trkpt lat="43.958639254723735" lon="7.993505628919939"><ele>141.0</ele><time>2026-04-25T08:00:46.999Z</time></trkpt><trkpt lat="43.95876418752651" lon="7.993369064345603"><ele>135.66666666666666</ele><time>2026-04-25T08:00:47.999Z</time></trkpt><trkpt lat="43.958889382743294" lon="7.993230680856706"><ele>130.33333333333331</ele><time>2026-04-25T08:00:48.999Z</time></trkpt><trkpt lat="43.95901816584784" lon="7.993088628145637"><ele>125.0</ele><time>2026-04-25T08:00:49.999Z</time></trkpt><trkpt lat="43.95915753653339" lon="7.992936750895395"><ele>123.33333333333333</ele><time>2026-04-25T08:00:50.999Z</time></trkpt><trkpt lat="43.95930558708159" lon="7.992780195007247"><ele>121.66666666666666</ele><time>2026-04-25T08:00:51.999Z</time></trkpt><trkpt lat="43.959450951599415" lon="7.992616027912088"><ele>120.0</ele><time>2026-04-25T08:00:52.999Z</time></trkpt><trkpt lat="43.95959369210378" lon="7.9924621817655"><ele>120.0</ele><time>2026-04-25T08:00:53.999Z</time></trkpt><trkpt lat="43.95973298357215" lon="7.99231168089884"><ele>120.0</ele><time>2026-04-25T08:00:54.999Z</time></trkpt><trkpt lat="43.95986574735327" lon="7.992162993360221"><ele>120.0</ele><time>2026-04-25T08:00:55.999Z</time></trkpt><trkpt lat="43.95999888548573" lon="7.992016458709567"><ele>121.33333333333334</ele><time>2026-04-25T08:00:56.999Z</time></trkpt><trkpt lat="43.96013156011652" lon="7.991866771644529"><ele>122.66666666666667</ele><time>2026-04-25T08:00:57.999Z</time></trkpt><trkpt lat="43.96026525477623" lon="7.9917214627005935"><ele>124.0</ele><time>2026-04-25T08:00:58.999Z</time></trkpt><trkpt lat="43.960406680002095" lon="7.9915835427595106"><ele>124.0</ele><time>2026-04-25T08:00:59.999Z</time></trkpt><trkpt lat="43.96055955926352" lon="7.991461277538554"><ele>124.0</ele><time>2026-04-25T08:01:00.999Z</time></trkpt><trkpt lat="43.96071680724432" lon="7.991347686870432"><ele>124.0</ele><time>2026-04-25T08:01:01.999Z</time></trkpt><trkpt lat="43.9608838947707" lon="7.991251180115592"><ele>130.66666666666669</ele><time>2026-04-25T08:01:02.999Z</time></trkpt><trkpt lat="43.9610566576544" lon="7.99117128269669"><ele>137.33333333333334</ele><time>2026-04-25T08:01:03.999Z</time></trkpt><trkpt lat="43.96122869805675" lon="7.991105064177285"><ele>144.0</ele><time>2026-04-25T08:01:04.999Z</time></trkpt><trkpt lat="43.96140649054822" lon="7.991053639014741"><ele>144.0</ele><time>2026-04-25T08:01:05.999Z</time></trkpt><trkpt lat="43.9615867861707" lon="7.99101921283167"><ele>144.0</ele><time>2026-04-25T08:01:07Z</time></trkpt><trkpt lat="43.96176345102349" lon="7.991002767708002"><ele>144.0</ele><time>2026-04-25T08:01:08Z</time></trkpt><trkpt lat="43.96193641816244" lon="7.990999046258858"><ele>147.0</ele><time>2026-04-25T08:01:09Z</time></trkpt><trkpt lat="43.96211245420582" lon="7.991007305605761"><ele>150.0</ele><time>2026-04-25T08:01:10Z</time></trkpt><trkpt lat="43.962289420708025" lon="7.991017447814244"><ele>153.0</ele><time>2026-04-25T08:01:11Z</time></trkpt><trkpt lat="43.96245143768773" lon="7.991024314156597"><ele>149.5</ele><time>2026-04-25T08:01:12Z</time></trkpt><trkpt lat="43.962587518904584" lon="7.991056728697041"><ele>146.0</ele><time>2026-04-25T08:01:13Z</time></trkpt><trkpt lat="43.96271012069296" lon="7.991134528594939"><ele>142.5</ele><time>2026-04-25T08:01:14Z</time></trkpt><trkpt lat="43.962803129790515" lon="7.991253017966137"><ele>139.0</ele><time>2026-04-25T08:01:15Z</time></trkpt><trkpt lat="43.962850970956545" lon="7.991387486638035"><ele>139.0</ele><time>2026-04-25T08:01:16Z</time></trkpt><trkpt lat="43.96289651602851" lon="7.99151960616256"><ele>139.0</ele><time>2026-04-25T08:01:17Z</time></trkpt><trkpt lat="43.962971842155596" lon="7.991593941542029"><ele>139.0</ele><time>2026-04-25T08:01:18Z</time></trkpt><trkpt lat="43.9630457061322" lon="7.991612774980959"><ele>139.0</ele><time>2026-04-25T08:01:19Z</time></trkpt><trkpt lat="43.9631134726359" lon="7.991583836749645"><ele>139.0</ele><time>2026-04-25T08:01:20Z</time></trkpt><trkpt lat="43.963168962347766" lon="7.991514685493171"><ele>139.0</ele><time>2026-04-25T08:01:21Z</time></trkpt><trkpt lat="43.963206060457445" lon="7.991430907759066"><ele>139.0</ele><time>2026-04-25T08:01:22Z</time></trkpt><trkpt lat="43.963227507162834" lon="7.991324414706225"><ele>139.0</ele><time>2026-04-25T08:01:23Z</time></trkpt><trkpt lat="43.963225131311106" lon="7.991193596437209"><ele>139.0</ele><time>2026-04-25T08:01:24Z</time></trkpt><trkpt lat="43.96321041482771" lon="7.991017830379822"><ele>139.0</ele><time>2026-04-25T08:01:25Z</time></trkpt><trkpt lat="43.9631859741071" lon="7.990830365431945"><ele>139.0</ele><time>2026-04-25T08:01:26Z</time></trkpt><trkpt lat="43.96315719962075" lon="7.990677107291747"><ele>138.25</ele><time>2026-04-25T08:01:27Z</time></trkpt><trkpt lat="43.96311373293866" lon="7.990516583546773"><ele>137.5</ele><time>2026-04-25T08:01:28Z</time></trkpt><trkpt lat="43.96307745974447" lon="7.990345889044886"><ele>136.75</ele><time>2026-04-25T08:01:29Z</time></trkpt><trkpt lat="43.963084453347264" lon="7.990173425198359"><ele>136.0</ele><time>2026-04-25T08:01:30Z</time></trkpt><trkpt lat="43.96313115605712" lon="7.990019180701587"><ele>135.75</ele><time>2026-04-25T08:01:31Z</time></trkpt><trkpt lat="43.9631849450016" lon="7.989850546845129"><ele>135.5</ele><time>2026-04-25T08:01:32Z</time></trkpt><trkpt lat="43.963237536181154" lon="7.989683314907861"><ele>135.25</ele><time>2026-04-25T08:01:33Z</time></trkpt><trkpt lat="43.96330186470117" lon="7.98951293889352"><ele>135.0</ele><time>2026-04-25T08:01:34Z</time></trkpt><trkpt lat="43.96337190658884" lon="7.98935076735117"><ele>139.5</ele><time>2026-04-25T08:01:35Z</time></trkpt><trkpt lat="43.96345176558477" lon="7.989190587650664"><ele>144.0</ele><time>2026-04-25T08:01:36Z</time></trkpt><trkpt lat="43.96353414177387" lon="7.989042781323046"><ele>148.5</ele><time>2026-04-25T08:01:37Z</time></trkpt><trkpt lat="43.96361943845328" lon="7.9888904156120395"><ele>153.0</ele><time>2026-04-25T08:01:38Z</time></trkpt><trkpt lat="43.9637020788028" lon="7.9887433619960815"><ele>153.0</ele><time>2026-04-25T08:01:39Z</time></trkpt><trkpt lat="43.963786357702084" lon="7.988601734997799"><ele>153.0</ele><time>2026-04-25T08:01:40Z</time></trkpt><trkpt lat="43.963894973040986" lon="7.988481224398901"><ele>153.0</ele><time>2026-04-25T08:01:41Z</time></trkpt><trkpt lat="43.96402435487525" lon="7.988369992113244"><ele>153.0</ele><time>2026-04-25T08:01:42Z</time></trkpt><trkpt lat="43.96415857365609" lon="7.988257140205448"><ele>155.0</ele><time>2026-04-25T08:01:43Z</time></trkpt><trkpt lat="43.96428806317117" lon="7.988138262537848"><ele>157.0</ele><time>2026-04-25T08:01:44Z</time></trkpt><trkpt lat="43.96442276186072" lon="7.988016901777486"><ele>159.0</ele><time>2026-04-25T08:01:45Z</time></trkpt><trkpt lat="43.96455408510808" lon="7.987894293362609"><ele>159.0</ele><time>2026-04-25T08:01:46Z</time></trkpt><trkpt lat="43.96468335683674" lon="7.987768275923267"><ele>159.0</ele><time>2026-04-25T08:01:47Z</time></trkpt><trkpt lat="43.96480839177707" lon="7.98764248812897"><ele>159.0</ele><time>2026-04-25T08:01:48Z</time></trkpt><trkpt lat="43.964933048169456" lon="7.9875162057514775"><ele>160.0</ele><time>2026-04-25T08:01:49Z</time></trkpt><trkpt lat="43.965050726580785" lon="7.987383693373633"><ele>161.0</ele><time>2026-04-25T08:01:50Z</time></trkpt><trkpt lat="43.96516803490257" lon="7.987241750410499"><ele>162.0</ele><time>2026-04-25T08:01:51Z</time></trkpt><trkpt lat="43.96528857722162" lon="7.987108018411851"><ele>162.0</ele><time>2026-04-25T08:01:52Z</time></trkpt><trkpt lat="43.96540456796594" lon="7.9869842257929005"><ele>162.0</ele><time>2026-04-25T08:01:53Z</time></trkpt><trkpt lat="43.965523275168685" lon="7.986879444732631"><ele>162.0</ele><time>2026-04-25T08:01:54Z</time></trkpt><trkpt lat="43.965658191878596" lon="7.986780005397515"><ele>162.0</ele><time>2026-04-25T08:01:55Z</time></trkpt><trkpt lat="43.96580342400008" lon="7.986693317966178"><ele>162.66666666666666</ele><time>2026-04-25T08:01:56Z</time></trkpt><trkpt lat="43.965945752504" lon="7.986608960681215"><ele>163.33333333333331</ele><time>2026-04-25T08:01:57Z</time></trkpt><trkpt lat="43.96608394900682" lon="7.986519616702668"><ele>164.0</ele><time>2026-04-25T08:01:58Z</time></trkpt><trkpt lat="43.96622162756355" lon="7.98643767415252"><ele>164.0</ele><time>2026-04-25T08:01:59Z</time></trkpt><trkpt lat="43.96635278903441" lon="7.986353438081483"><ele>164.0</ele><time>2026-04-25T08:02:00Z</time></trkpt><trkpt lat="43.96648023755556" lon="7.986255923514076"><ele>164.0</ele><time>2026-04-25T08:02:01Z</time></trkpt><trkpt lat="43.96659642235802" lon="7.986130700303249"><ele>164.0</ele><time>2026-04-25T08:02:02Z</time></trkpt><trkpt lat="43.966696623388124" lon="7.985982030669687"><ele>165.5</ele><time>2026-04-25T08:02:03Z</time></trkpt><trkpt lat="43.96679219122989" lon="7.9858327570991365"><ele>167.0</ele><time>2026-04-25T08:02:04Z</time></trkpt><trkpt lat="43.96688343137253" lon="7.985697540547244"><ele>168.5</ele><time>2026-04-25T08:02:05Z</time></trkpt><trkpt lat="43.96698070977761" lon="7.985561177460231"><ele>170.0</ele><time>2026-04-25T08:02:06Z</time></trkpt><trkpt lat="43.96707516732505" lon="7.985426918218759"><ele>170.0</ele><time>2026-04-25T08:02:07Z</time></trkpt><trkpt lat="43.96716416891081" lon="7.9852953595668055"><ele>170.0</ele><time>2026-04-25T08:02:08Z</time></trkpt><trkpt lat="43.967250654470945" lon="7.985177402667264"><ele>170.0</ele><time>2026-04-25T08:02:09Z</time></trkpt><trkpt lat="43.96732255525347" lon="7.985074332429138"><ele>170.0</ele><time>2026-04-25T08:02:10Z</time></trkpt><trkpt lat="43.967383306618665" lon="7.984979565577341"><ele>170.0</ele><time>2026-04-25T08:02:11Z</time></trkpt><trkpt lat="43.96745705821249" lon="7.98488408313215"><ele>166.0</ele><time>2026-04-25T08:02:12Z</time></trkpt><trkpt lat="43.967497662082316" lon="7.984750811734075"><ele>162.0</ele><time>2026-04-25T08:02:13Z</time></trkpt><trkpt lat="43.96749238489325" lon="7.9845938956137195"><ele>158.0</ele><time>2026-04-25T08:02:14Z</time></trkpt><trkpt lat="43.96745644313363" lon="7.984448766833258"><ele>154.0</ele><time>2026-04-25T08:02:15Z</time></trkpt><trkpt lat="43.96745333145084" lon="7.984300996966911"><ele>150.0</ele><time>2026-04-25T08:02:16Z</time></trkpt><trkpt lat="43.967447239549934" lon="7.984176296571869"><ele>149.0</ele><time>2026-04-25T08:02:17Z</time></trkpt><trkpt lat="43.967447280056575" lon="7.9840569070742475"><ele>148.0</ele><time>2026-04-25T08:02:17.999Z</time></trkpt><trkpt lat="43.96748372274581" lon="7.9839390601042"><ele>147.0</ele><time>2026-04-25T08:02:18.999Z</time></trkpt><trkpt lat="43.96750960404158" lon="7.983814025064892"><ele>146.0</ele><time>2026-04-25T08:02:19.999Z</time></trkpt><trkpt lat="43.9675753560072" lon="7.983709401011053"><ele>145.0</ele><time>2026-04-25T08:02:20.999Z</time></trkpt><trkpt lat="43.967678200694856" lon="7.983632280875336"><ele>147.8</ele><time>2026-04-25T08:02:21.999Z</time></trkpt><trkpt lat="43.967764363215004" lon="7.983584787646774"><ele>150.6</ele><time>2026-04-25T08:02:22.999Z</time></trkpt><trkpt lat="43.96785629490125" lon="7.983545271401141"><ele>153.4</ele><time>2026-04-25T08:02:24.999Z</time></trkpt><trkpt lat="43.96796887560044" lon="7.983468298767415"><ele>156.2</ele><time>2026-04-25T08:02:26.999Z</time></trkpt><trkpt lat="43.968047339053754" lon="7.983421076964091"><ele>159.0</ele><time>2026-04-25T08:02:27.999Z</time></trkpt><trkpt lat="43.96813011690984" lon="7.983363447453087"><ele>159.2</ele><time>2026-04-25T08:02:28.999Z</time></trkpt><trkpt lat="43.96821780943566" lon="7.983305178430131"><ele>159.4</ele><time>2026-04-25T08:02:29.999Z</time></trkpt><trkpt lat="43.96832771755777" lon="7.983213796575991"><ele>159.6</ele><time>2026-04-25T08:02:30.999Z</time></trkpt><trkpt lat="43.96841903092588" lon="7.983149825856634"><ele>159.8</ele><time>2026-04-25T08:02:31.999Z</time></trkpt><trkpt lat="43.968493115212205" lon="7.983092958920968"><ele>160.0</ele><time>2026-04-25T08:02:32.999Z</time></trkpt><trkpt lat="43.96857386181334" lon="7.983027656159649"><ele>160.0</ele><time>2026-04-25T08:02:33.999Z</time></trkpt><trkpt lat="43.96866454299667" lon="7.982976558142469"><ele>160.0</ele><time>2026-04-25T08:02:34.999Z</time></trkpt><trkpt lat="43.96875121718401" lon="7.982927556901212"><ele>160.0</ele><time>2026-04-25T08:02:35.999Z</time></trkpt><trkpt lat="43.968841926959335" lon="7.982890918215758"><ele>160.0</ele><time>2026-04-25T08:02:36.999Z</time></trkpt><trkpt lat="43.96893624903064" lon="7.982861085377551"><ele>160.0</ele><time>2026-04-25T08:02:37.999Z</time></trkpt><trkpt lat="43.96903506780721" lon="7.982835146002559"><ele>160.0</ele><time>2026-04-25T08:02:38.999Z</time></trkpt><trkpt lat="43.96913167048405" lon="7.982810524690675"><ele>160.0</ele><time>2026-04-25T08:02:39.999Z</time></trkpt><trkpt lat="43.96921468067818" lon="7.9827825873638885"><ele>160.0</ele><time>2026-04-25T08:02:40.999Z</time></trkpt><trkpt lat="43.969288798849576" lon="7.982766614156191"><ele>160.0</ele><time>2026-04-25T08:02:41.999Z</time></trkpt><trkpt lat="43.96936437221654" lon="7.982737433182081"><ele>160.0</ele><time>2026-04-25T08:02:42.999Z</time></trkpt><trkpt lat="43.969432794551864" lon="7.982683316182419"><ele>160.0</ele><time>2026-04-25T08:02:43.999Z</time></trkpt><trkpt lat="43.96946906810401" lon="7.982592362152282"><ele>160.16666666666669</ele><time>2026-04-25T08:02:44.999Z</time></trkpt><trkpt lat="43.96950375450726" lon="7.982479155318763"><ele>160.33333333333334</ele><time>2026-04-25T08:02:45.999Z</time></trkpt><trkpt lat="43.96952966407357" lon="7.982364760339786"><ele>160.5</ele><time>2026-04-25T08:02:46.999Z</time></trkpt><trkpt lat="43.969560128184035" lon="7.982264742241034"><ele>160.66666666666666</ele><time>2026-04-25T08:02:47.999Z</time></trkpt><trkpt lat="43.96960357089142" lon="7.982168209001769"><ele>160.83333333333331</ele><time>2026-04-25T08:02:48.999Z</time></trkpt><trkpt lat="43.969661721836815" lon="7.982066571647258"><ele>161.0</ele><time>2026-04-25T08:02:49.999Z</time></trkpt><trkpt lat="43.96972953396303" lon="7.98196648517746"><ele>161.0</ele><time>2026-04-25T08:02:50.999Z</time></trkpt><trkpt lat="43.96979987538921" lon="7.981868444848906"><ele>161.0</ele><time>2026-04-25T08:02:51.999Z</time></trkpt><trkpt lat="43.96986717598001" lon="7.981785406416535"><ele>161.0</ele><time>2026-04-25T08:02:52.999Z</time></trkpt><trkpt lat="43.969950992974624" lon="7.981707091761876"><ele>161.0</ele><time>2026-04-25T08:02:53.999Z</time></trkpt><trkpt lat="43.970067826988874" lon="7.981615984028859"><ele>161.0</ele><time>2026-04-25T08:02:54.999Z</time></trkpt><trkpt lat="43.97021165727872" lon="7.981533634794822"><ele>162.25</ele><time>2026-04-25T08:02:55.999Z</time></trkpt><trkpt lat="43.97033696284262" lon="7.9814444729919645"><ele>163.5</ele><time>2026-04-25T08:02:56.999Z</time></trkpt><trkpt lat="43.97047074104049" lon="7.981317660451415"><ele>164.75</ele><time>2026-04-25T08:02:57.999Z</time></trkpt><trkpt lat="43.97058795638683" lon="7.9811966206718"><ele>166.0</ele><time>2026-04-25T08:02:58.999Z</time></trkpt><trkpt lat="43.97069818032126" lon="7.981088400367764"><ele>166.0</ele><time>2026-04-25T08:02:59.999Z</time></trkpt><trkpt lat="43.97080922548839" lon="7.980967612872438"><ele>166.0</ele><time>2026-04-25T08:03:00.999Z</time></trkpt><trkpt lat="43.97090005591777" lon="7.980839897605538"><ele>166.0</ele><time>2026-04-25T08:03:01.999Z</time></trkpt><trkpt lat="43.970988161819626" lon="7.980692723316243"><ele>166.0</ele><time>2026-04-25T08:03:02.999Z</time></trkpt><trkpt lat="43.97107542695425" lon="7.980557715150848"><ele>165.75</ele><time>2026-04-25T08:03:03.999Z</time></trkpt><trkpt lat="43.97117216186561" lon="7.980414892391663"><ele>165.5</ele><time>2026-04-25T08:03:04.999Z</time></trkpt><trkpt lat="43.97126154218739" lon="7.980270627412215"><ele>165.25</ele><time>2026-04-25T08:03:05.999Z</time></trkpt><trkpt lat="43.9713477097898" lon="7.980132914039638"><ele>165.0</ele><time>2026-04-25T08:03:06.999Z</time></trkpt><trkpt lat="43.97145992857367" lon="7.980034553297135"><ele>165.5</ele><time>2026-04-25T08:03:07.999Z</time></trkpt><trkpt lat="43.97157932948768" lon="7.979986410655661"><ele>166.0</ele><time>2026-04-25T08:03:08.999Z</time></trkpt><trkpt lat="43.97170936882435" lon="7.979976994656905"><ele>166.5</ele><time>2026-04-25T08:03:09.999Z</time></trkpt><trkpt lat="43.97184447523121" lon="7.9800020236199645"><ele>167.0</ele><time>2026-04-25T08:03:10.999Z</time></trkpt><trkpt lat="43.97197427691711" lon="7.980045125195255"><ele>167.0</ele><time>2026-04-25T08:03:11.999Z</time></trkpt><trkpt lat="43.97207576143727" lon="7.980116923914223"><ele>167.0</ele><time>2026-04-25T08:03:13Z</time></trkpt><trkpt lat="43.97216630259781" lon="7.9801891996402965"><ele>167.0</ele><time>2026-04-25T08:03:14Z</time></trkpt><trkpt lat="43.97227248009299" lon="7.980224374070867"><ele>167.0</ele><time>2026-04-25T08:03:15Z</time></trkpt><trkpt lat="43.97236561404221" lon="7.980248279460736"><ele>167.0</ele><time>2026-04-25T08:03:16Z</time></trkpt><trkpt lat="43.9724621776067" lon="7.980223720400167"><ele>167.8</ele><time>2026-04-25T08:03:17Z</time></trkpt><trkpt lat="43.97253573544963" lon="7.980143192291413"><ele>168.6</ele><time>2026-04-25T08:03:18Z</time></trkpt><trkpt lat="43.972576795922485" lon="7.980027556270447"><ele>169.4</ele><time>2026-04-25T08:03:19Z</time></trkpt><trkpt lat="43.9725953045389" lon="7.979906364102397"><ele>170.20000000000002</ele><time>2026-04-25T08:03:20Z</time></trkpt><trkpt lat="43.97254634644554" lon="7.97978939817445"><ele>171.0</ele><time>2026-04-25T08:03:21Z</time></trkpt><trkpt lat="43.97249016171508" lon="7.979692892784598"><ele>167.0</ele><time>2026-04-25T08:03:22Z</time></trkpt><trkpt lat="43.97244501567866" lon="7.979576598014758"><ele>163.0</ele><time>2026-04-25T08:03:23Z</time></trkpt><trkpt lat="43.97239106404081" lon="7.9794556422016685"><ele>159.0</ele><time>2026-04-25T08:03:24Z</time></trkpt><trkpt lat="43.972378302645446" lon="7.979326248298414"><ele>155.0</ele><time>2026-04-25T08:03:25Z</time></trkpt><trkpt lat="43.97238463191437" lon="7.979191566828897"><ele>151.0</ele><time>2026-04-25T08:03:26Z</time></trkpt><trkpt lat="43.97245102764007" lon="7.979079160070876"><ele>158.5</ele><time>2026-04-25T08:03:27Z</time></trkpt><trkpt lat="43.972535002124935" lon="7.978977073380798"><ele>166.0</ele><time>2026-04-25T08:03:28Z</time></trkpt><trkpt lat="43.97264260493901" lon="7.9789450069203065"><ele>173.5</ele><time>2026-04-25T08:03:29Z</time></trkpt><trkpt lat="43.97276288718503" lon="7.978909228305874"><ele>181.0</ele><time>2026-04-25T08:03:30Z</time></trkpt><trkpt lat="43.972890796078055" lon="7.978884330245646"><ele>181.0</ele><time>2026-04-25T08:03:31Z</time></trkpt><trkpt lat="43.97301707083399" lon="7.9787916301567705"><ele>181.0</ele><time>2026-04-25T08:03:32Z</time></trkpt><trkpt lat="43.97311994252221" lon="7.978683084750366"><ele>181.0</ele><time>2026-04-25T08:03:33Z</time></trkpt><trkpt lat="43.97321943587618" lon="7.978564641773476"><ele>181.0</ele><time>2026-04-25T08:03:34Z</time></trkpt><trkpt lat="43.973309486704125" lon="7.978423012922288"><ele>188.5</ele><time>2026-04-25T08:03:35Z</time></trkpt><trkpt lat="43.973381503014586" lon="7.978256295065521"><ele>196.0</ele><time>2026-04-25T08:03:36Z</time></trkpt><trkpt lat="43.97344342580502" lon="7.978065237064979"><ele>203.5</ele><time>2026-04-25T08:03:37Z</time></trkpt><trkpt lat="43.97350934106083" lon="7.97786548944298"><ele>211.0</ele><time>2026-04-25T08:03:38Z</time></trkpt><trkpt lat="43.973575825759156" lon="7.977668877025989"><ele>207.0</ele><time>2026-04-25T08:03:39Z</time></trkpt><trkpt lat="43.9736194265642" lon="7.977488283525364"><ele>203.0</ele><time>2026-04-25T08:03:40Z</time></trkpt><trkpt lat="43.973644248366035" lon="7.977333462822571"><ele>199.0</ele><time>2026-04-25T08:03:41Z</time></trkpt><trkpt lat="43.97368403449523" lon="7.977212732905951"><ele>195.0</ele><time>2026-04-25T08:03:42Z</time></trkpt><trkpt lat="43.973711254265254" lon="7.977112445433953"><ele>191.0</ele><time>2026-04-25T08:03:43Z</time></trkpt><trkpt lat="43.97374977946907" lon="7.976977451817197"><ele>191.0</ele><time>2026-04-25T08:03:45Z</time></trkpt><trkpt lat="43.97380721215661" lon="7.977013479536383"><ele>191.0</ele><time>2026-04-25T08:03:48Z</time></trkpt><trkpt lat="43.97376824589876" lon="7.977109690727674"><ele>191.0</ele><time>2026-04-25T08:03:49Z</time></trkpt><trkpt lat="43.97377269512129" lon="7.977209486936775"><ele>191.0</ele><time>2026-04-25T08:03:50Z</time></trkpt><trkpt lat="43.973779268332265" lon="7.977315665443002"><ele>191.0</ele><time>2026-04-25T08:03:51Z</time></trkpt><trkpt lat="43.97375978387317" lon="7.97745732658966"><ele>191.0</ele><time>2026-04-25T08:03:52Z</time></trkpt><trkpt lat="43.97377104605962" lon="7.977596377419629"><ele>196.0</ele><time>2026-04-25T08:03:53Z</time></trkpt><trkpt lat="43.97374484301328" lon="7.977744799014385"><ele>201.0</ele><time>2026-04-25T08:03:54Z</time></trkpt><trkpt lat="43.973706821958764" lon="7.977894520186003"><ele>206.0</ele><time>2026-04-25T08:03:55Z</time></trkpt><trkpt lat="43.97370234550401" lon="7.9780831590856325"><ele>211.0</ele><time>2026-04-25T08:03:56Z</time></trkpt><trkpt lat="43.9736766092989" lon="7.978253510247108"><ele>213.25</ele><time>2026-04-25T08:03:57Z</time></trkpt><trkpt lat="43.973616738607085" lon="7.978359210013869"><ele>215.5</ele><time>2026-04-25T08:03:58Z</time></trkpt><trkpt lat="43.973549307503305" lon="7.978464280509138"><ele>217.75</ele><time>2026-04-25T08:03:59Z</time></trkpt><trkpt lat="43.97347269843975" lon="7.978635405612853"><ele>220.0</ele><time>2026-04-25T08:04:00Z</time></trkpt><trkpt lat="43.97338091106622" lon="7.97877594577245"><ele>212.2</ele><time>2026-04-25T08:04:01Z</time></trkpt><trkpt lat="43.97329918115113" lon="7.978888025058084"><ele>204.4</ele><time>2026-04-25T08:04:02Z</time></trkpt><trkpt lat="43.97318656722689" lon="7.978931819152255"><ele>196.60000000000002</ele><time>2026-04-25T08:04:03Z</time></trkpt><trkpt lat="43.97308398099082" lon="7.979028838217261"><ele>188.8</ele><time>2026-04-25T08:04:04Z</time></trkpt><trkpt lat="43.97302251009135" lon="7.97912206960582"><ele>181.0</ele><time>2026-04-25T08:04:05Z</time></trkpt><trkpt lat="43.97300845496564" lon="7.979224756405087"><ele>179.33333333333334</ele><time>2026-04-25T08:04:06Z</time></trkpt><trkpt lat="43.97301628854622" lon="7.979330819247843"><ele>177.66666666666669</ele><time>2026-04-25T08:04:07Z</time></trkpt><trkpt lat="43.97307739262073" lon="7.97945948218461"><ele>176.0</ele><time>2026-04-25T08:04:09Z</time></trkpt><trkpt lat="43.97315664694574" lon="7.979466955143131"><ele>174.33333333333334</ele><time>2026-04-25T08:04:10Z</time></trkpt><trkpt lat="43.973235588979705" lon="7.979516908069926"><ele>172.66666666666666</ele><time>2026-04-25T08:04:12Z</time></trkpt><trkpt lat="43.97330699412611" lon="7.979531414253464"><ele>171.0</ele><time>2026-04-25T08:04:14Z</time></trkpt><trkpt lat="43.9733566989831" lon="7.9795999601861896"><ele>176.60000000000002</ele><time>2026-04-25T08:04:16Z</time></trkpt><trkpt lat="43.973439100972335" lon="7.9796744769674515"><ele>182.2</ele><time>2026-04-25T08:04:18Z</time></trkpt><trkpt lat="43.973537812004196" lon="7.9797923103118125"><ele>187.8</ele><time>2026-04-25T08:04:20Z</time></trkpt><trkpt lat="43.973610505925436" lon="7.979865299372818"><ele>193.39999999999998</ele><time>2026-04-25T08:04:21Z</time></trkpt><trkpt lat="43.97369318975339" lon="7.979940371031058"><ele>199.0</ele><time>2026-04-25T08:04:22Z</time></trkpt><trkpt lat="43.97377389553527" lon="7.980003813172848"><ele>201.5</ele><time>2026-04-25T08:04:23Z</time></trkpt><trkpt lat="43.973872633002365" lon="7.980080091862175"><ele>204.0</ele><time>2026-04-25T08:04:24Z</time></trkpt><trkpt lat="43.97397765192067" lon="7.980169262188521"><ele>206.5</ele><time>2026-04-25T08:04:25Z</time></trkpt><trkpt lat="43.97408877027934" lon="7.980279772023235"><ele>209.0</ele><time>2026-04-25T08:04:26Z</time></trkpt><trkpt lat="43.97419592073929" lon="7.980391603706564"><ele>209.0</ele><time>2026-04-25T08:04:27Z</time></trkpt><trkpt lat="43.97430159966097" lon="7.980496811969008"><ele>209.0</ele><time>2026-04-25T08:04:28Z</time></trkpt><trkpt lat="43.974373743476754" lon="7.980593234570219"><ele>209.0</ele><time>2026-04-25T08:04:28.999Z</time></trkpt><trkpt lat="43.9744396439342" lon="7.9807108055022455"><ele>209.0</ele><time>2026-04-25T08:04:29.999Z</time></trkpt><trkpt lat="43.974518768038934" lon="7.980814109488479"><ele>209.0</ele><time>2026-04-25T08:04:30.999Z</time></trkpt><trkpt lat="43.97461884588668" lon="7.9809092897818745"><ele>203.5</ele><time>2026-04-25T08:04:31.999Z</time></trkpt><trkpt lat="43.97472149053491" lon="7.981004181720588"><ele>198.0</ele><time>2026-04-25T08:04:32.999Z</time></trkpt><trkpt lat="43.97479630603779" lon="7.981118712374935"><ele>192.5</ele><time>2026-04-25T08:04:33.999Z</time></trkpt><trkpt lat="43.97487905838693" lon="7.981256350866824"><ele>187.0</ele><time>2026-04-25T08:04:34.999Z</time></trkpt><trkpt lat="43.97493986639306" lon="7.981411201256702"><ele>187.0</ele><time>2026-04-25T08:04:35.999Z</time></trkpt><trkpt lat="43.97499951245901" lon="7.981549044786393"><ele>187.0</ele><time>2026-04-25T08:04:36.999Z</time></trkpt><trkpt lat="43.97503321535407" lon="7.981682701691243"><ele>187.0</ele><time>2026-04-25T08:04:37.999Z</time></trkpt><trkpt lat="43.975076439359846" lon="7.981788669290536"><ele>187.0</ele><time>2026-04-25T08:04:38.999Z</time></trkpt><trkpt lat="43.97515030618665" lon="7.981881118235808"><ele>187.0</ele><time>2026-04-25T08:04:39.999Z</time></trkpt><trkpt lat="43.97523349320287" lon="7.981970394071827"><ele>188.8</ele><time>2026-04-25T08:04:40.999Z</time></trkpt><trkpt lat="43.97530566482861" lon="7.982051658612016"><ele>190.6</ele><time>2026-04-25T08:04:41.999Z</time></trkpt><trkpt lat="43.97537045898077" lon="7.982137941332232"><ele>192.4</ele><time>2026-04-25T08:04:42.999Z</time></trkpt><trkpt lat="43.97545480384263" lon="7.982230809605633"><ele>194.20000000000002</ele><time>2026-04-25T08:04:43.999Z</time></trkpt><trkpt lat="43.97555190343003" lon="7.98231820942869"><ele>196.0</ele><time>2026-04-25T08:04:44.999Z</time></trkpt><trkpt lat="43.975648904753996" lon="7.982403910011126"><ele>196.0</ele><time>2026-04-25T08:04:45.999Z</time></trkpt><trkpt lat="43.975742657869155" lon="7.982453942660461"><ele>196.0</ele><time>2026-04-25T08:04:46.999Z</time></trkpt><trkpt lat="43.97584114149298" lon="7.982527683945772"><ele>196.0</ele><time>2026-04-25T08:04:47.999Z</time></trkpt><trkpt lat="43.97592451385101" lon="7.982582930266951"><ele>196.0</ele><time>2026-04-25T08:04:48.999Z</time></trkpt><trkpt lat="43.97603011369849" lon="7.982646627560248"><ele>196.0</ele><time>2026-04-25T08:04:49.999Z</time></trkpt><trkpt lat="43.97614461913472" lon="7.982725345683172"><ele>199.75</ele><time>2026-04-25T08:04:50.999Z</time></trkpt><trkpt lat="43.976254248460016" lon="7.982821717534427"><ele>203.5</ele><time>2026-04-25T08:04:51.999Z</time></trkpt><trkpt lat="43.976361148381216" lon="7.98293897069194"><ele>207.25</ele><time>2026-04-25T08:04:52.999Z</time></trkpt><trkpt lat="43.97646534948057" lon="7.983050308094067"><ele>211.0</ele><time>2026-04-25T08:04:53.999Z</time></trkpt><trkpt lat="43.97655647204934" lon="7.983167898446809"><ele>210.99999999999997</ele><time>2026-04-25T08:04:54.999Z</time></trkpt><trkpt lat="43.97663497908419" lon="7.983248033615815"><ele>211.0</ele><time>2026-04-25T08:04:55.999Z</time></trkpt><trkpt lat="43.97667791023231" lon="7.983317975328868"><ele>211.0</ele><time>2026-04-25T08:04:56.999Z</time></trkpt><trkpt lat="43.976742234040685" lon="7.98333433000213"><ele>211.0</ele><time>2026-04-25T08:04:59.999Z</time></trkpt><trkpt lat="43.976700446385685" lon="7.983185597444767"><ele>210.99999999999997</ele><time>2026-04-25T08:05:01.999Z</time></trkpt><trkpt lat="43.976645921580655" lon="7.983105008301491"><ele>211.0</ele><time>2026-04-25T08:05:02.999Z</time></trkpt><trkpt lat="43.97659554233774" lon="7.982978733996254"><ele>211.0</ele><time>2026-04-25T08:05:03.999Z</time></trkpt><trkpt lat="43.97655548887075" lon="7.982861761442563"><ele>211.0</ele><time>2026-04-25T08:05:04.999Z</time></trkpt><trkpt lat="43.976523725109466" lon="7.982731552765324"><ele>211.0</ele><time>2026-04-25T08:05:05.999Z</time></trkpt><trkpt lat="43.97647471618089" lon="7.982634916233319"><ele>211.0</ele><time>2026-04-25T08:05:06.999Z</time></trkpt><trkpt lat="43.97641374586633" lon="7.982538051969499"><ele>211.0</ele><time>2026-04-25T08:05:07.999Z</time></trkpt><trkpt lat="43.97635442200376" lon="7.98244645039774"><ele>216.4</ele><time>2026-04-25T08:05:08.999Z</time></trkpt><trkpt lat="43.97629705500057" lon="7.982357053378666"><ele>221.8</ele><time>2026-04-25T08:05:09.999Z</time></trkpt><trkpt lat="43.976234596972766" lon="7.982254685393373"><ele>227.20000000000002</ele><time>2026-04-25T08:05:10.999Z</time></trkpt><trkpt lat="43.976179443269224" lon="7.982133384351513"><ele>232.60000000000002</ele><time>2026-04-25T08:05:11.999Z</time></trkpt><trkpt lat="43.97613084135476" lon="7.982009002603669"><ele>238.0</ele><time>2026-04-25T08:05:12.999Z</time></trkpt><trkpt lat="43.97607396412034" lon="7.981912243210107"><ele>238.0</ele><time>2026-04-25T08:05:13.999Z</time></trkpt><trkpt lat="43.97600889395997" lon="7.9818415423744336"><ele>238.0</ele><time>2026-04-25T08:05:14.999Z</time></trkpt><trkpt lat="43.975947579997246" lon="7.981716335945623"><ele>238.0</ele><time>2026-04-25T08:05:16.999Z</time></trkpt><trkpt lat="43.97590137710825" lon="7.981644214970708"><ele>238.0</ele><time>2026-04-25T08:05:19Z</time></trkpt><trkpt lat="43.975790609354895" lon="7.981577949086861"><ele>238.0</ele><time>2026-04-25T08:05:38Z</time></trkpt><trkpt lat="43.97572071715945" lon="7.981492834236308"><ele>239.8</ele><time>2026-04-25T08:05:40Z</time></trkpt><trkpt lat="43.975670821669176" lon="7.981370587046323"><ele>241.60000000000002</ele><time>2026-04-25T08:05:52Z</time></trkpt><trkpt lat="43.97562148807102" lon="7.981251096142277"><ele>243.39999999999998</ele><time>2026-04-25T08:05:53Z</time></trkpt><trkpt lat="43.975568535015846" lon="7.981102291385709"><ele>245.2</ele><time>2026-04-25T08:05:54Z</time></trkpt><trkpt lat="43.97552291534337" lon="7.980939338083617"><ele>247.0</ele><time>2026-04-25T08:05:55Z</time></trkpt><trkpt lat="43.975492339443406" lon="7.980773186783496"><ele>247.0</ele><time>2026-04-25T08:05:56Z</time></trkpt><trkpt lat="43.97545003325761" lon="7.980622133564686"><ele>247.0</ele><time>2026-04-25T08:05:57Z</time></trkpt><trkpt lat="43.97539680631193" lon="7.980484753558946"><ele>247.0</ele><time>2026-04-25T08:05:58Z</time></trkpt><trkpt lat="43.975312498807675" lon="7.980332536654327"><ele>247.0</ele><time>2026-04-25T08:05:59Z</time></trkpt><trkpt lat="43.975232498040995" lon="7.980187411819142"><ele>247.0</ele><time>2026-04-25T08:06:00Z</time></trkpt><trkpt lat="43.97517895591526" lon="7.980067311634234"><ele>247.0</ele><time>2026-04-25T08:06:01Z</time></trkpt><trkpt lat="43.97512800822578" lon="7.9799690382394"><ele>247.0</ele><time>2026-04-25T08:06:02Z</time></trkpt><trkpt lat="43.97506711235954" lon="7.979864864097514"><ele>247.0</ele><time>2026-04-25T08:06:03Z</time></trkpt><trkpt lat="43.97500991881536" lon="7.979775924944574"><ele>247.0</ele><time>2026-04-25T08:06:04Z</time></trkpt><trkpt lat="43.97493592002829" lon="7.979679855759604"><ele>244.8</ele><time>2026-04-25T08:06:05Z</time></trkpt><trkpt lat="43.974850799082795" lon="7.979566349662963"><ele>242.6</ele><time>2026-04-25T08:06:06Z</time></trkpt><trkpt lat="43.97476224340198" lon="7.9794455801386075"><ele>240.40000000000003</ele><time>2026-04-25T08:06:07Z</time></trkpt><trkpt lat="43.9746828728081" lon="7.979346470657907"><ele>238.20000000000002</ele><time>2026-04-25T08:06:08Z</time></trkpt><trkpt lat="43.974604159151305" lon="7.9792743373847115"><ele>236.0</ele><time>2026-04-25T08:06:09Z</time></trkpt><trkpt lat="43.974536965343226" lon="7.979224652858789"><ele>240.00000000000003</ele><time>2026-04-25T08:06:10Z</time></trkpt><trkpt lat="43.97446637597657" lon="7.979167516422268"><ele>244.0</ele><time>2026-04-25T08:06:11Z</time></trkpt><trkpt lat="43.97442374327532" lon="7.97908268635731"><ele>248.0</ele><time>2026-04-25T08:06:12Z</time></trkpt><trkpt lat="43.97441196834781" lon="7.978982797232557"><ele>252.0</ele><time>2026-04-25T08:06:13Z</time></trkpt><trkpt lat="43.97444833131594" lon="7.978813386275714"><ele>256.0</ele><time>2026-04-25T08:06:15Z</time></trkpt><trkpt lat="43.97448681452129" lon="7.978709291429886"><ele>260.0</ele><time>2026-04-25T08:06:16Z</time></trkpt><trkpt lat="43.97453529525872" lon="7.9785595655979105"><ele>260.0</ele><time>2026-04-25T08:06:17Z</time></trkpt><trkpt lat="43.97458136787419" lon="7.978415877039746"><ele>260.0</ele><time>2026-04-25T08:06:18Z</time></trkpt><trkpt lat="43.97462286082565" lon="7.978312105999219"><ele>260.0</ele><time>2026-04-25T08:06:19Z</time></trkpt><trkpt lat="43.974656551678606" lon="7.978200694817617"><ele>260.0</ele><time>2026-04-25T08:06:20Z</time></trkpt><trkpt lat="43.97468157917904" lon="7.978110310172165"><ele>260.0</ele><time>2026-04-25T08:06:21Z</time></trkpt><trkpt lat="43.974781021176476" lon="7.978032828314358"><ele>260.2</ele><time>2026-04-25T08:06:23Z</time></trkpt><trkpt lat="43.97485547826213" lon="7.977975350880833"><ele>260.4</ele><time>2026-04-25T08:06:24Z</time></trkpt><trkpt lat="43.97494616603748" lon="7.97789927437589"><ele>260.6</ele><time>2026-04-25T08:06:25Z</time></trkpt><trkpt lat="43.975030423106375" lon="7.977815454141547"><ele>260.8</ele><time>2026-04-25T08:06:26Z</time></trkpt><trkpt lat="43.9750784946116" lon="7.977746773931662"><ele>261.0</ele><time>2026-04-25T08:06:27Z</time></trkpt><trkpt lat="43.975125231670596" lon="7.9776424442148315"><ele>264.8</ele><time>2026-04-25T08:06:28Z</time></trkpt><trkpt lat="43.97517571779838" lon="7.977516047084619"><ele>268.6</ele><time>2026-04-25T08:06:29Z</time></trkpt><trkpt lat="43.975231579233416" lon="7.977401531301695"><ele>272.4</ele><time>2026-04-25T08:06:30Z</time></trkpt><trkpt lat="43.97526759170697" lon="7.977323255393921"><ele>276.2</ele><time>2026-04-25T08:06:31Z</time></trkpt><trkpt lat="43.97530605911328" lon="7.977172763033785"><ele>280.0</ele><time>2026-04-25T08:06:33Z</time></trkpt><trkpt lat="43.97534127247243" lon="7.977068025404459"><ele>280.0</ele><time>2026-04-25T08:06:33.999Z</time></trkpt><trkpt lat="43.97539489464484" lon="7.976966741955056"><ele>280.0</ele><time>2026-04-25T08:06:34.999Z</time></trkpt><trkpt lat="43.97546597152387" lon="7.9768669774021"><ele>280.0</ele><time>2026-04-25T08:06:35.999Z</time></trkpt><trkpt lat="43.975549214292656" lon="7.976782200837316"><ele>280.0</ele><time>2026-04-25T08:06:36.999Z</time></trkpt><trkpt lat="43.97560755372917" lon="7.976716086665851"><ele>280.0</ele><time>2026-04-25T08:06:37.999Z</time></trkpt><trkpt lat="43.975691419012755" lon="7.976662699303848"><ele>276.66666666666663</ele><time>2026-04-25T08:06:39.999Z</time></trkpt><trkpt lat="43.97576703673203" lon="7.976609801005198"><ele>273.3333333333333</ele><time>2026-04-25T08:06:41.999Z</time></trkpt><trkpt lat="43.975842431645354" lon="7.9765399678719415"><ele>270.0</ele><time>2026-04-25T08:06:43.999Z</time></trkpt><trkpt lat="43.975893236417114" lon="7.976477646274255"><ele>266.6666666666667</ele><time>2026-04-25T08:06:45.999Z</time></trkpt><trkpt lat="43.97594708175596" lon="7.9763831484735785"><ele>263.33333333333337</ele><time>2026-04-25T08:06:47.999Z</time></trkpt><trkpt lat="43.97599011547885" lon="7.97625828401325"><ele>260.0</ele><time>2026-04-25T08:06:49.999Z</time></trkpt><trkpt lat="43.97604126675554" lon="7.976126209125851"><ele>265.2</ele><time>2026-04-25T08:06:51.999Z</time></trkpt><trkpt lat="43.9760934028724" lon="7.976002865293137"><ele>270.4</ele><time>2026-04-25T08:06:53.999Z</time></trkpt><trkpt lat="43.976154468289025" lon="7.9758814184547635"><ele>275.6</ele><time>2026-04-25T08:06:55.999Z</time></trkpt><trkpt lat="43.97621373314446" lon="7.975756718961806"><ele>280.8</ele><time>2026-04-25T08:06:57.999Z</time></trkpt><trkpt lat="43.97627020791302" lon="7.975626482447818"><ele>286.0</ele><time>2026-04-25T08:06:59.999Z</time></trkpt><trkpt lat="43.97634462211443" lon="7.975542239827709"><ele>286.0</ele><time>2026-04-25T08:07:01.999Z</time></trkpt><trkpt lat="43.97640871360695" lon="7.975459872121223"><ele>286.0</ele><time>2026-04-25T08:07:03.999Z</time></trkpt><trkpt lat="43.97647260159389" lon="7.975394296732242"><ele>286.0</ele><time>2026-04-25T08:07:05.999Z</time></trkpt><trkpt lat="43.97653179330519" lon="7.975316450641624"><ele>286.0</ele><time>2026-04-25T08:07:07.999Z</time></trkpt><trkpt lat="43.97659923661682" lon="7.975381316583006"><ele>286.0</ele><time>2026-04-25T08:07:10.999Z</time></trkpt><trkpt lat="43.97656821246372" lon="7.975484418089109"><ele>286.0</ele><time>2026-04-25T08:07:11.999Z</time></trkpt><trkpt lat="43.97653949309434" lon="7.975571433857904"><ele>286.0</ele><time>2026-04-25T08:07:12.999Z</time></trkpt><trkpt lat="43.97651597077267" lon="7.975717215168361"><ele>286.0</ele><time>2026-04-25T08:07:14.999Z</time></trkpt><trkpt lat="43.97651204582782" lon="7.9758665346436945"><ele>286.0</ele><time>2026-04-25T08:07:16.999Z</time></trkpt><trkpt lat="43.97648987240683" lon="7.975951522683773"><ele>286.0</ele><time>2026-04-25T08:07:17.999Z</time></trkpt><trkpt lat="43.97647625414679" lon="7.976103179349617"><ele>286.0</ele><time>2026-04-25T08:07:19.999Z</time></trkpt><trkpt lat="43.976461020061755" lon="7.9762424013376885"><ele>290.40000000000003</ele><time>2026-04-25T08:07:21.999Z</time></trkpt><trkpt lat="43.9764254176137" lon="7.976375363565314"><ele>294.8</ele><time>2026-04-25T08:07:23.999Z</time></trkpt><trkpt lat="43.97640416070562" lon="7.976512234103599"><ele>299.20000000000005</ele><time>2026-04-25T08:07:26Z</time></trkpt><trkpt lat="43.97638568488414" lon="7.9766168818328165"><ele>303.6</ele><time>2026-04-25T08:07:27Z</time></trkpt><trkpt lat="43.976358383737534" lon="7.976761350591843"><ele>308.0</ele><time>2026-04-25T08:07:29Z</time></trkpt><trkpt lat="43.976304856555316" lon="7.976894564931014"><ele>308.0</ele><time>2026-04-25T08:07:31Z</time></trkpt><trkpt lat="43.97635775431413" lon="7.976964936757982"><ele>308.0</ele><time>2026-04-25T08:07:34Z</time></trkpt><trkpt lat="43.97642591130181" lon="7.976837549974287"><ele>308.0</ele><time>2026-04-25T08:07:36Z</time></trkpt><trkpt lat="43.976479512042026" lon="7.976726605878854"><ele>308.0</ele><time>2026-04-25T08:07:38Z</time></trkpt><trkpt lat="43.97653980964076" lon="7.976622345522682"><ele>308.0</ele><time>2026-04-25T08:07:40Z</time></trkpt><trkpt lat="43.976612980811204" lon="7.976534539811179"><ele>308.0</ele><time>2026-04-25T08:07:42Z</time></trkpt><trkpt lat="43.97668199853213" lon="7.976441495155969"><ele>308.0</ele><time>2026-04-25T08:07:44Z</time></trkpt><trkpt lat="43.9767473785585" lon="7.976332926960975"><ele>308.0</ele><time>2026-04-25T08:07:46Z</time></trkpt><trkpt lat="43.976828093282215" lon="7.976279418811021"><ele>308.0</ele><time>2026-04-25T08:07:49Z</time></trkpt><trkpt lat="43.9768174531393" lon="7.97637080196167"><ele>308.0</ele><time>2026-04-25T08:08:40.999Z</time></trkpt><trkpt lat="43.976794369314916" lon="7.976459469020435"><ele>308.0</ele><time>2026-04-25T08:08:41.999Z</time></trkpt><trkpt lat="43.976773876004486" lon="7.976546154471348"><ele>311.4</ele><time>2026-04-25T08:08:42.999Z</time></trkpt><trkpt lat="43.97676282109279" lon="7.976651205853595"><ele>314.8</ele><time>2026-04-25T08:08:43.999Z</time></trkpt><trkpt lat="43.97676179937368" lon="7.976766862485154"><ele>318.2</ele><time>2026-04-25T08:08:44.999Z</time></trkpt><trkpt lat="43.97674739957909" lon="7.976901632981585"><ele>321.6</ele><time>2026-04-25T08:08:45.999Z</time></trkpt><trkpt lat="43.97671111300401" lon="7.977059229209335"><ele>325.0</ele><time>2026-04-25T08:08:46.999Z</time></trkpt><trkpt lat="43.976677138051706" lon="7.97719828321713"><ele>325.0</ele><time>2026-04-25T08:08:47.999Z</time></trkpt><trkpt lat="43.97662994122256" lon="7.977323017180352"><ele>325.0</ele><time>2026-04-25T08:08:48.999Z</time></trkpt><trkpt lat="43.976578152877316" lon="7.977440267730877"><ele>325.0</ele><time>2026-04-25T08:08:49.999Z</time></trkpt><trkpt lat="43.9765395194573" lon="7.977519741467125"><ele>325.0</ele><time>2026-04-25T08:08:50.999Z</time></trkpt><trkpt lat="43.976514282115545" lon="7.9776085233648795"><ele>325.0</ele><time>2026-04-25T08:08:52.999Z</time></trkpt><trkpt lat="43.97660053223998" lon="7.977619853980567"><ele>325.0</ele><time>2026-04-25T08:08:54.999Z</time></trkpt><trkpt lat="43.97664557275524" lon="7.977554595767818"><ele>332.4</ele><time>2026-04-25T08:08:55.999Z</time></trkpt><trkpt lat="43.976700518199436" lon="7.977464561391139"><ele>339.8</ele><time>2026-04-25T08:08:56.999Z</time></trkpt><trkpt lat="43.976778598117136" lon="7.977380568677407"><ele>347.20000000000005</ele><time>2026-04-25T08:08:57.999Z</time></trkpt><trkpt lat="43.97684905337868" lon="7.977302039221342"><ele>354.6</ele><time>2026-04-25T08:08:59.999Z</time></trkpt><trkpt lat="43.97692030057485" lon="7.977167829354914"><ele>362.0</ele><time>2026-04-25T08:09:01.999Z</time></trkpt><trkpt lat="43.97697900215671" lon="7.977055219488688"><ele>362.0</ele><time>2026-04-25T08:09:02.999Z</time></trkpt><trkpt lat="43.97703129360751" lon="7.976938074925044"><ele>362.0</ele><time>2026-04-25T08:09:03.999Z</time></trkpt><trkpt lat="43.97709465945984" lon="7.976842073809172"><ele>362.0</ele><time>2026-04-25T08:09:04.999Z</time></trkpt><trkpt lat="43.97717336125028" lon="7.976734903379921"><ele>362.0</ele><time>2026-04-25T08:09:05.999Z</time></trkpt><trkpt lat="43.977234992759136" lon="7.976629760678842"><ele>362.0</ele><time>2026-04-25T08:09:06.999Z</time></trkpt><trkpt lat="43.9772549152797" lon="7.976520340762724"><ele>359.6</ele><time>2026-04-25T08:09:07.999Z</time></trkpt><trkpt lat="43.97726922120435" lon="7.976413295929244"><ele>357.20000000000005</ele><time>2026-04-25T08:09:08.999Z</time></trkpt><trkpt lat="43.977282257924514" lon="7.976300943098"><ele>354.8</ele><time>2026-04-25T08:09:09.999Z</time></trkpt><trkpt lat="43.977300733498076" lon="7.976180829255111"><ele>352.4</ele><time>2026-04-25T08:09:11.999Z</time></trkpt><trkpt lat="43.977321457866786" lon="7.976004400786247"><ele>350.0</ele><time>2026-04-25T08:09:25.999Z</time></trkpt><trkpt lat="43.977354308775375" lon="7.975845997741616"><ele>352.75</ele><time>2026-04-25T08:09:26.999Z</time></trkpt><trkpt lat="43.977428806705184" lon="7.975668509203187"><ele>355.5</ele><time>2026-04-25T08:09:27.999Z</time></trkpt><trkpt lat="43.97749375799839" lon="7.975566753533975"><ele>358.25</ele><time>2026-04-25T08:09:28.999Z</time></trkpt><trkpt lat="43.977567094254624" lon="7.975476875332749"><ele>361.0</ele><time>2026-04-25T08:09:29.999Z</time></trkpt><trkpt lat="43.9776841535045" lon="7.975384941810692"><ele>361.0</ele><time>2026-04-25T08:09:31Z</time></trkpt><trkpt lat="43.97778302116707" lon="7.975314926099785"><ele>361.0</ele><time>2026-04-25T08:09:32Z</time></trkpt><trkpt lat="43.97785948747093" lon="7.9752451035928145"><ele>361.0</ele><time>2026-04-25T08:09:33Z</time></trkpt><trkpt lat="43.97792715928947" lon="7.975161991928565"><ele>361.0</ele><time>2026-04-25T08:09:34Z</time></trkpt><trkpt lat="43.97800793499589" lon="7.975068352232778"><ele>361.0</ele><time>2026-04-25T08:09:35Z</time></trkpt><trkpt lat="43.978105596878336" lon="7.97499486023812"><ele>354.75</ele><time>2026-04-25T08:09:36Z</time></trkpt><trkpt lat="43.97822324547838" lon="7.974920488504887"><ele>348.5</ele><time>2026-04-25T08:09:37Z</time></trkpt><trkpt lat="43.97833430573342" lon="7.974844520634175"><ele>342.25</ele><time>2026-04-25T08:09:38Z</time></trkpt><trkpt lat="43.97843101512739" lon="7.9747799350920445"><ele>336.0</ele><time>2026-04-25T08:09:39Z</time></trkpt><trkpt lat="43.97851233845016" lon="7.974721561591285"><ele>335.8333333333333</ele><time>2026-04-25T08:09:40Z</time></trkpt><trkpt lat="43.978573872443384" lon="7.974670813586868"><ele>335.6666666666667</ele><time>2026-04-25T08:09:41Z</time></trkpt><trkpt lat="43.978641564985885" lon="7.974611563231248"><ele>335.5</ele><time>2026-04-25T08:09:43Z</time></trkpt><trkpt lat="43.97857236403076" lon="7.974642076411334"><ele>335.33333333333337</ele><time>2026-04-25T08:09:48Z</time></trkpt><trkpt lat="43.97853587664521" lon="7.974725851175563"><ele>335.1666666666667</ele><time>2026-04-25T08:09:49Z</time></trkpt><trkpt lat="43.97845921000739" lon="7.974768495146214"><ele>335.0</ele><time>2026-04-25T08:09:50Z</time></trkpt><trkpt lat="43.97836493393242" lon="7.974803812507729"><ele>335.2</ele><time>2026-04-25T08:09:51Z</time></trkpt><trkpt lat="43.97827246063458" lon="7.9748678425184085"><ele>335.4</ele><time>2026-04-25T08:09:52Z</time></trkpt><trkpt lat="43.97818041507157" lon="7.9749362938148245"><ele>335.6</ele><time>2026-04-25T08:09:53Z</time></trkpt><trkpt lat="43.97808603130748" lon="7.975015188454551"><ele>335.8</ele><time>2026-04-25T08:09:54Z</time></trkpt><trkpt lat="43.977994103132815" lon="7.975074589661804"><ele>336.0</ele><time>2026-04-25T08:09:55Z</time></trkpt><trkpt lat="43.97792100534449" lon="7.975134334031315"><ele>341.0</ele><time>2026-04-25T08:09:56Z</time></trkpt><trkpt lat="43.97785926518607" lon="7.975217227483148"><ele>346.0</ele><time>2026-04-25T08:09:57Z</time></trkpt><trkpt lat="43.9777837765203" lon="7.975320296491712"><ele>351.0</ele><time>2026-04-25T08:09:58Z</time></trkpt><trkpt lat="43.977686504828625" lon="7.975405197707433"><ele>356.0</ele><time>2026-04-25T08:09:59Z</time></trkpt><trkpt lat="43.97759236667142" lon="7.975484629550222"><ele>361.0</ele><time>2026-04-25T08:10:00Z</time></trkpt><trkpt lat="43.97752245002045" lon="7.975557105303164"><ele>358.8</ele><time>2026-04-25T08:10:01Z</time></trkpt><trkpt lat="43.97746286410259" lon="7.975644600145824"><ele>356.6</ele><time>2026-04-25T08:10:02Z</time></trkpt><trkpt lat="43.97741021452488" lon="7.975763852216617"><ele>354.4</ele><time>2026-04-25T08:10:03Z</time></trkpt><trkpt lat="43.977359890414064" lon="7.975909563544627"><ele>352.2</ele><time>2026-04-25T08:10:04Z</time></trkpt><trkpt lat="43.97731379502541" lon="7.976079254971963"><ele>350.0</ele><time>2026-04-25T08:10:05Z</time></trkpt><trkpt lat="43.9772949252732" lon="7.976253454377987"><ele>350.0</ele><time>2026-04-25T08:10:06Z</time></trkpt><trkpt lat="43.97729317833463" lon="7.976383031618673"><ele>350.0</ele><time>2026-04-25T08:10:07Z</time></trkpt><trkpt lat="43.97727381452324" lon="7.9764920139647915"><ele>350.0</ele><time>2026-04-25T08:10:08Z</time></trkpt><trkpt lat="43.977244420829024" lon="7.9766168983909616"><ele>350.0</ele><time>2026-04-25T08:10:09Z</time></trkpt><trkpt lat="43.97720824512877" lon="7.976724881053118"><ele>350.0</ele><time>2026-04-25T08:10:10Z</time></trkpt><trkpt lat="43.97715892741144" lon="7.976815662595404"><ele>350.0</ele><time>2026-04-25T08:10:11Z</time></trkpt><trkpt lat="43.97709610326012" lon="7.976905976187006"><ele>352.4</ele><time>2026-04-25T08:10:12Z</time></trkpt><trkpt lat="43.97702185045849" lon="7.97701630928799"><ele>354.8</ele><time>2026-04-25T08:10:13Z</time></trkpt><trkpt lat="43.97696555695909" lon="7.977118720434418"><ele>357.20000000000005</ele><time>2026-04-25T08:10:14Z</time></trkpt><trkpt lat="43.97691037283068" lon="7.977217980779827"><ele>359.6</ele><time>2026-04-25T08:10:15Z</time></trkpt><trkpt lat="43.97686069296529" lon="7.97732591232887"><ele>362.0</ele><time>2026-04-25T08:10:16Z</time></trkpt><trkpt lat="43.97681437294493" lon="7.97745563421407"><ele>364.5</ele><time>2026-04-25T08:10:17Z</time></trkpt><trkpt lat="43.97674883220635" lon="7.977602952896842"><ele>367.0</ele><time>2026-04-25T08:10:18Z</time></trkpt><trkpt lat="43.97667460424853" lon="7.97773952301055"><ele>369.5</ele><time>2026-04-25T08:10:19Z</time></trkpt><trkpt lat="43.97661102943629" lon="7.977849420707581"><ele>372.0</ele><time>2026-04-25T08:10:20Z</time></trkpt><trkpt lat="43.97654107181815" lon="7.977954494431561"><ele>364.0</ele><time>2026-04-25T08:10:21Z</time></trkpt><trkpt lat="43.97646275383348" lon="7.978066225135379"><ele>356.0</ele><time>2026-04-25T08:10:22Z</time></trkpt><trkpt lat="43.97639248801474" lon="7.97817735888779"><ele>348.0</ele><time>2026-04-25T08:10:23Z</time></trkpt><trkpt lat="43.97635394087602" lon="7.978311298669487"><ele>340.0</ele><time>2026-04-25T08:10:24Z</time></trkpt><trkpt lat="43.976311329505954" lon="7.978483014988267"><ele>339.8333333333333</ele><time>2026-04-25T08:10:25Z</time></trkpt><trkpt lat="43.976279614198695" lon="7.978604628779231"><ele>339.66666666666663</ele><time>2026-04-25T08:10:26Z</time></trkpt><trkpt lat="43.97624483910207" lon="7.978716871118398"><ele>339.5</ele><time>2026-04-25T08:10:27Z</time></trkpt><trkpt lat="43.976238026229325" lon="7.978816320546134"><ele>339.3333333333333</ele><time>2026-04-25T08:10:28Z</time></trkpt><trkpt lat="43.97623702868181" lon="7.978930936819714"><ele>339.1666666666667</ele><time>2026-04-25T08:10:29Z</time></trkpt><trkpt lat="43.976244681386525" lon="7.979050673325147"><ele>339.0</ele><time>2026-04-25T08:10:30Z</time></trkpt><trkpt lat="43.97629404217741" lon="7.979195779164481"><ele>334.2</ele><time>2026-04-25T08:10:31Z</time></trkpt><trkpt lat="43.97636613642166" lon="7.979324359689298"><ele>329.4</ele><time>2026-04-25T08:10:32Z</time></trkpt><trkpt lat="43.97643828779529" lon="7.979430435771688"><ele>324.6</ele><time>2026-04-25T08:10:33Z</time></trkpt><trkpt lat="43.97650378620168" lon="7.979514164575377"><ele>319.8</ele><time>2026-04-25T08:10:34Z</time></trkpt><trkpt lat="43.976573773534675" lon="7.979572321087415"><ele>315.0</ele><time>2026-04-25T08:10:35Z</time></trkpt><trkpt lat="43.97667820047283" lon="7.979654401975621"><ele>316.4</ele><time>2026-04-25T08:10:35.999Z</time></trkpt><trkpt lat="43.976770505319045" lon="7.979763472827955"><ele>317.8</ele><time>2026-04-25T08:10:36.999Z</time></trkpt><trkpt lat="43.9768503905829" lon="7.9798594469062145"><ele>319.20000000000005</ele><time>2026-04-25T08:10:37.999Z</time></trkpt><trkpt lat="43.97692996456768" lon="7.97995527539385"><ele>320.6</ele><time>2026-04-25T08:10:38.999Z</time></trkpt><trkpt lat="43.977014291471555" lon="7.980045350273973"><ele>322.0</ele><time>2026-04-25T08:10:39.999Z</time></trkpt><trkpt lat="43.97709476102031" lon="7.9801401606137"><ele>322.0</ele><time>2026-04-25T08:10:40.999Z</time></trkpt><trkpt lat="43.97717582983114" lon="7.980232774122522"><ele>322.0</ele><time>2026-04-25T08:10:41.999Z</time></trkpt><trkpt lat="43.97725057664865" lon="7.980333009704448"><ele>322.0</ele><time>2026-04-25T08:10:42.999Z</time></trkpt><trkpt lat="43.97732772821252" lon="7.980451727941066"><ele>322.0</ele><time>2026-04-25T08:10:43.999Z</time></trkpt><trkpt lat="43.97738858409216" lon="7.980587973091071"><ele>322.0</ele><time>2026-04-25T08:10:44.999Z</time></trkpt><trkpt lat="43.977458084946136" lon="7.9807261154646785"><ele>327.0</ele><time>2026-04-25T08:10:45.999Z</time></trkpt><trkpt lat="43.97753095622853" lon="7.9808759840409245"><ele>332.0</ele><time>2026-04-25T08:10:46.999Z</time></trkpt><trkpt lat="43.977605735452215" lon="7.981024284937256"><ele>337.0</ele><time>2026-04-25T08:10:47.999Z</time></trkpt><trkpt lat="43.977690472797484" lon="7.981161766863069"><ele>342.0</ele><time>2026-04-25T08:10:48.999Z</time></trkpt><trkpt lat="43.97777144252058" lon="7.98129743822561"><ele>342.0</ele><time>2026-04-25T08:10:49.999Z</time></trkpt><trkpt lat="43.977848478355" lon="7.981440148851775"><ele>342.0</ele><time>2026-04-25T08:10:50.999Z</time></trkpt><trkpt lat="43.97792133451071" lon="7.981582854008934"><ele>342.0</ele><time>2026-04-25T08:10:51.999Z</time></trkpt><trkpt lat="43.977983927335586" lon="7.981690363948755"><ele>342.0</ele><time>2026-04-25T08:10:52.999Z</time></trkpt><trkpt lat="43.97802793814229" lon="7.981777893741644"><ele>342.0</ele><time>2026-04-25T08:10:53.999Z</time></trkpt><trkpt lat="43.978074590873945" lon="7.981895277472048"><ele>343.20000000000005</ele><time>2026-04-25T08:10:54.999Z</time></trkpt><trkpt lat="43.97811201376109" lon="7.982047738593477"><ele>344.4</ele><time>2026-04-25T08:10:55.999Z</time></trkpt><trkpt lat="43.97813884431991" lon="7.982172424308615"><ele>345.6</ele><time>2026-04-25T08:10:56.999Z</time></trkpt><trkpt lat="43.97818482024427" lon="7.982244342679687"><ele>346.79999999999995</ele><time>2026-04-25T08:10:57.999Z</time></trkpt><trkpt lat="43.97827255154271" lon="7.982309918691909"><ele>348.0</ele><time>2026-04-25T08:10:58.999Z</time></trkpt><trkpt lat="43.97838865469269" lon="7.982385800476455"><ele>348.0</ele><time>2026-04-25T08:10:59.999Z</time></trkpt><trkpt lat="43.97847653927143" lon="7.982484322038125"><ele>348.0</ele><time>2026-04-25T08:11:00.999Z</time></trkpt><trkpt lat="43.978536019512404" lon="7.982577106923837"><ele>348.0</ele><time>2026-04-25T08:11:01.999Z</time></trkpt><trkpt lat="43.97858804811425" lon="7.982686560571227"><ele>348.0</ele><time>2026-04-25T08:11:02.999Z</time></trkpt><trkpt lat="43.978635632072645" lon="7.982768598361911"><ele>348.0</ele><time>2026-04-25T08:11:03.999Z</time></trkpt><trkpt lat="43.97870271947626" lon="7.98283048650065"><ele>343.0</ele><time>2026-04-25T08:11:04.999Z</time></trkpt><trkpt lat="43.97877534416136" lon="7.982878950416015"><ele>338.0</ele><time>2026-04-25T08:11:05.999Z</time></trkpt><trkpt lat="43.9788454320098" lon="7.982885455544553"><ele>333.0</ele><time>2026-04-25T08:11:08.999Z</time></trkpt><trkpt lat="43.978816075517784" lon="7.982797452157017"><ele>328.0</ele><time>2026-04-25T08:11:10.999Z</time></trkpt><trkpt lat="43.97870574355616" lon="7.982707391982194"><ele>323.0</ele><time>2026-04-25T08:11:12.999Z</time></trkpt><trkpt lat="43.978650320515854" lon="7.982575753433185"><ele>328.0</ele><time>2026-04-25T08:11:14.999Z</time></trkpt><trkpt lat="43.97866993800673" lon="7.982405610683792"><ele>333.0</ele><time>2026-04-25T08:11:16.999Z</time></trkpt><trkpt lat="43.9786470573723" lon="7.982296278535557"><ele>338.0</ele><time>2026-04-25T08:11:17.999Z</time></trkpt><trkpt lat="43.978599892628466" lon="7.982181118393362"><ele>343.0</ele><time>2026-04-25T08:11:18.999Z</time></trkpt><trkpt lat="43.97855238976697" lon="7.982081431581877"><ele>348.0</ele><time>2026-04-25T08:11:19.999Z</time></trkpt><trkpt lat="43.97850167380645" lon="7.981981932527881"><ele>348.0</ele><time>2026-04-25T08:11:20.999Z</time></trkpt><trkpt lat="43.978447919590764" lon="7.981890075204776"><ele>348.0</ele><time>2026-04-25T08:11:21.999Z</time></trkpt><trkpt lat="43.97840321174591" lon="7.981803120117045"><ele>348.0</ele><time>2026-04-25T08:11:22.999Z</time></trkpt><trkpt lat="43.978384967805766" lon="7.981713423750587"><ele>348.0</ele><time>2026-04-25T08:11:24.999Z</time></trkpt><trkpt lat="43.978456554923916" lon="7.98171168251042"><ele>348.0</ele><time>2026-04-25T08:11:26.999Z</time></trkpt><trkpt lat="43.978513617085895" lon="7.981770025043866"><ele>348.0</ele><time>2026-04-25T08:11:27.999Z</time></trkpt><trkpt lat="43.97858341981442" lon="7.981826603184678"><ele>348.0</ele><time>2026-04-25T08:11:28.999Z</time></trkpt><trkpt lat="43.97867746249731" lon="7.981873739919211"><ele>348.0</ele><time>2026-04-25T08:11:29.999Z</time></trkpt><trkpt lat="43.97879890609238" lon="7.98190506272057"><ele>348.0</ele><time>2026-04-25T08:11:30.999Z</time></trkpt><trkpt lat="43.978887756049126" lon="7.981962528123145"><ele>348.0</ele><time>2026-04-25T08:11:31.999Z</time></trkpt><trkpt lat="43.97897193535253" lon="7.9820193920319005"><ele>348.0</ele><time>2026-04-25T08:11:32.999Z</time></trkpt><trkpt lat="43.979060104631074" lon="7.98207637995015"><ele>348.0</ele><time>2026-04-25T08:11:33.999Z</time></trkpt><trkpt lat="43.979160902896815" lon="7.982127357663291"><ele>348.0</ele><time>2026-04-25T08:11:34.999Z</time></trkpt><trkpt lat="43.9792469832509" lon="7.982164067790532"><ele>348.0</ele><time>2026-04-25T08:11:35.999Z</time></trkpt><trkpt lat="43.97933321037848" lon="7.982185254385159"><ele>348.0</ele><time>2026-04-25T08:11:37Z</time></trkpt><trkpt lat="43.97942641894247" lon="7.982185153880642"><ele>348.0</ele><time>2026-04-25T08:11:38Z</time></trkpt><trkpt lat="43.97953226278723" lon="7.982153738550308"><ele>350.4</ele><time>2026-04-25T08:11:39Z</time></trkpt><trkpt lat="43.97963920834555" lon="7.982140396863474"><ele>352.79999999999995</ele><time>2026-04-25T08:11:40Z</time></trkpt><trkpt lat="43.979744987294836" lon="7.98211839994155"><ele>355.2</ele><time>2026-04-25T08:11:41Z</time></trkpt><trkpt lat="43.97981942944526" lon="7.9820874424782104"><ele>357.6</ele><time>2026-04-25T08:11:42Z</time></trkpt><trkpt lat="43.979889305185424" lon="7.982083261342162"><ele>360.0</ele><time>2026-04-25T08:11:43Z</time></trkpt><trkpt lat="43.98000487910946" lon="7.982073132471459"><ele>364.1666666666667</ele><time>2026-04-25T08:11:45Z</time></trkpt><trkpt lat="43.98009477710873" lon="7.982154349555002"><ele>368.33333333333337</ele><time>2026-04-25T08:11:47Z</time></trkpt><trkpt lat="43.9801418967949" lon="7.982245971696946"><ele>372.5</ele><time>2026-04-25T08:11:48Z</time></trkpt><trkpt lat="43.98019376457716" lon="7.982344853436373"><ele>376.6666666666667</ele><time>2026-04-25T08:11:49Z</time></trkpt><trkpt lat="43.98024197311817" lon="7.982430332749572"><ele>380.83333333333337</ele><time>2026-04-25T08:11:50Z</time></trkpt><trkpt lat="43.98029068624145" lon="7.9825067160197545"><ele>385.0</ele><time>2026-04-25T08:11:51Z</time></trkpt><trkpt lat="43.98034425220724" lon="7.9825822400999895"><ele>385.0</ele><time>2026-04-25T08:11:52Z</time></trkpt><trkpt lat="43.980395524353305" lon="7.982681713034588"><ele>385.0</ele><time>2026-04-25T08:11:53Z</time></trkpt><trkpt lat="43.98043128892826" lon="7.982792687237137"><ele>385.0</ele><time>2026-04-25T08:11:54Z</time></trkpt><trkpt lat="43.98044996789019" lon="7.982905414779507"><ele>385.0</ele><time>2026-04-25T08:11:55Z</time></trkpt><trkpt lat="43.98040463800735" lon="7.98307787500134"><ele>385.0</ele><time>2026-04-25T08:11:57Z</time></trkpt><trkpt lat="43.9803639417841" lon="7.983178757391479"><ele>385.00000000000006</ele><time>2026-04-25T08:11:58Z</time></trkpt><trkpt lat="43.980405288195385" lon="7.983282656275642"><ele>385.0</ele><time>2026-04-25T08:12:01Z</time></trkpt><trkpt lat="43.98044276075924" lon="7.9833562138020655"><ele>385.0</ele><time>2026-04-25T08:12:02Z</time></trkpt><trkpt lat="43.980462241379755" lon="7.983462010286381"><ele>385.0</ele><time>2026-04-25T08:12:03Z</time></trkpt><trkpt lat="43.98046549598054" lon="7.983583737256372"><ele>385.00000000000006</ele><time>2026-04-25T08:12:04Z</time></trkpt><trkpt lat="43.98049902657885" lon="7.983673781963894"><ele>385.0</ele><time>2026-04-25T08:12:06Z</time></trkpt><trkpt lat="43.98058445426463" lon="7.983703238765143"><ele>383.6666666666667</ele><time>2026-04-25T08:12:09Z</time></trkpt><trkpt lat="43.98073112668452" lon="7.9836994564877894"><ele>382.33333333333337</ele><time>2026-04-25T08:12:19Z</time></trkpt><trkpt lat="43.98076200159579" lon="7.983776633433921"><ele>381.0</ele><time>2026-04-25T08:12:22Z</time></trkpt><trkpt lat="43.98108037543883" lon="7.984612757364632"><ele>389.75</ele><time>2026-04-25T08:12:26Z</time></trkpt><trkpt lat="43.98113110322176" lon="7.984761596353452"><ele>398.5</ele><time>2026-04-25T08:12:27Z</time></trkpt><trkpt lat="43.981104060166246" lon="7.984893668893161"><ele>407.25</ele><time>2026-04-25T08:12:28Z</time></trkpt><trkpt lat="43.98110545109577" lon="7.9850413959959665"><ele>416.0</ele><time>2026-04-25T08:12:29Z</time></trkpt><trkpt lat="43.981088681727144" lon="7.985230321617135"><ele>418.3333333333333</ele><time>2026-04-25T08:12:30Z</time></trkpt><trkpt lat="43.98107902397683" lon="7.985463620199302"><ele>420.66666666666663</ele><time>2026-04-25T08:12:31Z</time></trkpt><trkpt lat="43.98107319494527" lon="7.985693526464259"><ele>423.0</ele><time>2026-04-25T08:12:32Z</time></trkpt><trkpt lat="43.98106885354401" lon="7.985885481022296"><ele>424.4</ele><time>2026-04-25T08:12:33Z</time></trkpt><trkpt lat="43.981063318005965" lon="7.986019464131051"><ele>425.79999999999995</ele><time>2026-04-25T08:12:34Z</time></trkpt><trkpt lat="43.98104842530772" lon="7.98612093070357"><ele>427.2</ele><time>2026-04-25T08:12:35Z</time></trkpt><trkpt lat="43.98097754756136" lon="7.986263502731366"><ele>428.6</ele><time>2026-04-25T08:12:36Z</time></trkpt><trkpt lat="43.98092619661387" lon="7.9864099767089245"><ele>430.0</ele><time>2026-04-25T08:12:37Z</time></trkpt><trkpt lat="43.980887347382826" lon="7.986570067186289"><ele>430.0</ele><time>2026-04-25T08:12:38Z</time></trkpt><trkpt lat="43.980851789776644" lon="7.986717298743556"><ele>430.0</ele><time>2026-04-25T08:12:39Z</time></trkpt><trkpt lat="43.9808398561131" lon="7.986869692005104"><ele>430.0</ele><time>2026-04-25T08:12:41Z</time></trkpt><trkpt lat="43.980901483199865" lon="7.986942144120652"><ele>430.0</ele><time>2026-04-25T08:12:44Z</time></trkpt><trkpt lat="43.98097160601674" lon="7.986771544472763"><ele>430.0</ele><time>2026-04-25T08:12:45Z</time></trkpt><trkpt lat="43.980981847666165" lon="7.986653194859099"><ele>430.0</ele><time>2026-04-25T08:12:46Z</time></trkpt><trkpt lat="43.98100313816612" lon="7.986570446321089"><ele>430.0</ele><time>2026-04-25T08:12:47Z</time></trkpt><trkpt lat="43.98108139372995" lon="7.986432040063774"><ele>430.0</ele><time>2026-04-25T08:12:48Z</time></trkpt><trkpt lat="43.98119904082994" lon="7.986225209141973"><ele>430.0</ele><time>2026-04-25T08:12:48.999Z</time></trkpt><trkpt lat="43.98131598262834" lon="7.986045172499293"><ele>430.0</ele><time>2026-04-25T08:12:49.999Z</time></trkpt><trkpt lat="43.98139329155234" lon="7.985857627228828"><ele>430.0</ele><time>2026-04-25T08:12:50.999Z</time></trkpt><trkpt lat="43.981447129002184" lon="7.9856887858767465"><ele>430.0</ele><time>2026-04-25T08:12:51.999Z</time></trkpt><trkpt lat="43.9814925268302" lon="7.985490967550626"><ele>430.0</ele><time>2026-04-25T08:12:52.999Z</time></trkpt><trkpt lat="43.98154764921843" lon="7.985285440408334"><ele>427.6666666666667</ele><time>2026-04-25T08:12:53.999Z</time></trkpt><trkpt lat="43.98159097057713" lon="7.985068892538188"><ele>425.33333333333337</ele><time>2026-04-25T08:12:54.999Z</time></trkpt><trkpt lat="43.98162307318466" lon="7.984849784928797"><ele>423.0</ele><time>2026-04-25T08:12:55.999Z</time></trkpt><trkpt lat="43.98163935384617" lon="7.984634609701032"><ele>421.25</ele><time>2026-04-25T08:12:56.999Z</time></trkpt><trkpt lat="43.9816612417279" lon="7.984470048001941"><ele>419.5</ele><time>2026-04-25T08:12:57.999Z</time></trkpt><trkpt lat="43.98170347075245" lon="7.98432910888026"><ele>417.75</ele><time>2026-04-25T08:12:58.999Z</time></trkpt><trkpt lat="43.98178240789208" lon="7.984222208465338"><ele>416.0</ele><time>2026-04-25T08:12:59.999Z</time></trkpt><trkpt lat="43.98186745794891" lon="7.984085577934618"><ele>425.5</ele><time>2026-04-25T08:13:00.999Z</time></trkpt><trkpt lat="43.981939342858524" lon="7.983930558989754"><ele>435.0</ele><time>2026-04-25T08:13:01.999Z</time></trkpt><trkpt lat="43.98195756112544" lon="7.983737057536012"><ele>444.5</ele><time>2026-04-25T08:13:02.999Z</time></trkpt><trkpt lat="43.981956119004565" lon="7.983536589731914"><ele>454.0</ele><time>2026-04-25T08:13:03.999Z</time></trkpt><trkpt lat="43.98196309204944" lon="7.983332990852145"><ele>454.0</ele><time>2026-04-25T08:13:04.999Z</time></trkpt><trkpt lat="43.98195726155597" lon="7.98313593736744"><ele>454.0</ele><time>2026-04-25T08:13:05.999Z</time></trkpt><trkpt lat="43.98193137997661" lon="7.982931333848129"><ele>454.0</ele><time>2026-04-25T08:13:06.999Z</time></trkpt><trkpt lat="43.98188446560833" lon="7.982735117643956"><ele>454.0</ele><time>2026-04-25T08:13:07.999Z</time></trkpt><trkpt lat="43.98181559941603" lon="7.9825411115580724"><ele>457.6666666666667</ele><time>2026-04-25T08:13:08.999Z</time></trkpt><trkpt lat="43.98171561826287" lon="7.982369028475826"><ele>461.33333333333337</ele><time>2026-04-25T08:13:09.999Z</time></trkpt><trkpt lat="43.98162816256955" lon="7.98219450768278"><ele>465.0</ele><time>2026-04-25T08:13:10.999Z</time></trkpt><trkpt lat="43.98155783369486" lon="7.9820165625954385"><ele>454.33333333333337</ele><time>2026-04-25T08:13:11.999Z</time></trkpt><trkpt lat="43.981500646578645" lon="7.981824839663452"><ele>443.6666666666667</ele><time>2026-04-25T08:13:12.999Z</time></trkpt><trkpt lat="43.98144461265529" lon="7.9816218757103545"><ele>433.0</ele><time>2026-04-25T08:13:13.999Z</time></trkpt><trkpt lat="43.98139592188812" lon="7.981415899172479"><ele>433.0</ele><time>2026-04-25T08:13:14.999Z</time></trkpt><trkpt lat="43.981363215898575" lon="7.9812184292724915"><ele>433.0</ele><time>2026-04-25T08:13:15.999Z</time></trkpt><trkpt lat="43.98132178709042" lon="7.981022064436615"><ele>433.0</ele><time>2026-04-25T08:13:16.999Z</time></trkpt><trkpt lat="43.98125069127223" lon="7.9808421370224485"><ele>433.0</ele><time>2026-04-25T08:13:17.999Z</time></trkpt><trkpt lat="43.98117504832279" lon="7.980668425955468"><ele>435.4</ele><time>2026-04-25T08:13:18.999Z</time></trkpt><trkpt lat="43.98110881296466" lon="7.980505750111539"><ele>437.79999999999995</ele><time>2026-04-25T08:13:19.999Z</time></trkpt><trkpt lat="43.98104561652608" lon="7.9803540323752875"><ele>440.2</ele><time>2026-04-25T08:13:20.999Z</time></trkpt><trkpt lat="43.98098386289759" lon="7.980241190535808"><ele>442.6</ele><time>2026-04-25T08:13:21.999Z</time></trkpt><trkpt lat="43.980927002142465" lon="7.980179316470144"><ele>445.0</ele><time>2026-04-25T08:13:22.999Z</time></trkpt><trkpt lat="43.98086072317096" lon="7.980188182027655"><ele>443.50000000000006</ele><time>2026-04-25T08:13:23.999Z</time></trkpt><trkpt lat="43.98076014464494" lon="7.980170943700608"><ele>442.0</ele><time>2026-04-25T08:13:25.999Z</time></trkpt><trkpt lat="43.98069562993373" lon="7.980127225479912"><ele>440.5</ele><time>2026-04-25T08:13:26.999Z</time></trkpt><trkpt lat="43.980623534586286" lon="7.980095434587017"><ele>439.0</ele><time>2026-04-25T08:13:27.999Z</time></trkpt><trkpt lat="43.98055404353794" lon="7.980053673641121"><ele>437.50000000000006</ele><time>2026-04-25T08:13:28.999Z</time></trkpt><trkpt lat="43.98048486523912" lon="7.980008644892585"><ele>436.0</ele><time>2026-04-25T08:13:29.999Z</time></trkpt><trkpt lat="43.980421929319384" lon="7.979967934721393"><ele>436.0</ele><time>2026-04-25T08:13:30.999Z</time></trkpt><trkpt lat="43.980307142826746" lon="7.979895411273577"><ele>436.0</ele><time>2026-04-25T08:13:32.999Z</time></trkpt><trkpt lat="43.980222452050846" lon="7.9798423590022605"><ele>436.0</ele><time>2026-04-25T08:13:34.999Z</time></trkpt><trkpt lat="43.980258781759694" lon="7.979753587907045"><ele>436.0</ele><time>2026-04-25T08:13:37.999Z</time></trkpt><trkpt lat="43.980369161253606" lon="7.979815131512247"><ele>436.0</ele><time>2026-04-25T08:13:39.999Z</time></trkpt><trkpt lat="43.98044088965487" lon="7.9798613527073226"><ele>436.0</ele><time>2026-04-25T08:13:40.999Z</time></trkpt><trkpt lat="43.980546782028334" lon="7.979866313773018"><ele>436.0</ele><time>2026-04-25T08:13:43Z</time></trkpt><trkpt lat="43.98061452878664" lon="7.97985133557597"><ele>436.0</ele><time>2026-04-25T08:13:46Z</time></trkpt><trkpt lat="43.98067986681694" lon="7.979851333340559"><ele>436.0</ele><time>2026-04-25T08:13:50Z</time></trkpt><trkpt lat="43.98074485062189" lon="7.979837364016456"><ele>436.0</ele><time>2026-04-25T08:13:55Z</time></trkpt><trkpt lat="43.9809272213012" lon="7.979824299170887"><ele>438.25</ele><time>2026-04-25T08:16:59.999Z</time></trkpt><trkpt lat="43.981061328713956" lon="7.980083460009125"><ele>440.5</ele><time>2026-04-25T08:17:06.999Z</time></trkpt><trkpt lat="43.98110489873634" lon="7.980221495365467"><ele>442.75</ele><time>2026-04-25T08:17:08.999Z</time></trkpt><trkpt lat="43.98117111513755" lon="7.980262730303475"><ele>445.0</ele><time>2026-04-25T08:17:09.999Z</time></trkpt><trkpt lat="43.98123735130259" lon="7.98030125604778"><ele>445.00000000000006</ele><time>2026-04-25T08:17:10.999Z</time></trkpt><trkpt lat="43.98131408451952" lon="7.9803282047111725"><ele>445.0</ele><time>2026-04-25T08:17:11.999Z</time></trkpt><trkpt lat="43.981390994035955" lon="7.980353126036212"><ele>445.0</ele><time>2026-04-25T08:17:12.999Z</time></trkpt><trkpt lat="43.98146833103661" lon="7.980392054963121"><ele>445.0</ele><time>2026-04-25T08:17:13.999Z</time></trkpt><trkpt lat="43.98154914943516" lon="7.980416116656695"><ele>445.00000000000006</ele><time>2026-04-25T08:17:14.999Z</time></trkpt><trkpt lat="43.98163030304178" lon="7.980403874084683"><ele>445.0</ele><time>2026-04-25T08:17:15.999Z</time></trkpt><trkpt lat="43.98171145352769" lon="7.980386361234296"><ele>450.6</ele><time>2026-04-25T08:17:16.999Z</time></trkpt><trkpt lat="43.98179400321145" lon="7.980386107906083"><ele>456.2</ele><time>2026-04-25T08:17:17.999Z</time></trkpt><trkpt lat="43.981877002297736" lon="7.980358578091263"><ele>461.79999999999995</ele><time>2026-04-25T08:17:18.999Z</time></trkpt><trkpt lat="43.9819603710047" lon="7.980328123713756"><ele>467.4</ele><time>2026-04-25T08:17:19.999Z</time></trkpt><trkpt lat="43.98206490563808" lon="7.980298822199204"><ele>473.0</ele><time>2026-04-25T08:17:20.999Z</time></trkpt><trkpt lat="43.982176243121245" lon="7.980276177862251"><ele>473.0</ele><time>2026-04-25T08:17:21.999Z</time></trkpt><trkpt lat="43.98229482525304" lon="7.980276194150374"><ele>473.0</ele><time>2026-04-25T08:17:22.999Z</time></trkpt><trkpt lat="43.98242557005697" lon="7.98030275786339"><ele>473.0</ele><time>2026-04-25T08:17:23.999Z</time></trkpt><trkpt lat="43.98254420909579" lon="7.980291694693604"><ele>473.0</ele><time>2026-04-25T08:17:24.999Z</time></trkpt><trkpt lat="43.982651743712" lon="7.980279079060358"><ele>471.4</ele><time>2026-04-25T08:17:25.999Z</time></trkpt><trkpt lat="43.98273799857902" lon="7.980276278718931"><ele>469.79999999999995</ele><time>2026-04-25T08:17:26.999Z</time></trkpt><trkpt lat="43.982808890864895" lon="7.9802413580557445"><ele>468.2</ele><time>2026-04-25T08:17:27.999Z</time></trkpt><trkpt lat="43.98287757320688" lon="7.980162649146018"><ele>466.6</ele><time>2026-04-25T08:17:28.999Z</time></trkpt><trkpt lat="43.98296286894466" lon="7.980063711184254"><ele>465.0</ele><time>2026-04-25T08:17:29.999Z</time></trkpt><trkpt lat="43.983050202134976" lon="7.979983400856174"><ele>465.0</ele><time>2026-04-25T08:17:30.999Z</time></trkpt><trkpt lat="43.98313644098145" lon="7.979870785545216"><ele>465.0</ele><time>2026-04-25T08:17:31.999Z</time></trkpt><trkpt lat="43.98322782660172" lon="7.979747093195059"><ele>465.0</ele><time>2026-04-25T08:17:32.999Z</time></trkpt><trkpt lat="43.98333368982374" lon="7.979655389981292"><ele>465.0</ele><time>2026-04-25T08:17:33.999Z</time></trkpt><trkpt lat="43.98343912311565" lon="7.9795685434252155"><ele>462.0</ele><time>2026-04-25T08:17:34.999Z</time></trkpt><trkpt lat="43.98352713451333" lon="7.9794624099888525"><ele>459.0</ele><time>2026-04-25T08:17:35.999Z</time></trkpt><trkpt lat="43.9836011823043" lon="7.979359996509952"><ele>456.0</ele><time>2026-04-25T08:17:36.999Z</time></trkpt><trkpt lat="43.98367866784611" lon="7.979271325661568"><ele>453.0</ele><time>2026-04-25T08:17:37.999Z</time></trkpt><trkpt lat="43.983769300779095" lon="7.979190273275522"><ele>450.0</ele><time>2026-04-25T08:17:38.999Z</time></trkpt><trkpt lat="43.98386581469031" lon="7.979117474661361"><ele>450.0</ele><time>2026-04-25T08:17:39.999Z</time></trkpt><trkpt lat="43.98396110977854" lon="7.9790586591933055"><ele>450.0</ele><time>2026-04-25T08:17:40.999Z</time></trkpt><trkpt lat="43.98406778761212" lon="7.97901604365073"><ele>450.0</ele><time>2026-04-25T08:17:41.999Z</time></trkpt><trkpt lat="43.984177316592" lon="7.979018983413704"><ele>450.0</ele><time>2026-04-25T08:17:42.999Z</time></trkpt><trkpt lat="43.98429053802495" lon="7.979051556867563"><ele>450.0</ele><time>2026-04-25T08:17:43.999Z</time></trkpt><trkpt lat="43.98440524740776" lon="7.979074890351349"><ele>450.8</ele><time>2026-04-25T08:17:44.999Z</time></trkpt><trkpt lat="43.9845147931462" lon="7.979074974434964"><ele>451.6</ele><time>2026-04-25T08:17:45.999Z</time></trkpt><trkpt lat="43.984616791676864" lon="7.979062128796725"><ele>452.4</ele><time>2026-04-25T08:17:46.999Z</time></trkpt><trkpt lat="43.98471915156069" lon="7.979031451509466"><ele>453.2</ele><time>2026-04-25T08:17:47.999Z</time></trkpt><trkpt lat="43.98481806146377" lon="7.979013792942933"><ele>454.0</ele><time>2026-04-25T08:17:48.999Z</time></trkpt><trkpt lat="43.984920740001954" lon="7.979043067340692"><ele>452.2</ele><time>2026-04-25T08:17:49.999Z</time></trkpt><trkpt lat="43.985032197846074" lon="7.97909170016117"><ele>450.4</ele><time>2026-04-25T08:17:50.999Z</time></trkpt><trkpt lat="43.98515126507728" lon="7.979116509062929"><ele>448.6</ele><time>2026-04-25T08:17:51.999Z</time></trkpt><trkpt lat="43.98524972627689" lon="7.9791350389990585"><ele>446.8</ele><time>2026-04-25T08:17:52.999Z</time></trkpt><trkpt lat="43.9853334850044" lon="7.979173318865257"><ele>445.0</ele><time>2026-04-25T08:17:53.999Z</time></trkpt><trkpt lat="43.98543063238644" lon="7.97924866530641"><ele>453.5</ele><time>2026-04-25T08:17:55Z</time></trkpt><trkpt lat="43.98554821734837" lon="7.9793127271295425"><ele>462.0</ele><time>2026-04-25T08:17:56Z</time></trkpt><trkpt lat="43.985663080239135" lon="7.979396085992638"><ele>470.5</ele><time>2026-04-25T08:17:57Z</time></trkpt><trkpt lat="43.985768081334356" lon="7.979461460486648"><ele>479.0</ele><time>2026-04-25T08:17:58Z</time></trkpt><trkpt lat="43.98586884910523" lon="7.979491523103234"><ele>479.0</ele><time>2026-04-25T08:17:59Z</time></trkpt><trkpt lat="43.98595900750937" lon="7.979520830210563"><ele>479.0</ele><time>2026-04-25T08:18:00Z</time></trkpt><trkpt lat="43.98606333597893" lon="7.979510396558297"><ele>479.0</ele><time>2026-04-25T08:18:01Z</time></trkpt><trkpt lat="43.986177454153136" lon="7.979473292952656"><ele>479.0</ele><time>2026-04-25T08:18:02Z</time></trkpt><trkpt lat="43.986292955462446" lon="7.979415423879873"><ele>479.0</ele><time>2026-04-25T08:18:03Z</time></trkpt><trkpt lat="43.986410864578374" lon="7.9793574346958085"><ele>479.0</ele><time>2026-04-25T08:18:04Z</time></trkpt><trkpt lat="43.986521391254286" lon="7.979295194653579"><ele>479.0</ele><time>2026-04-25T08:18:05Z</time></trkpt><trkpt lat="43.98663356163544" lon="7.9792405937267645"><ele>479.0</ele><time>2026-04-25T08:18:06Z</time></trkpt><trkpt lat="43.98674779751454" lon="7.979197577264497"><ele>479.0</ele><time>2026-04-25T08:18:07Z</time></trkpt><trkpt lat="43.98686194167573" lon="7.979147520808973"><ele>475.5</ele><time>2026-04-25T08:18:08Z</time></trkpt><trkpt lat="43.98697871011603" lon="7.979069597968392"><ele>472.0</ele><time>2026-04-25T08:18:09Z</time></trkpt><trkpt lat="43.9870919695521" lon="7.979005956699085"><ele>468.5</ele><time>2026-04-25T08:18:10Z</time></trkpt><trkpt lat="43.98720760197944" lon="7.978954968042174"><ele>465.0</ele><time>2026-04-25T08:18:11Z</time></trkpt><trkpt lat="43.98733535058686" lon="7.978930518732473"><ele>465.0</ele><time>2026-04-25T08:18:12Z</time></trkpt><trkpt lat="43.987462063254654" lon="7.978892158734129"><ele>465.0</ele><time>2026-04-25T08:18:13Z</time></trkpt><trkpt lat="43.98759032638168" lon="7.978854050557354"><ele>465.0</ele><time>2026-04-25T08:18:14Z</time></trkpt><trkpt lat="43.98772924647902" lon="7.978806140451231"><ele>465.0</ele><time>2026-04-25T08:18:15Z</time></trkpt><trkpt lat="43.987857422095956" lon="7.978730889339083"><ele>469.5</ele><time>2026-04-25T08:18:16Z</time></trkpt><trkpt lat="43.9879604741226" lon="7.978664269682466"><ele>474.0</ele><time>2026-04-25T08:18:17Z</time></trkpt><trkpt lat="43.98807253507001" lon="7.97862443410033"><ele>478.5</ele><time>2026-04-25T08:18:18Z</time></trkpt><trkpt lat="43.98819579037628" lon="7.9785976020033464"><ele>483.0</ele><time>2026-04-25T08:18:19Z</time></trkpt><trkpt lat="43.98832864567791" lon="7.978560511466219"><ele>485.75</ele><time>2026-04-25T08:18:20Z</time></trkpt><trkpt lat="43.988460360033905" lon="7.978521152884586"><ele>488.5</ele><time>2026-04-25T08:18:21Z</time></trkpt><trkpt lat="43.98859059121392" lon="7.978491958448765"><ele>491.25</ele><time>2026-04-25T08:18:22Z</time></trkpt><trkpt lat="43.98870984335009" lon="7.9784685916123905"><ele>494.0</ele><time>2026-04-25T08:18:23Z</time></trkpt><trkpt lat="43.98882767015113" lon="7.9784701388448545"><ele>494.0</ele><time>2026-04-25T08:18:24Z</time></trkpt><trkpt lat="43.98895220447562" lon="7.978491540999206"><ele>494.0</ele><time>2026-04-25T08:18:25Z</time></trkpt><trkpt lat="43.98908484670534" lon="7.978529921228023"><ele>494.0</ele><time>2026-04-25T08:18:26Z</time></trkpt><trkpt lat="43.98919846699962" lon="7.978591372605315"><ele>494.0</ele><time>2026-04-25T08:18:27Z</time></trkpt><trkpt lat="43.98928867434327" lon="7.978689273008101"><ele>494.0</ele><time>2026-04-25T08:18:28Z</time></trkpt><trkpt lat="43.98938615097363" lon="7.9788021736334525"><ele>494.0</ele><time>2026-04-25T08:18:29Z</time></trkpt><trkpt lat="43.98950750591924" lon="7.97889809024038"><ele>494.0</ele><time>2026-04-25T08:18:30Z</time></trkpt><trkpt lat="43.98964047103943" lon="7.97896258721801"><ele>494.0</ele><time>2026-04-25T08:18:31Z</time></trkpt><trkpt lat="43.989757148640265" lon="7.9790150000526205"><ele>494.0</ele><time>2026-04-25T08:18:32Z</time></trkpt><trkpt lat="43.98986952171695" lon="7.979040967380755"><ele>494.0</ele><time>2026-04-25T08:18:33Z</time></trkpt><trkpt lat="43.99000067545575" lon="7.97904627022549"><ele>494.0</ele><time>2026-04-25T08:18:34Z</time></trkpt><trkpt lat="43.9901320988468" lon="7.97907775045317"><ele>494.0</ele><time>2026-04-25T08:18:35Z</time></trkpt><trkpt lat="43.99025048223402" lon="7.979141806076378"><ele>501.5</ele><time>2026-04-25T08:18:36Z</time></trkpt><trkpt lat="43.99036121668242" lon="7.9792083705700705"><ele>509.0</ele><time>2026-04-25T08:18:37Z</time></trkpt><trkpt lat="43.99048207309492" lon="7.979215971132186"><ele>516.5</ele><time>2026-04-25T08:18:38Z</time></trkpt><trkpt lat="43.9906069757446" lon="7.979254461632677"><ele>524.0</ele><time>2026-04-25T08:18:39Z</time></trkpt><trkpt lat="43.99072894675583" lon="7.979311180658499"><ele>519.5</ele><time>2026-04-25T08:18:40Z</time></trkpt><trkpt lat="43.99084980877987" lon="7.979403136498397"><ele>515.0</ele><time>2026-04-25T08:18:41Z</time></trkpt><trkpt lat="43.990968300346445" lon="7.979504400950444"><ele>510.5</ele><time>2026-04-25T08:18:42Z</time></trkpt><trkpt lat="43.99107178869535" lon="7.979580925719038"><ele>506.0</ele><time>2026-04-25T08:18:43Z</time></trkpt><trkpt lat="43.991190658157045" lon="7.979629105245129"><ele>506.0</ele><time>2026-04-25T08:18:44Z</time></trkpt><trkpt lat="43.99129955619332" lon="7.979640151523783"><ele>506.0</ele><time>2026-04-25T08:18:45Z</time></trkpt><trkpt lat="43.991400809442155" lon="7.979632782926457"><ele>506.0</ele><time>2026-04-25T08:18:46Z</time></trkpt><trkpt lat="43.9915007456153" lon="7.9796434850219295"><ele>506.0</ele><time>2026-04-25T08:18:47Z</time></trkpt><trkpt lat="43.991611497744984" lon="7.979677066474448"><ele>506.0</ele><time>2026-04-25T08:18:48Z</time></trkpt><trkpt lat="43.99172283809588" lon="7.979745395892125"><ele>505.25</ele><time>2026-04-25T08:18:49Z</time></trkpt><trkpt lat="43.99183137224919" lon="7.979842200828207"><ele>504.5</ele><time>2026-04-25T08:18:50Z</time></trkpt><trkpt lat="43.99194339986803" lon="7.979957990064447"><ele>503.75</ele><time>2026-04-25T08:18:51Z</time></trkpt><trkpt lat="43.992020957929675" lon="7.980075054945444"><ele>503.0</ele><time>2026-04-25T08:18:52Z</time></trkpt><trkpt lat="43.99207609602281" lon="7.980214964680184"><ele>503.0</ele><time>2026-04-25T08:18:52.999Z</time></trkpt><trkpt lat="43.99213226552934" lon="7.9803727031703025"><ele>503.0</ele><time>2026-04-25T08:18:53.999Z</time></trkpt><trkpt lat="43.99217136885939" lon="7.980529314002327"><ele>503.0</ele><time>2026-04-25T08:18:54.999Z</time></trkpt><trkpt lat="43.992203452359604" lon="7.9806876977544166"><ele>503.0</ele><time>2026-04-25T08:18:55.999Z</time></trkpt><trkpt lat="43.99223747784189" lon="7.980856027272468"><ele>508.0</ele><time>2026-04-25T08:18:56.999Z</time></trkpt><trkpt lat="43.99228150807427" lon="7.981025030687626"><ele>513.0</ele><time>2026-04-25T08:18:57.999Z</time></trkpt><trkpt lat="43.99230735621009" lon="7.9811902080518715"><ele>518.0</ele><time>2026-04-25T08:18:58.999Z</time></trkpt><trkpt lat="43.992312742014896" lon="7.981361061825617"><ele>523.0</ele><time>2026-04-25T08:18:59.999Z</time></trkpt><trkpt lat="43.9923134053374" lon="7.98154239578536"><ele>526.0</ele><time>2026-04-25T08:19:00.999Z</time></trkpt><trkpt lat="43.992326345225315" lon="7.981713414154768"><ele>529.0</ele><time>2026-04-25T08:19:01.999Z</time></trkpt><trkpt lat="43.99237977896867" lon="7.981852756511826"><ele>532.0</ele><time>2026-04-25T08:19:02.999Z</time></trkpt><trkpt lat="43.99245076897863" lon="7.981986661683607"><ele>535.0</ele><time>2026-04-25T08:19:03.999Z</time></trkpt><trkpt lat="43.992538492025844" lon="7.982118896092547"><ele>535.0</ele><time>2026-04-25T08:19:04.999Z</time></trkpt><trkpt lat="43.99263631413115" lon="7.982240932962071"><ele>535.0</ele><time>2026-04-25T08:19:05.999Z</time></trkpt><trkpt lat="43.99272294460268" lon="7.982314571513936"><ele>535.0</ele><time>2026-04-25T08:19:06.999Z</time></trkpt><trkpt lat="43.992792659498726" lon="7.9823342499653105"><ele>535.0</ele><time>2026-04-25T08:19:07.999Z</time></trkpt><trkpt lat="43.9928715405568" lon="7.9822937560797955"><ele>535.0</ele><time>2026-04-25T08:19:08.999Z</time></trkpt><trkpt lat="43.99294977419603" lon="7.982264536767454"><ele>535.0</ele><time>2026-04-25T08:19:09.999Z</time></trkpt><trkpt lat="43.99304263432243" lon="7.982338908803678"><ele>535.0</ele><time>2026-04-25T08:19:11.999Z</time></trkpt><trkpt lat="43.99304800272863" lon="7.982449884804636"><ele>535.0</ele><time>2026-04-25T08:19:13.999Z</time></trkpt><trkpt lat="43.99296652017453" lon="7.982605249558811"><ele>535.0</ele><time>2026-04-25T08:19:15.999Z</time></trkpt><trkpt lat="43.992898459176516" lon="7.9826733615818295"><ele>535.0</ele><time>2026-04-25T08:19:16.999Z</time></trkpt><trkpt lat="43.992815539787316" lon="7.98269198662379"><ele>536.8</ele><time>2026-04-25T08:19:17.999Z</time></trkpt><trkpt lat="43.99272008875277" lon="7.982660079406061"><ele>538.6</ele><time>2026-04-25T08:19:18.999Z</time></trkpt><trkpt lat="43.99262296078606" lon="7.982620104100274"><ele>540.4</ele><time>2026-04-25T08:19:19.999Z</time></trkpt><trkpt lat="43.99253393593339" lon="7.98260473717394"><ele>542.2</ele><time>2026-04-25T08:19:21.999Z</time></trkpt><trkpt lat="43.992551252015154" lon="7.982760680912634"><ele>544.0</ele><time>2026-04-25T08:19:23.999Z</time></trkpt><trkpt lat="43.992638850986346" lon="7.982861625143998"><ele>544.0</ele><time>2026-04-25T08:19:24.999Z</time></trkpt><trkpt lat="43.99273126348213" lon="7.982975771020516"><ele>544.0</ele><time>2026-04-25T08:19:25.999Z</time></trkpt><trkpt lat="43.992831111928176" lon="7.983086873091996"><ele>544.0</ele><time>2026-04-25T08:19:26.999Z</time></trkpt><trkpt lat="43.99295703240305" lon="7.9831767077240805"><ele>544.0</ele><time>2026-04-25T08:19:27.999Z</time></trkpt><trkpt lat="43.99306255064703" lon="7.98325676238579"><ele>544.0</ele><time>2026-04-25T08:19:28.999Z</time></trkpt><trkpt lat="43.99313508256594" lon="7.983323567655371"><ele>544.0</ele><time>2026-04-25T08:19:29.999Z</time></trkpt><trkpt lat="43.99316560360989" lon="7.9834105767774775"><ele>544.0</ele><time>2026-04-25T08:19:30.999Z</time></trkpt><trkpt lat="43.99316113105808" lon="7.983507345364787"><ele>544.0</ele><time>2026-04-25T08:19:31.999Z</time></trkpt><trkpt lat="43.99310926422881" lon="7.983618453178362"><ele>544.0</ele><time>2026-04-25T08:19:32.999Z</time></trkpt><trkpt lat="43.99301108491689" lon="7.983731231680819"><ele>544.0</ele><time>2026-04-25T08:19:33.999Z</time></trkpt><trkpt lat="43.992934265699496" lon="7.983834411462847"><ele>547.0</ele><time>2026-04-25T08:19:34.999Z</time></trkpt><trkpt lat="43.99290950255407" lon="7.98394215977779"><ele>550.0</ele><time>2026-04-25T08:19:35.999Z</time></trkpt><trkpt lat="43.99293029238199" lon="7.984057522637269"><ele>553.0</ele><time>2026-04-25T08:19:36.999Z</time></trkpt><trkpt lat="43.99298679046569" lon="7.984204197398635"><ele>556.0</ele><time>2026-04-25T08:19:37.999Z</time></trkpt><trkpt lat="43.99307291234479" lon="7.984359064317913"><ele>559.0</ele><time>2026-04-25T08:19:38.999Z</time></trkpt><trkpt lat="43.993110723873684" lon="7.984466216746981"><ele>562.6</ele><time>2026-04-25T08:19:39.999Z</time></trkpt><trkpt lat="43.993122776357" lon="7.984616871067447"><ele>566.2</ele><time>2026-04-25T08:19:41.999Z</time></trkpt><trkpt lat="43.99315913270156" lon="7.984737191945121"><ele>569.8000000000001</ele><time>2026-04-25T08:19:42.999Z</time></trkpt><trkpt lat="43.99321222125923" lon="7.984847594654821"><ele>573.4</ele><time>2026-04-25T08:19:43.999Z</time></trkpt><trkpt lat="43.99327655724196" lon="7.984957768570642"><ele>577.0</ele><time>2026-04-25T08:19:44.999Z</time></trkpt><trkpt lat="43.99333544479217" lon="7.985078444423035"><ele>577.2</ele><time>2026-04-25T08:19:45.999Z</time></trkpt><trkpt lat="43.99340688239843" lon="7.985252279849243"><ele>577.4000000000001</ele><time>2026-04-25T08:19:46.999Z</time></trkpt><trkpt lat="43.99346043055935" lon="7.985395184731078"><ele>577.5999999999999</ele><time>2026-04-25T08:19:47.999Z</time></trkpt><trkpt lat="43.9935043011164" lon="7.985486234257286"><ele>577.8</ele><time>2026-04-25T08:19:48.999Z</time></trkpt><trkpt lat="43.99356671553241" lon="7.985562924843764"><ele>578.0</ele><time>2026-04-25T08:19:49.999Z</time></trkpt><trkpt lat="43.99365279041638" lon="7.985621875734635"><ele>578.0</ele><time>2026-04-25T08:19:50.999Z</time></trkpt><trkpt lat="43.99373453048243" lon="7.985669502421675"><ele>578.0</ele><time>2026-04-25T08:19:51.999Z</time></trkpt><trkpt lat="43.993789218880345" lon="7.985752302598935"><ele>578.0</ele><time>2026-04-25T08:19:52.999Z</time></trkpt><trkpt lat="43.99383579510624" lon="7.985865265559644"><ele>578.0</ele><time>2026-04-25T08:19:53.999Z</time></trkpt><trkpt lat="43.99388945359076" lon="7.986000391549843"><ele>578.0</ele><time>2026-04-25T08:19:54.999Z</time></trkpt><trkpt lat="43.99394057750424" lon="7.986131657973404"><ele>579.5</ele><time>2026-04-25T08:19:55.999Z</time></trkpt><trkpt lat="43.99400640290079" lon="7.986269268523426"><ele>581.0</ele><time>2026-04-25T08:19:56.999Z</time></trkpt><trkpt lat="43.99407621415336" lon="7.986417646744341"><ele>582.5</ele><time>2026-04-25T08:19:57.999Z</time></trkpt><trkpt lat="43.9941521626035" lon="7.986530586896426"><ele>584.0</ele><time>2026-04-25T08:19:58.999Z</time></trkpt><trkpt lat="43.99424826536358" lon="7.986631120108285"><ele>588.25</ele><time>2026-04-25T08:19:59.999Z</time></trkpt><trkpt lat="43.99435290282025" lon="7.986711325426332"><ele>592.5</ele><time>2026-04-25T08:20:01Z</time></trkpt><trkpt lat="43.99444059942682" lon="7.98679230667928"><ele>596.75</ele><time>2026-04-25T08:20:02Z</time></trkpt><trkpt lat="43.99450950230581" lon="7.986935977587017"><ele>601.0</ele><time>2026-04-25T08:20:03Z</time></trkpt><trkpt lat="43.99455709845513" lon="7.987090259586888"><ele>601.0</ele><time>2026-04-25T08:20:04Z</time></trkpt><trkpt lat="43.99460291433793" lon="7.987232459202412"><ele>601.0</ele><time>2026-04-25T08:20:05Z</time></trkpt><trkpt lat="43.994672901014425" lon="7.9873515062423275"><ele>601.0</ele><time>2026-04-25T08:20:06Z</time></trkpt><trkpt lat="43.994743682188336" lon="7.987497920938841"><ele>601.0</ele><time>2026-04-25T08:20:07Z</time></trkpt><trkpt lat="43.99480101923294" lon="7.987667953513471"><ele>603.2</ele><time>2026-04-25T08:20:08Z</time></trkpt><trkpt lat="43.994848794328476" lon="7.98783241554568"><ele>605.4000000000001</ele><time>2026-04-25T08:20:09Z</time></trkpt><trkpt lat="43.9948953588551" lon="7.987979711444937"><ele>607.6</ele><time>2026-04-25T08:20:10Z</time></trkpt><trkpt lat="43.994944441284275" lon="7.988076018559907"><ele>609.8000000000001</ele><time>2026-04-25T08:20:11Z</time></trkpt><trkpt lat="43.994990616815166" lon="7.9881396084017995"><ele>612.0</ele><time>2026-04-25T08:20:12Z</time></trkpt><trkpt lat="43.995051519283415" lon="7.988177177467808"><ele>612.0</ele><time>2026-04-25T08:20:13Z</time></trkpt><trkpt lat="43.99511704360341" lon="7.988209550494199"><ele>612.0</ele><time>2026-04-25T08:20:14Z</time></trkpt><trkpt lat="43.99520460427028" lon="7.98824208614291"><ele>612.0</ele><time>2026-04-25T08:20:15Z</time></trkpt><trkpt lat="43.99530115052907" lon="7.988290405632427"><ele>612.0</ele><time>2026-04-25T08:20:16Z</time></trkpt><trkpt lat="43.995392487513065" lon="7.988291480711996"><ele>612.0</ele><time>2026-04-25T08:20:17Z</time></trkpt><trkpt lat="43.99548405838022" lon="7.988254580226804"><ele>612.0</ele><time>2026-04-25T08:20:18Z</time></trkpt><trkpt lat="43.9955792855042" lon="7.988251401970703"><ele>612.0</ele><time>2026-04-25T08:20:19Z</time></trkpt><trkpt lat="43.995671285042235" lon="7.988316379844046"><ele>612.0</ele><time>2026-04-25T08:20:21Z</time></trkpt><trkpt lat="43.99569580085577" lon="7.988434426729067"><ele>612.0</ele><time>2026-04-25T08:20:22Z</time></trkpt><trkpt lat="43.99569199625637" lon="7.9885895537011935"><ele>612.0</ele><time>2026-04-25T08:20:23Z</time></trkpt><trkpt lat="43.99568936399714" lon="7.9887479126870256"><ele>612.0</ele><time>2026-04-25T08:20:24Z</time></trkpt><trkpt lat="43.99570754652027" lon="7.9888529243819475"><ele>612.1666666666666</ele><time>2026-04-25T08:20:25Z</time></trkpt><trkpt lat="43.99576670577693" lon="7.988929182494378"><ele>612.3333333333334</ele><time>2026-04-25T08:20:26Z</time></trkpt><trkpt lat="43.995847400052135" lon="7.988994169569598"><ele>612.5</ele><time>2026-04-25T08:20:27Z</time></trkpt><trkpt lat="43.995931219035334" lon="7.98908004086452"><ele>612.6666666666667</ele><time>2026-04-25T08:20:28Z</time></trkpt><trkpt lat="43.995981954295914" lon="7.989150685904725"><ele>612.8333333333334</ele><time>2026-04-25T08:20:29Z</time></trkpt><trkpt lat="43.99601479554837" lon="7.989279036672487"><ele>613.0</ele><time>2026-04-25T08:20:30Z</time></trkpt><trkpt lat="43.99604665421224" lon="7.989423204257577"><ele>614.0</ele><time>2026-04-25T08:20:31Z</time></trkpt><trkpt lat="43.99604020103065" lon="7.989557960129105"><ele>615.0</ele><time>2026-04-25T08:20:32Z</time></trkpt><trkpt lat="43.99599134342742" lon="7.989680364290907"><ele>616.0</ele><time>2026-04-25T08:20:33Z</time></trkpt><trkpt lat="43.99594272194638" lon="7.989809336701754"><ele>617.0</ele><time>2026-04-25T08:20:34Z</time></trkpt><trkpt lat="43.99588542262115" lon="7.989928643935156"><ele>618.0</ele><time>2026-04-25T08:20:35Z</time></trkpt><trkpt lat="43.99586536800295" lon="7.990044658346813"><ele>618.0</ele><time>2026-04-25T08:20:36Z</time></trkpt><trkpt lat="43.99584192855759" lon="7.99018897283171"><ele>618.0</ele><time>2026-04-25T08:20:37Z</time></trkpt><trkpt lat="43.99581452970835" lon="7.990306902033674"><ele>618.0</ele><time>2026-04-25T08:20:38Z</time></trkpt><trkpt lat="43.99579404117198" lon="7.990432849340898"><ele>618.0</ele><time>2026-04-25T08:20:39Z</time></trkpt><trkpt lat="43.99576999690824" lon="7.990591339097941"><ele>618.0</ele><time>2026-04-25T08:20:40Z</time></trkpt><trkpt lat="43.99574960675385" lon="7.9907399845480755"><ele>619.5</ele><time>2026-04-25T08:20:41Z</time></trkpt><trkpt lat="43.9957171216076" lon="7.990868064308412"><ele>621.0</ele><time>2026-04-25T08:20:42Z</time></trkpt><trkpt lat="43.995695229055485" lon="7.990987643788222"><ele>622.5</ele><time>2026-04-25T08:20:43Z</time></trkpt><trkpt lat="43.99568720282007" lon="7.99108720145343"><ele>624.0</ele><time>2026-04-25T08:20:44Z</time></trkpt><trkpt lat="43.995643175311194" lon="7.991188441188161"><ele>625.5</ele><time>2026-04-25T08:20:46Z</time></trkpt><trkpt lat="43.995623592540156" lon="7.991274252594305"><ele>627.0</ele><time>2026-04-25T08:20:48Z</time></trkpt><trkpt lat="43.99560714019379" lon="7.991363356257804"><ele>627.0</ele><time>2026-04-25T08:20:53Z</time></trkpt><trkpt lat="43.99563502449818" lon="7.9915014558002415"><ele>627.0</ele><time>2026-04-25T08:21:08.999Z</time></trkpt><trkpt lat="43.99564363475101" lon="7.991632983538924"><ele>627.0</ele><time>2026-04-25T08:21:09.999Z</time></trkpt><trkpt lat="43.995644313951416" lon="7.991797232854386"><ele>627.0</ele><time>2026-04-25T08:21:10.999Z</time></trkpt><trkpt lat="43.995641036734355" lon="7.991944464772867"><ele>627.0</ele><time>2026-04-25T08:21:11.999Z</time></trkpt><trkpt lat="43.99565437354" lon="7.992071083413758"><ele>627.2</ele><time>2026-04-25T08:21:12.999Z</time></trkpt><trkpt lat="43.995666003971465" lon="7.992176482895355"><ele>627.4000000000001</ele><time>2026-04-25T08:21:13.999Z</time></trkpt><trkpt lat="43.995712582957" lon="7.992322247129792"><ele>627.5999999999999</ele><time>2026-04-25T08:21:15.999Z</time></trkpt><trkpt lat="43.99573417330639" lon="7.992484564778684"><ele>627.8</ele><time>2026-04-25T08:21:17.999Z</time></trkpt><trkpt lat="43.995731654694694" lon="7.992657092011866"><ele>628.0</ele><time>2026-04-25T08:21:19.999Z</time></trkpt><trkpt lat="43.99573745248816" lon="7.9927704434257185"><ele>628.8</ele><time>2026-04-25T08:21:20.999Z</time></trkpt><trkpt lat="43.99573555407877" lon="7.99288097780587"><ele>629.5999999999999</ele><time>2026-04-25T08:21:21.999Z</time></trkpt><trkpt lat="43.99575004889862" lon="7.9930170391173"><ele>630.4000000000001</ele><time>2026-04-25T08:21:22.999Z</time></trkpt><trkpt lat="43.995759565289326" lon="7.993164968195835"><ele>631.2</ele><time>2026-04-25T08:21:23.999Z</time></trkpt><trkpt lat="43.9957703530774" lon="7.993304539595171"><ele>632.0</ele><time>2026-04-25T08:21:24.999Z</time></trkpt><trkpt lat="43.99580288980717" lon="7.993463792856415"><ele>630.8000000000001</ele><time>2026-04-25T08:21:25.999Z</time></trkpt><trkpt lat="43.99586196773301" lon="7.993642501911248"><ele>629.6</ele><time>2026-04-25T08:21:26.999Z</time></trkpt><trkpt lat="43.99587426820355" lon="7.993765351987101"><ele>628.4000000000001</ele><time>2026-04-25T08:21:27.999Z</time></trkpt><trkpt lat="43.995880032992126" lon="7.99389860787502"><ele>627.2</ele><time>2026-04-25T08:21:28.999Z</time></trkpt><trkpt lat="43.995856136038704" lon="7.9940334850818555"><ele>626.0</ele><time>2026-04-25T08:21:29.999Z</time></trkpt><trkpt lat="43.99580323441455" lon="7.994187632528352"><ele>628.0</ele><time>2026-04-25T08:21:30.999Z</time></trkpt><trkpt lat="43.995773276716534" lon="7.9942875191245"><ele>630.0</ele><time>2026-04-25T08:21:31.999Z</time></trkpt><trkpt lat="43.9957765206596" lon="7.994381536136477"><ele>632.0</ele><time>2026-04-25T08:21:32.999Z</time></trkpt><trkpt lat="43.99579578098485" lon="7.994471186831011"><ele>634.0</ele><time>2026-04-25T08:21:33.999Z</time></trkpt><trkpt lat="43.99584464420824" lon="7.99453708593608"><ele>636.0</ele><time>2026-04-25T08:21:34.999Z</time></trkpt><trkpt lat="43.99590976858618" lon="7.994598809833034"><ele>638.0</ele><time>2026-04-25T08:21:35.999Z</time></trkpt><trkpt lat="43.99600311962147" lon="7.994639524010524"><ele>638.0</ele><time>2026-04-25T08:21:36.999Z</time></trkpt><trkpt lat="43.99610133012461" lon="7.994713510075399"><ele>638.0</ele><time>2026-04-25T08:21:37.999Z</time></trkpt><trkpt lat="43.99617258398326" lon="7.994788841684363"><ele>638.0</ele><time>2026-04-25T08:21:38.999Z</time></trkpt><trkpt lat="43.99621953787543" lon="7.9948620466553315"><ele>638.0</ele><time>2026-04-25T08:21:39.999Z</time></trkpt><trkpt lat="43.99618283207814" lon="7.994997209123343"><ele>638.0</ele><time>2026-04-25T08:21:41.999Z</time></trkpt><trkpt lat="43.99610890535042" lon="7.99503789368222"><ele>639.4</ele><time>2026-04-25T08:21:42.999Z</time></trkpt><trkpt lat="43.996014666933256" lon="7.995029386119606"><ele>640.8</ele><time>2026-04-25T08:21:43.999Z</time></trkpt><trkpt lat="43.99590975063754" lon="7.995011690433468"><ele>642.2</ele><time>2026-04-25T08:21:44.999Z</time></trkpt><trkpt lat="43.9958068750027" lon="7.9949875480841746"><ele>643.6</ele><time>2026-04-25T08:21:45.999Z</time></trkpt><trkpt lat="43.99570242259072" lon="7.994937385382647"><ele>645.0</ele><time>2026-04-25T08:21:46.999Z</time></trkpt><trkpt lat="43.995625254453934" lon="7.994882158046591"><ele>645.0</ele><time>2026-04-25T08:21:47.999Z</time></trkpt><trkpt lat="43.99554428966611" lon="7.994897472799394"><ele>645.0</ele><time>2026-04-25T08:21:49.999Z</time></trkpt><trkpt lat="43.99555961990238" lon="7.994988268422439"><ele>645.0</ele><time>2026-04-25T08:21:50.999Z</time></trkpt><trkpt lat="43.995626104344005" lon="7.995080228677491"><ele>645.0</ele><time>2026-04-25T08:21:51.999Z</time></trkpt><trkpt lat="43.99569751058977" lon="7.995175288954416"><ele>645.0</ele><time>2026-04-25T08:21:52.999Z</time></trkpt><trkpt lat="43.995765686356705" lon="7.995266590974358"><ele>645.0</ele><time>2026-04-25T08:21:53.999Z</time></trkpt><trkpt lat="43.99584785143163" lon="7.995334408969972"><ele>645.0</ele><time>2026-04-25T08:21:54.999Z</time></trkpt><trkpt lat="43.995948968788255" lon="7.995373324232483"><ele>645.0</ele><time>2026-04-25T08:21:55.999Z</time></trkpt><trkpt lat="43.99602731137383" lon="7.995455413140222"><ele>645.0</ele><time>2026-04-25T08:21:56.999Z</time></trkpt><trkpt lat="43.996073521857" lon="7.995558465336123"><ele>645.0</ele><time>2026-04-25T08:21:57.999Z</time></trkpt><trkpt lat="43.996153795039916" lon="7.995650160386083"><ele>645.0</ele><time>2026-04-25T08:21:59.999Z</time></trkpt><trkpt lat="43.9962445591674" lon="7.995684056079958"><ele>645.0</ele><time>2026-04-25T08:22:00.999Z</time></trkpt><trkpt lat="43.99631836811441" lon="7.995744507326513"><ele>645.0</ele><time>2026-04-25T08:22:01.999Z</time></trkpt><trkpt lat="43.996353257005204" lon="7.995861925416119"><ele>645.0</ele><time>2026-04-25T08:22:02.999Z</time></trkpt><trkpt lat="43.996339162149816" lon="7.996019605931815"><ele>645.0</ele><time>2026-04-25T08:22:03.999Z</time></trkpt><trkpt lat="43.9963129879878" lon="7.996186136435728"><ele>645.0</ele><time>2026-04-25T08:22:04.999Z</time></trkpt><trkpt lat="43.99628809096039" lon="7.996333312536512"><ele>646.8</ele><time>2026-04-25T08:22:05.999Z</time></trkpt><trkpt lat="43.99626131633187" lon="7.996454632367768"><ele>648.6</ele><time>2026-04-25T08:22:07Z</time></trkpt><trkpt lat="43.996240609345456" lon="7.996575103501956"><ele>650.4000000000001</ele><time>2026-04-25T08:22:08Z</time></trkpt><trkpt lat="43.99620230476966" lon="7.996711745017628"><ele>652.2</ele><time>2026-04-25T08:22:09Z</time></trkpt><trkpt lat="43.99613505858003" lon="7.996849899800858"><ele>654.0</ele><time>2026-04-25T08:22:10Z</time></trkpt><trkpt lat="43.996072498710554" lon="7.99694993970236"><ele>655.8000000000001</ele><time>2026-04-25T08:22:11Z</time></trkpt><trkpt lat="43.99601717197186" lon="7.997014630681723"><ele>657.6</ele><time>2026-04-25T08:22:12Z</time></trkpt><trkpt lat="43.996003862324514" lon="7.997149591597203"><ele>659.4</ele><time>2026-04-25T08:22:14Z</time></trkpt><trkpt lat="43.996110515895964" lon="7.997303265854033"><ele>661.2</ele><time>2026-04-25T08:22:16Z</time></trkpt><trkpt lat="43.99618687791213" lon="7.997355710613973"><ele>663.0</ele><time>2026-04-25T08:22:17Z</time></trkpt><trkpt lat="43.99628657226355" lon="7.997347128631764"><ele>663.0</ele><time>2026-04-25T08:22:18Z</time></trkpt><trkpt lat="43.99639560525403" lon="7.997342138798128"><ele>663.0</ele><time>2026-04-25T08:22:19Z</time></trkpt><trkpt lat="43.99649408999978" lon="7.9973569614899915"><ele>663.0</ele><time>2026-04-25T08:22:20Z</time></trkpt><trkpt lat="43.99658104537282" lon="7.997402281022868"><ele>663.0</ele><time>2026-04-25T08:22:21Z</time></trkpt><trkpt lat="43.99663582648981" lon="7.997479273363836"><ele>663.0</ele><time>2026-04-25T08:22:22Z</time></trkpt><trkpt lat="43.996635362751775" lon="7.997614617533182"><ele>666.5999999999999</ele><time>2026-04-25T08:22:23Z</time></trkpt><trkpt lat="43.99659422565528" lon="7.99779392081332"><ele>670.1999999999999</ele><time>2026-04-25T08:22:24Z</time></trkpt><trkpt lat="43.99659890495607" lon="7.9979118269695535"><ele>673.8</ele><time>2026-04-25T08:22:25Z</time></trkpt><trkpt lat="43.99662792198205" lon="7.998027854847461"><ele>677.4</ele><time>2026-04-25T08:22:26Z</time></trkpt><trkpt lat="43.99663830873424" lon="7.998157534459409"><ele>681.0</ele><time>2026-04-25T08:22:27Z</time></trkpt><trkpt lat="43.99662428780648" lon="7.998247816691021"><ele>679.5</ele><time>2026-04-25T08:22:28Z</time></trkpt><trkpt lat="43.99670694429061" lon="7.998245777072997"><ele>678.0</ele><time>2026-04-25T08:22:32Z</time></trkpt><trkpt lat="43.99686248240495" lon="7.99826901894427"><ele>676.5</ele><time>2026-04-25T08:22:34Z</time></trkpt><trkpt lat="43.99694823950613" lon="7.998407373036605"><ele>675.0</ele><time>2026-04-25T08:22:35Z</time></trkpt><trkpt lat="43.99702632577674" lon="7.998563523832086"><ele>678.2</ele><time>2026-04-25T08:22:36Z</time></trkpt><trkpt lat="43.997094086792515" lon="7.9986511210343085"><ele>681.4</ele><time>2026-04-25T08:22:37Z</time></trkpt><trkpt lat="43.997139656987805" lon="7.998809345317107"><ele>684.5999999999999</ele><time>2026-04-25T08:22:39Z</time></trkpt><trkpt lat="43.9971128067788" lon="7.998901850257256"><ele>687.8</ele><time>2026-04-25T08:22:40Z</time></trkpt><trkpt lat="43.99718494769638" lon="7.998998235911511"><ele>691.0</ele><time>2026-04-25T08:22:43Z</time></trkpt><trkpt lat="43.99729996819851" lon="7.998949076543441"><ele>691.0</ele><time>2026-04-25T08:22:45Z</time></trkpt><trkpt lat="43.997380532168265" lon="7.999004065314907"><ele>691.0</ele><time>2026-04-25T08:22:47Z</time></trkpt><trkpt lat="43.99755202955165" lon="7.9991806027275105"><ele>691.0</ele><time>2026-04-25T08:22:50Z</time></trkpt><trkpt lat="43.99759086718009" lon="7.9993031602032465"><ele>691.0</ele><time>2026-04-25T08:22:52Z</time></trkpt><trkpt lat="43.997642131894956" lon="7.999398725325454"><ele>695.5999999999999</ele><time>2026-04-25T08:22:54Z</time></trkpt><trkpt lat="43.997653935504054" lon="7.999573000569752"><ele>700.2</ele><time>2026-04-25T08:22:56Z</time></trkpt><trkpt lat="43.99766036911665" lon="7.9997107666516065"><ele>704.8</ele><time>2026-04-25T08:22:58Z</time></trkpt><trkpt lat="43.99770214711272" lon="7.999842667708863"><ele>709.4000000000001</ele><time>2026-04-25T08:23:00Z</time></trkpt><trkpt lat="43.997740238447555" lon="7.9999796640711285"><ele>714.0</ele><time>2026-04-25T08:23:02Z</time></trkpt><trkpt lat="43.99777287758229" lon="8.00012468267255"><ele>714.0</ele><time>2026-04-25T08:23:04Z</time></trkpt><trkpt lat="43.99777375613293" lon="8.00026263417828"><ele>714.0</ele><time>2026-04-25T08:23:06Z</time></trkpt><trkpt lat="43.997769803997365" lon="8.000401299216389"><ele>714.0</ele><time>2026-04-25T08:23:08Z</time></trkpt><trkpt lat="43.99775504333651" lon="8.000526720045285"><ele>714.0</ele><time>2026-04-25T08:23:12Z</time></trkpt><trkpt lat="43.997777355362764" lon="8.000622628071191"><ele>714.0</ele><time>2026-04-25T08:23:14Z</time></trkpt><trkpt lat="43.997979994230064" lon="8.001013127713286"><ele>714.0</ele><time>2026-04-25T08:23:16.999Z</time></trkpt><trkpt lat="43.99804641846685" lon="8.001017344995585"><ele>714.0</ele><time>2026-04-25T08:23:17.999Z</time></trkpt><trkpt lat="43.99810566046102" lon="8.000910928140469"><ele>714.0</ele><time>2026-04-25T08:23:18.999Z</time></trkpt><trkpt lat="43.9982407347773" lon="8.000878475756576"><ele>714.0</ele><time>2026-04-25T08:23:20.999Z</time></trkpt><trkpt lat="43.99829283424385" lon="8.000750363725887"><ele>714.0</ele><time>2026-04-25T08:23:21.999Z</time></trkpt><trkpt lat="43.9983422046037" lon="8.000666249109956"><ele>718.8000000000001</ele><time>2026-04-25T08:23:22.999Z</time></trkpt><trkpt lat="43.998476430627896" lon="8.000644104304165"><ele>723.6</ele><time>2026-04-25T08:23:24.999Z</time></trkpt><trkpt lat="43.998542261061914" lon="8.000792274377224"><ele>728.4</ele><time>2026-04-25T08:23:25.999Z</time></trkpt><trkpt lat="43.99858614361269" lon="8.000856141603196"><ele>733.2</ele><time>2026-04-25T08:23:26.999Z</time></trkpt><trkpt lat="43.99862617816465" lon="8.001002545405449"><ele>738.0</ele><time>2026-04-25T08:23:28.999Z</time></trkpt><trkpt lat="43.99865430339039" lon="8.001115726557789"><ele>740.0</ele><time>2026-04-25T08:23:29.999Z</time></trkpt><trkpt lat="43.99866421495207" lon="8.001250864722497"><ele>742.0</ele><time>2026-04-25T08:23:30.999Z</time></trkpt><trkpt lat="43.99868792837313" lon="8.001345550900467"><ele>744.0</ele><time>2026-04-25T08:23:31.999Z</time></trkpt><trkpt lat="43.99872439698072" lon="8.001464117920053"><ele>746.0</ele><time>2026-04-25T08:23:33.999Z</time></trkpt><trkpt lat="43.99878532440763" lon="8.001390582682257"><ele>748.0</ele><time>2026-04-25T08:23:35.999Z</time></trkpt><trkpt lat="43.99886520110659" lon="8.001270795956012"><ele>748.0</ele><time>2026-04-25T08:23:37.999Z</time></trkpt><trkpt lat="43.99891014740754" lon="8.001172095589368"><ele>748.0</ele><time>2026-04-25T08:23:38.999Z</time></trkpt><trkpt lat="43.99897878878262" lon="8.001109006007928"><ele>748.0</ele><time>2026-04-25T08:23:39.999Z</time></trkpt><trkpt lat="43.999037307536" lon="8.001074065885517"><ele>748.0</ele><time>2026-04-25T08:23:40.999Z</time></trkpt><trkpt lat="43.999099939932215" lon="8.001057778032303"><ele>748.0</ele><time>2026-04-25T08:23:41.999Z</time></trkpt><trkpt lat="43.99915205527014" lon="8.000967151449528"><ele>748.0</ele><time>2026-04-25T08:23:43.999Z</time></trkpt><trkpt lat="43.999137322357" lon="8.000865749714787"><ele>746.0</ele><time>2026-04-25T08:23:44.999Z</time></trkpt><trkpt lat="43.99915182936642" lon="8.00075798452549"><ele>744.0</ele><time>2026-04-25T08:23:45.999Z</time></trkpt><trkpt lat="43.99921872076802" lon="8.000683781433906"><ele>742.0</ele><time>2026-04-25T08:23:46.999Z</time></trkpt><trkpt lat="43.999312576004314" lon="8.000631032609219"><ele>740.0</ele><time>2026-04-25T08:23:47.999Z</time></trkpt><trkpt lat="43.99936385162026" lon="8.000486434181413"><ele>738.0</ele><time>2026-04-25T08:23:49.999Z</time></trkpt><trkpt lat="43.99934514081158" lon="8.000382073318677"><ele>742.1666666666666</ele><time>2026-04-25T08:23:50.999Z</time></trkpt><trkpt lat="43.9993187458919" lon="8.000277335640183"><ele>746.3333333333334</ele><time>2026-04-25T08:23:51.999Z</time></trkpt><trkpt lat="43.99936416011378" lon="8.000138433248315"><ele>750.5</ele><time>2026-04-25T08:23:53.999Z</time></trkpt><trkpt lat="43.9994269733758" lon="8.000094314254468"><ele>754.6666666666667</ele><time>2026-04-25T08:23:54.999Z</time></trkpt><trkpt lat="43.99948710488382" lon="8.000006712121484"><ele>758.8333333333334</ele><time>2026-04-25T08:23:55.999Z</time></trkpt><trkpt lat="43.999539157012954" lon="7.999908949275256"><ele>763.0</ele><time>2026-04-25T08:23:56.999Z</time></trkpt><trkpt lat="43.99959694758194" lon="7.999834468786653"><ele>763.0</ele><time>2026-04-25T08:23:57.999Z</time></trkpt><trkpt lat="43.99966978299135" lon="7.999758922450782"><ele>763.0</ele><time>2026-04-25T08:23:58.999Z</time></trkpt><trkpt lat="43.999755287110176" lon="7.999690652865725"><ele>763.0</ele><time>2026-04-25T08:23:59.999Z</time></trkpt><trkpt lat="43.99981793010066" lon="7.99967408372917"><ele>763.0</ele><time>2026-04-25T08:24:00.999Z</time></trkpt><trkpt lat="43.99993489198593" lon="7.9996870905939925"><ele>763.0</ele><time>2026-04-25T08:24:01.999Z</time></trkpt><trkpt lat="44.0000472622656" lon="7.999660656127653"><ele>763.0</ele><time>2026-04-25T08:24:02.999Z</time></trkpt><trkpt lat="44.000116413224376" lon="7.999629654357711"><ele>763.0</ele><time>2026-04-25T08:24:03.999Z</time></trkpt><trkpt lat="44.00019347783658" lon="7.999514964560318"><ele>763.0</ele><time>2026-04-25T08:24:05.999Z</time></trkpt><trkpt lat="44.000179600519886" lon="7.999402311203377"><ele>763.0</ele><time>2026-04-25T08:24:07.999Z</time></trkpt><trkpt lat="44.000105645542156" lon="7.999356025332046"><ele>763.0</ele><time>2026-04-25T08:24:08.999Z</time></trkpt><trkpt lat="44.00004935300706" lon="7.999300905138031"><ele>763.0</ele><time>2026-04-25T08:24:09.999Z</time></trkpt><trkpt lat="44.00007958849311" lon="7.999197950265184"><ele>760.2</ele><time>2026-04-25T08:24:10.999Z</time></trkpt><trkpt lat="44.00006188165626" lon="7.999022676325769"><ele>757.4</ele><time>2026-04-25T08:24:11.999Z</time></trkpt><trkpt lat="44.00009054117836" lon="7.998893855242445"><ele>754.6</ele><time>2026-04-25T08:24:13Z</time></trkpt><trkpt lat="44.000128280189486" lon="7.998816533510301"><ele>751.8000000000001</ele><time>2026-04-25T08:24:14Z</time></trkpt><trkpt lat="44.000193587511525" lon="7.998809094889161"><ele>749.0</ele><time>2026-04-25T08:24:15Z</time></trkpt><trkpt lat="44.000304582970344" lon="7.998854559910935"><ele>749.0</ele><time>2026-04-25T08:24:16Z</time></trkpt><trkpt lat="44.00044114560969" lon="7.998877019448234"><ele>749.0</ele><time>2026-04-25T08:24:17Z</time></trkpt><trkpt lat="44.000552538177786" lon="7.998847128332091"><ele>749.0</ele><time>2026-04-25T08:24:18Z</time></trkpt><trkpt lat="44.00064081562046" lon="7.998828965341487"><ele>749.0</ele><time>2026-04-25T08:24:19Z</time></trkpt><trkpt lat="44.00074831177811" lon="7.9987320768768875"><ele>749.0</ele><time>2026-04-25T08:24:21Z</time></trkpt><trkpt lat="44.00075410968419" lon="7.998599392408617"><ele>749.0</ele><time>2026-04-25T08:24:22Z</time></trkpt><trkpt lat="44.00078555606862" lon="7.998507840190055"><ele>749.0</ele><time>2026-04-25T08:24:23Z</time></trkpt><trkpt lat="44.000868517007525" lon="7.998510972585783"><ele>749.0</ele><time>2026-04-25T08:24:24Z</time></trkpt><trkpt lat="44.000978458400105" lon="7.998590649217943"><ele>749.0</ele><time>2026-04-25T08:24:25Z</time></trkpt><trkpt lat="44.00104195288261" lon="7.998631328046344"><ele>749.0</ele><time>2026-04-25T08:24:26Z</time></trkpt><trkpt lat="44.001116858267565" lon="7.998567151833775"><ele>749.6</ele><time>2026-04-25T08:24:28Z</time></trkpt><trkpt lat="44.00105114019078" lon="7.998433962942477"><ele>750.2</ele><time>2026-04-25T08:24:30Z</time></trkpt><trkpt lat="44.00103106875441" lon="7.998340158341021"><ele>750.8000000000001</ele><time>2026-04-25T08:24:31Z</time></trkpt><trkpt lat="44.0010420987781" lon="7.998239488084237"><ele>751.4000000000001</ele><time>2026-04-25T08:24:32Z</time></trkpt><trkpt lat="44.00109011523967" lon="7.998130777343927"><ele>752.0</ele><time>2026-04-25T08:24:33Z</time></trkpt><trkpt lat="44.00116199807406" lon="7.998022583176712"><ele>752.0</ele><time>2026-04-25T08:24:34Z</time></trkpt><trkpt lat="44.00123727011654" lon="7.997931168085851"><ele>752.0</ele><time>2026-04-25T08:24:35Z</time></trkpt><trkpt lat="44.001309058672426" lon="7.997865629431579"><ele>752.0</ele><time>2026-04-25T08:24:36Z</time></trkpt><trkpt lat="44.00137367019392" lon="7.99781140903938"><ele>752.0</ele><time>2026-04-25T08:24:37Z</time></trkpt><trkpt lat="44.00142617491158" lon="7.997759839223583"><ele>752.0</ele><time>2026-04-25T08:24:38Z</time></trkpt><trkpt lat="44.001462674076976" lon="7.997684189246677"><ele>752.0</ele><time>2026-04-25T08:24:39Z</time></trkpt><trkpt lat="44.00149556875563" lon="7.997598061190404"><ele>752.0</ele><time>2026-04-25T08:24:40Z</time></trkpt><trkpt lat="44.00151654554976" lon="7.997510690510789"><ele>752.0</ele><time>2026-04-25T08:24:41Z</time></trkpt><trkpt lat="44.00155971213622" lon="7.997371055430773"><ele>752.0</ele><time>2026-04-25T08:24:43Z</time></trkpt><trkpt lat="44.001595356578356" lon="7.997243290441963"><ele>752.0</ele><time>2026-04-25T08:24:45Z</time></trkpt><trkpt lat="44.00165928832085" lon="7.9971154748325715"><ele>752.0</ele><time>2026-04-25T08:24:47Z</time></trkpt><trkpt lat="44.00173846927477" lon="7.9969991531204"><ele>754.25</ele><time>2026-04-25T08:24:49Z</time></trkpt><trkpt lat="44.00179319820505" lon="7.996848597460968"><ele>756.5</ele><time>2026-04-25T08:24:51Z</time></trkpt><trkpt lat="44.001861436558436" lon="7.996712443754283"><ele>758.75</ele><time>2026-04-25T08:24:53Z</time></trkpt><trkpt lat="44.0019417811124" lon="7.996589702417779"><ele>761.0</ele><time>2026-04-25T08:24:55Z</time></trkpt><trkpt lat="44.00201099278043" lon="7.9964641726342744"><ele>757.1999999999999</ele><time>2026-04-25T08:24:57Z</time></trkpt><trkpt lat="44.002041195935334" lon="7.99633828989584"><ele>753.4</ele><time>2026-04-25T08:24:59Z</time></trkpt><trkpt lat="44.002019755949824" lon="7.996183731364046"><ele>749.6</ele><time>2026-04-25T08:25:01Z</time></trkpt><trkpt lat="44.002092823104185" lon="7.9960078849713625"><ele>745.8</ele><time>2026-04-25T08:25:03Z</time></trkpt><trkpt lat="44.00217273906856" lon="7.995941036712856"><ele>742.0</ele><time>2026-04-25T08:25:04Z</time></trkpt><trkpt lat="44.00221683353497" lon="7.995842574426733"><ele>738.6666666666667</ele><time>2026-04-25T08:25:05Z</time></trkpt><trkpt lat="44.00224093230698" lon="7.995725375777761"><ele>735.3333333333334</ele><time>2026-04-25T08:25:06Z</time></trkpt><trkpt lat="44.00226929237079" lon="7.9956084770232865"><ele>732.0</ele><time>2026-04-25T08:25:07Z</time></trkpt><trkpt lat="44.00232551411619" lon="7.9954989065039435"><ele>728.6666666666666</ele><time>2026-04-25T08:25:08Z</time></trkpt><trkpt lat="44.00238849568733" lon="7.99539929887872"><ele>725.3333333333333</ele><time>2026-04-25T08:25:09Z</time></trkpt><trkpt lat="44.00243307930808" lon="7.995312311073658"><ele>722.0</ele><time>2026-04-25T08:25:10Z</time></trkpt><trkpt lat="44.00247793714814" lon="7.995246267426168"><ele>722.6666666666666</ele><time>2026-04-25T08:25:11Z</time></trkpt><trkpt lat="44.00253696683515" lon="7.995160584804783"><ele>723.3333333333333</ele><time>2026-04-25T08:25:12Z</time></trkpt><trkpt lat="44.00259558356735" lon="7.995105280960835"><ele>724.0</ele><time>2026-04-25T08:25:13Z</time></trkpt><trkpt lat="44.002650576857484" lon="7.995037857654453"><ele>724.6666666666666</ele><time>2026-04-25T08:25:14Z</time></trkpt><trkpt lat="44.00269987925675" lon="7.994949558132561"><ele>725.3333333333334</ele><time>2026-04-25T08:25:15Z</time></trkpt><trkpt lat="44.00274233253109" lon="7.994832149997498"><ele>726.0</ele><time>2026-04-25T08:25:16Z</time></trkpt><trkpt lat="44.002793560152426" lon="7.9947571169174365"><ele>726.0</ele><time>2026-04-25T08:25:17Z</time></trkpt><trkpt lat="44.00285239768256" lon="7.994722982420153"><ele>726.0</ele><time>2026-04-25T08:25:18Z</time></trkpt><trkpt lat="44.002929716302766" lon="7.994699926008392"><ele>726.0</ele><time>2026-04-25T08:25:19Z</time></trkpt><trkpt lat="44.00302367231304" lon="7.994699239623106"><ele>726.0</ele><time>2026-04-25T08:25:20Z</time></trkpt><trkpt lat="44.003126920598895" lon="7.994686455438665"><ele>726.0</ele><time>2026-04-25T08:25:20.999Z</time></trkpt><trkpt lat="44.00325899186227" lon="7.994674242417875"><ele>730.4</ele><time>2026-04-25T08:25:21.999Z</time></trkpt><trkpt lat="44.00340294091357" lon="7.994681093309937"><ele>734.8</ele><time>2026-04-25T08:25:22.999Z</time></trkpt><trkpt lat="44.003515989947985" lon="7.994696775419289"><ele>739.1999999999999</ele><time>2026-04-25T08:25:23.999Z</time></trkpt><trkpt lat="44.003605377714415" lon="7.994679511344882"><ele>743.5999999999999</ele><time>2026-04-25T08:25:24.999Z</time></trkpt><trkpt lat="44.00369136712249" lon="7.994609199814126"><ele>748.0</ele><time>2026-04-25T08:25:25.999Z</time></trkpt><trkpt lat="44.00376874644654" lon="7.994540619118916"><ele>748.0</ele><time>2026-04-25T08:25:26.999Z</time></trkpt><trkpt lat="44.00385088240901" lon="7.994489814997554"><ele>748.0</ele><time>2026-04-25T08:25:27.999Z</time></trkpt><trkpt lat="44.00393606095899" lon="7.994424001818024"><ele>748.0</ele><time>2026-04-25T08:25:28.999Z</time></trkpt><trkpt lat="44.004011228515715" lon="7.994332909315676"><ele>748.0</ele><time>2026-04-25T08:25:29.999Z</time></trkpt><trkpt lat="44.00408728462114" lon="7.994217454466595"><ele>748.0</ele><time>2026-04-25T08:25:30.999Z</time></trkpt><trkpt lat="44.00416231391899" lon="7.994098040206894"><ele>744.4</ele><time>2026-04-25T08:25:31.999Z</time></trkpt><trkpt lat="44.00422488265264" lon="7.99398007374316"><ele>740.8</ele><time>2026-04-25T08:25:32.999Z</time></trkpt><trkpt lat="44.004293697563966" lon="7.9938793126388346"><ele>737.2</ele><time>2026-04-25T08:25:33.999Z</time></trkpt><trkpt lat="44.00436614513369" lon="7.993770889030364"><ele>733.6</ele><time>2026-04-25T08:25:34.999Z</time></trkpt><trkpt lat="44.00441593656445" lon="7.993631867206826"><ele>730.0</ele><time>2026-04-25T08:25:35.999Z</time></trkpt><trkpt lat="44.0044638503463" lon="7.993505023812778"><ele>730.0</ele><time>2026-04-25T08:25:36.999Z</time></trkpt><trkpt lat="44.00452703631909" lon="7.993365695449398"><ele>730.0</ele><time>2026-04-25T08:25:38.999Z</time></trkpt><trkpt lat="44.004592337205985" lon="7.993237686692189"><ele>730.0</ele><time>2026-04-25T08:25:40.999Z</time></trkpt><trkpt lat="44.00465157106144" lon="7.993102043158187"><ele>730.0</ele><time>2026-04-25T08:25:42.999Z</time></trkpt><trkpt lat="44.00466537125315" lon="7.993007445596436"><ele>730.0</ele><time>2026-04-25T08:25:43.999Z</time></trkpt><trkpt lat="44.00467880190462" lon="7.992911194235096"><ele>726.0</ele><time>2026-04-25T08:25:44.999Z</time></trkpt><trkpt lat="44.00467615585186" lon="7.992793452890394"><ele>722.0</ele><time>2026-04-25T08:25:45.999Z</time></trkpt><trkpt lat="44.004668441169244" lon="7.992664797121834"><ele>718.0</ele><time>2026-04-25T08:25:46.999Z</time></trkpt><trkpt lat="44.00467825648256" lon="7.992557683978307"><ele>714.0</ele><time>2026-04-25T08:25:47.999Z</time></trkpt><trkpt lat="44.00466665234559" lon="7.992450495723479"><ele>710.0</ele><time>2026-04-25T08:25:48.999Z</time></trkpt><trkpt lat="44.00465101636288" lon="7.992350529806189"><ele>706.0</ele><time>2026-04-25T08:25:49.999Z</time></trkpt><trkpt lat="44.00465546634413" lon="7.9922064668303605"><ele>708.1999999999999</ele><time>2026-04-25T08:25:51.999Z</time></trkpt><trkpt lat="44.0047675693591" lon="7.992111671938406"><ele>710.4</ele><time>2026-04-25T08:25:53.999Z</time></trkpt><trkpt lat="44.004849118877885" lon="7.992116292789534"><ele>712.6</ele><time>2026-04-25T08:25:54.999Z</time></trkpt><trkpt lat="44.00491084884981" lon="7.992143776203734"><ele>714.8</ele><time>2026-04-25T08:25:55.999Z</time></trkpt><trkpt lat="44.005012736046275" lon="7.9921627679278435"><ele>717.0</ele><time>2026-04-25T08:25:57.999Z</time></trkpt><trkpt lat="44.00510339618664" lon="7.992172779166034"><ele>717.0</ele><time>2026-04-25T08:25:59.999Z</time></trkpt><trkpt lat="44.005175436296675" lon="7.99214729567154"><ele>717.0</ele><time>2026-04-25T08:26:01.999Z</time></trkpt><trkpt lat="44.00522297224705" lon="7.992072480548645"><ele>717.0</ele><time>2026-04-25T08:29:47.999Z</time></trkpt><trkpt lat="44.00528098650428" lon="7.992036230302767"><ele>717.0</ele><time>2026-04-25T08:29:49.999Z</time></trkpt><trkpt lat="44.005337616402386" lon="7.991984820252754"><ele>717.0</ele><time>2026-04-25T08:29:52.999Z</time></trkpt><trkpt lat="44.00540169271788" lon="7.991878321558863"><ele>717.0</ele><time>2026-04-25T08:30:20.999Z</time></trkpt><trkpt lat="44.00547206691097" lon="7.991804403877631"><ele>717.0</ele><time>2026-04-25T08:30:21.999Z</time></trkpt><trkpt lat="44.00552222371227" lon="7.991725781541033"><ele>717.0</ele><time>2026-04-25T08:30:22.999Z</time></trkpt><trkpt lat="44.00556891643718" lon="7.991666564040262"><ele>717.0</ele><time>2026-04-25T08:30:23.999Z</time></trkpt><trkpt lat="44.00568823582554" lon="7.991578934563495"><ele>717.0</ele><time>2026-04-25T08:30:25.999Z</time></trkpt><trkpt lat="44.005776973614346" lon="7.991555895580399"><ele>717.0</ele><time>2026-04-25T08:30:26.999Z</time></trkpt><trkpt lat="44.00585856976547" lon="7.991553787462555"><ele>717.0</ele><time>2026-04-25T08:30:27.999Z</time></trkpt><trkpt lat="44.005940316927656" lon="7.991558000569522"><ele>713.4000000000001</ele><time>2026-04-25T08:30:28.999Z</time></trkpt><trkpt lat="44.00604499309497" lon="7.991576003962904"><ele>709.8000000000001</ele><time>2026-04-25T08:30:29.999Z</time></trkpt><trkpt lat="44.00613152921121" lon="7.991547541712234"><ele>706.2</ele><time>2026-04-25T08:30:31Z</time></trkpt><trkpt lat="44.00621744070686" lon="7.991521679621184"><ele>702.6</ele><time>2026-04-25T08:30:32Z</time></trkpt><trkpt lat="44.00632189204807" lon="7.9915017645811135"><ele>699.0</ele><time>2026-04-25T08:30:33Z</time></trkpt><trkpt lat="44.006412714793235" lon="7.991486343894051"><ele>699.0</ele><time>2026-04-25T08:30:34Z</time></trkpt><trkpt lat="44.006478223070204" lon="7.991444504858713"><ele>699.0</ele><time>2026-04-25T08:30:35Z</time></trkpt><trkpt lat="44.00654521553742" lon="7.9913975312842656"><ele>699.0</ele><time>2026-04-25T08:30:36Z</time></trkpt><trkpt lat="44.0066030441052" lon="7.991358579704227"><ele>699.0</ele><time>2026-04-25T08:30:37Z</time></trkpt><trkpt lat="44.00671538950084" lon="7.991333138053144"><ele>699.0</ele><time>2026-04-25T08:30:39Z</time></trkpt><trkpt lat="44.00679264700765" lon="7.991296057839815"><ele>699.0</ele><time>2026-04-25T08:30:41Z</time></trkpt><trkpt lat="44.0068896341772" lon="7.9911922679055705"><ele>696.0</ele><time>2026-04-25T08:30:43Z</time></trkpt><trkpt lat="44.00693120948878" lon="7.991122745391953"><ele>693.0</ele><time>2026-04-25T08:30:44Z</time></trkpt><trkpt lat="44.0069931646525" lon="7.991006742169219"><ele>690.0</ele><time>2026-04-25T08:30:46Z</time></trkpt><trkpt lat="44.00705796017153" lon="7.990936233665567"><ele>687.0</ele><time>2026-04-25T08:30:49Z</time></trkpt><trkpt lat="44.007120297619586" lon="7.9908765008868246"><ele>684.0</ele><time>2026-04-25T08:30:52Z</time></trkpt><trkpt lat="44.00718453691469" lon="7.990850657219788"><ele>681.0</ele><time>2026-04-25T08:30:55Z</time></trkpt><trkpt lat="44.007233041867075" lon="7.990960434711305"><ele>681.0</ele><time>2026-04-25T08:30:57Z</time></trkpt><trkpt lat="44.00733747637414" lon="7.991078640024432"><ele>681.0</ele><time>2026-04-25T08:30:59Z</time></trkpt><trkpt lat="44.00742273067485" lon="7.991089228768681"><ele>681.0</ele><time>2026-04-25T08:31:00Z</time></trkpt><trkpt lat="44.00751392313373" lon="7.991078562461117"><ele>681.0</ele><time>2026-04-25T08:31:01Z</time></trkpt><trkpt lat="44.00761391902993" lon="7.99106063928212"><ele>681.0</ele><time>2026-04-25T08:31:02Z</time></trkpt><trkpt lat="44.00771111757412" lon="7.9910440927679485"><ele>677.8</ele><time>2026-04-25T08:31:03Z</time></trkpt><trkpt lat="44.00781129088167" lon="7.99102434546351"><ele>674.5999999999999</ele><time>2026-04-25T08:31:04Z</time></trkpt><trkpt lat="44.00791500950094" lon="7.990997925965505"><ele>671.4</ele><time>2026-04-25T08:31:05Z</time></trkpt><trkpt lat="44.00802053612988" lon="7.990982971294474"><ele>668.2</ele><time>2026-04-25T08:31:06Z</time></trkpt><trkpt lat="44.00812292217799" lon="7.99096837226752"><ele>665.0</ele><time>2026-04-25T08:31:07Z</time></trkpt><trkpt lat="44.00822138387079" lon="7.990932614859877"><ele>665.0</ele><time>2026-04-25T08:31:08Z</time></trkpt><trkpt lat="44.00831995373371" lon="7.990882549479294"><ele>665.0</ele><time>2026-04-25T08:31:09Z</time></trkpt><trkpt lat="44.008409016591834" lon="7.9908329786549785"><ele>665.0</ele><time>2026-04-25T08:31:10Z</time></trkpt><trkpt lat="44.008501057503096" lon="7.990778276886925"><ele>665.0</ele><time>2026-04-25T08:31:11Z</time></trkpt><trkpt lat="44.00859867793162" lon="7.99073390481626"><ele>665.0</ele><time>2026-04-25T08:31:12Z</time></trkpt><trkpt lat="44.008697341425396" lon="7.9906845572348315"><ele>665.6</ele><time>2026-04-25T08:31:13Z</time></trkpt><trkpt lat="44.008797967337735" lon="7.990638740724532"><ele>666.2</ele><time>2026-04-25T08:31:14Z</time></trkpt><trkpt lat="44.008905166494046" lon="7.990626715634356"><ele>666.8</ele><time>2026-04-25T08:31:15Z</time></trkpt><trkpt lat="44.00901620461164" lon="7.990606116752977"><ele>667.4</ele><time>2026-04-25T08:31:16Z</time></trkpt><trkpt lat="44.009134614898166" lon="7.9905834584360775"><ele>668.0</ele><time>2026-04-25T08:31:17Z</time></trkpt><trkpt lat="44.009246625316656" lon="7.99053531527833"><ele>668.0</ele><time>2026-04-25T08:31:18Z</time></trkpt><trkpt lat="44.00935484094407" lon="7.990449898111171"><ele>668.0</ele><time>2026-04-25T08:31:19Z</time></trkpt><trkpt lat="44.00944828325431" lon="7.9903363718372145"><ele>668.0</ele><time>2026-04-25T08:31:20Z</time></trkpt><trkpt lat="44.00954166379113" lon="7.990220644986741"><ele>668.0</ele><time>2026-04-25T08:31:21Z</time></trkpt><trkpt lat="44.009635012867975" lon="7.990100714704615"><ele>670.0</ele><time>2026-04-25T08:31:22Z</time></trkpt><trkpt lat="44.00973949629198" lon="7.989997055540098"><ele>672.0</ele><time>2026-04-25T08:31:23Z</time></trkpt><trkpt lat="44.00985322426742" lon="7.9899187946742325"><ele>674.0</ele><time>2026-04-25T08:31:24Z</time></trkpt><trkpt lat="44.009972276740555" lon="7.989874429140445"><ele>676.0</ele><time>2026-04-25T08:31:25Z</time></trkpt><trkpt lat="44.010089507429036" lon="7.9898740935387424"><ele>676.0</ele><time>2026-04-25T08:31:26Z</time></trkpt><trkpt lat="44.010214718573096" lon="7.98990063758339"><ele>676.0</ele><time>2026-04-25T08:31:27Z</time></trkpt><trkpt lat="44.010336392440195" lon="7.989947309273625"><ele>676.0</ele><time>2026-04-25T08:31:28Z</time></trkpt><trkpt lat="44.010440288450766" lon="7.990017811265556"><ele>676.0</ele><time>2026-04-25T08:31:29Z</time></trkpt><trkpt lat="44.01054208597048" lon="7.9900561851250576"><ele>676.0</ele><time>2026-04-25T08:31:30Z</time></trkpt><trkpt lat="44.01063866880367" lon="7.990047930794826"><ele>676.0</ele><time>2026-04-25T08:31:31Z</time></trkpt><trkpt lat="44.01072632680468" lon="7.990001033702848"><ele>676.0</ele><time>2026-04-25T08:31:32Z</time></trkpt><trkpt lat="44.010796482232934" lon="7.989900770480033"><ele>676.0</ele><time>2026-04-25T08:31:33Z</time></trkpt><trkpt lat="44.01082305997284" lon="7.989758737279027"><ele>676.0</ele><time>2026-04-25T08:31:34Z</time></trkpt><trkpt lat="44.0108346366296" lon="7.989605967716206"><ele>676.0</ele><time>2026-04-25T08:31:35Z</time></trkpt><trkpt lat="44.010813122776355" lon="7.989447996660756"><ele>676.0</ele><time>2026-04-25T08:31:36Z</time></trkpt><trkpt lat="44.0107750318213" lon="7.98928741926494"><ele>676.0</ele><time>2026-04-25T08:31:37Z</time></trkpt><trkpt lat="44.01072442302893" lon="7.98912702339799"><ele>676.0</ele><time>2026-04-25T08:31:37.999Z</time></trkpt><trkpt lat="44.01067503594455" lon="7.988974015247292"><ele>680.0</ele><time>2026-04-25T08:31:38.999Z</time></trkpt><trkpt lat="44.010635408617624" lon="7.988831420329092"><ele>684.0</ele><time>2026-04-25T08:31:39.999Z</time></trkpt><trkpt lat="44.01061320322692" lon="7.988684490956574"><ele>688.0</ele><time>2026-04-25T08:31:40.999Z</time></trkpt><trkpt lat="44.01063502913308" lon="7.988525706465194"><ele>692.0</ele><time>2026-04-25T08:31:41.999Z</time></trkpt><trkpt lat="44.010681922546155" lon="7.988355843074399"><ele>691.8</ele><time>2026-04-25T08:31:42.999Z</time></trkpt><trkpt lat="44.01072088153157" lon="7.9882141635042565"><ele>691.6</ele><time>2026-04-25T08:31:43.999Z</time></trkpt><trkpt lat="44.01076804328628" lon="7.988078468566876"><ele>691.4</ele><time>2026-04-25T08:31:44.999Z</time></trkpt><trkpt lat="44.01083198735331" lon="7.9879356733370885"><ele>691.1999999999999</ele><time>2026-04-25T08:31:45.999Z</time></trkpt><trkpt lat="44.01086583155998" lon="7.98780499596941"><ele>691.0</ele><time>2026-04-25T08:31:46.999Z</time></trkpt><trkpt lat="44.010865600981106" lon="7.98765028510182"><ele>688.25</ele><time>2026-04-25T08:31:47.999Z</time></trkpt><trkpt lat="44.010836949451615" lon="7.987482278284683"><ele>685.5</ele><time>2026-04-25T08:31:48.999Z</time></trkpt><trkpt lat="44.010791175247796" lon="7.987324198579677"><ele>682.75</ele><time>2026-04-25T08:31:49.999Z</time></trkpt><trkpt lat="44.01077133190197" lon="7.987161391095427"><ele>680.0</ele><time>2026-04-25T08:31:50.999Z</time></trkpt><trkpt lat="44.0107856655917" lon="7.9869915316772655"><ele>680.0</ele><time>2026-04-25T08:31:51.999Z</time></trkpt><trkpt lat="44.0108006289484" lon="7.9868117607108875"><ele>680.0</ele><time>2026-04-25T08:31:52.999Z</time></trkpt><trkpt lat="44.010818014861705" lon="7.986635451871707"><ele>680.0</ele><time>2026-04-25T08:31:53.999Z</time></trkpt><trkpt lat="44.01083781953551" lon="7.986469576921673"><ele>680.0</ele><time>2026-04-25T08:31:54.999Z</time></trkpt><trkpt lat="44.01085299966446" lon="7.986312952693894"><ele>676.8</ele><time>2026-04-25T08:31:55.999Z</time></trkpt><trkpt lat="44.010889296881516" lon="7.9861725529306"><ele>673.6</ele><time>2026-04-25T08:31:56.999Z</time></trkpt><trkpt lat="44.010946860642285" lon="7.98605583309603"><ele>670.4000000000001</ele><time>2026-04-25T08:31:57.999Z</time></trkpt><trkpt lat="44.011022025479846" lon="7.985970589720099"><ele>667.2</ele><time>2026-04-25T08:31:58.999Z</time></trkpt><trkpt lat="44.01110881909755" lon="7.985903842933958"><ele>664.0</ele><time>2026-04-25T08:31:59.999Z</time></trkpt><trkpt lat="44.011197782320224" lon="7.985838034890178"><ele>664.0</ele><time>2026-04-25T08:32:00.999Z</time></trkpt><trkpt lat="44.01128973957187" lon="7.9857633719364784"><ele>664.0</ele><time>2026-04-25T08:32:01.999Z</time></trkpt><trkpt lat="44.01133716385172" lon="7.985675201485256"><ele>664.0</ele><time>2026-04-25T08:32:02.999Z</time></trkpt><trkpt lat="44.011391131285116" lon="7.985591865298138"><ele>664.0</ele><time>2026-04-25T08:32:03.999Z</time></trkpt><trkpt lat="44.011441544673374" lon="7.9855155717244415"><ele>664.0</ele><time>2026-04-25T08:32:04.999Z</time></trkpt><trkpt lat="44.01148496721036" lon="7.985433686557664"><ele>664.0</ele><time>2026-04-25T08:32:05.999Z</time></trkpt><trkpt lat="44.011520757430894" lon="7.985351112365259"><ele>664.0</ele><time>2026-04-25T08:32:06.999Z</time></trkpt><trkpt lat="44.01155951372873" lon="7.985281608112198"><ele>664.0</ele><time>2026-04-25T08:32:07.999Z</time></trkpt><trkpt lat="44.01165059367747" lon="7.985201391319881"><ele>664.0</ele><time>2026-04-25T08:32:09.999Z</time></trkpt><trkpt lat="44.011716694664955" lon="7.985143689428338"><ele>664.0</ele><time>2026-04-25T08:32:12.999Z</time></trkpt><trkpt lat="44.01160962562487" lon="7.9852006180182125"><ele>664.0</ele><time>2026-04-25T08:32:15.999Z</time></trkpt><trkpt lat="44.01155345667847" lon="7.985282144047138"><ele>664.0</ele><time>2026-04-25T08:32:16.999Z</time></trkpt><trkpt lat="44.01147367772189" lon="7.985397228200935"><ele>664.0</ele><time>2026-04-25T08:32:17.999Z</time></trkpt><trkpt lat="44.01137719439302" lon="7.985554698572536"><ele>664.0</ele><time>2026-04-25T08:32:18.999Z</time></trkpt><trkpt lat="44.01128131599227" lon="7.985707591726128"><ele>664.0</ele><time>2026-04-25T08:32:19.999Z</time></trkpt><trkpt lat="44.01120825874942" lon="7.985806346745777"><ele>664.0</ele><time>2026-04-25T08:32:20.999Z</time></trkpt><trkpt lat="44.01115017934685" lon="7.985887115211723"><ele>664.0</ele><time>2026-04-25T08:32:21.999Z</time></trkpt><trkpt lat="44.011089077649885" lon="7.985915995777086"><ele>664.0</ele><time>2026-04-25T08:32:22.999Z</time></trkpt><trkpt lat="44.0110280629856" lon="7.9859703078563"><ele>664.0</ele><time>2026-04-25T08:32:24.999Z</time></trkpt><trkpt lat="44.01102980088264" lon="7.985848004170552"><ele>664.0</ele><time>2026-04-25T08:32:27.999Z</time></trkpt><trkpt lat="44.01109496973036" lon="7.9857561027147295"><ele>664.0</ele><time>2026-04-25T08:32:29.999Z</time></trkpt><trkpt lat="44.01114948320431" lon="7.985658894291412"><ele>664.0</ele><time>2026-04-25T08:32:30.999Z</time></trkpt><trkpt lat="44.01118599179119" lon="7.985567683345183"><ele>664.0</ele><time>2026-04-25T08:32:31.999Z</time></trkpt><trkpt lat="44.01121192754254" lon="7.985470627804714"><ele>664.0</ele><time>2026-04-25T08:32:32.999Z</time></trkpt><trkpt lat="44.011223543054186" lon="7.985359757107575"><ele>664.0</ele><time>2026-04-25T08:32:33.999Z</time></trkpt><trkpt lat="44.01123005437005" lon="7.985228919139047"><ele>664.0</ele><time>2026-04-25T08:32:34.999Z</time></trkpt><trkpt lat="44.011253742559084" lon="7.985101050859181"><ele>664.0</ele><time>2026-04-25T08:32:35.999Z</time></trkpt><trkpt lat="44.01128008934075" lon="7.985012238006111"><ele>664.0</ele><time>2026-04-25T08:32:37Z</time></trkpt><trkpt lat="44.01131687697715" lon="7.984910546338745"><ele>665.6</ele><time>2026-04-25T08:32:38Z</time></trkpt><trkpt lat="44.01133043452155" lon="7.984824568355655"><ele>667.2</ele><time>2026-04-25T08:32:39Z</time></trkpt><trkpt lat="44.01127194380796" lon="7.9847133714090015"><ele>668.8000000000001</ele><time>2026-04-25T08:32:41Z</time></trkpt><trkpt lat="44.011190476770324" lon="7.984752260368449"><ele>670.4000000000001</ele><time>2026-04-25T08:32:42Z</time></trkpt><trkpt lat="44.01109273344553" lon="7.984862401158937"><ele>672.0</ele><time>2026-04-25T08:32:43Z</time></trkpt><trkpt lat="44.011020678518" lon="7.984916217836096"><ele>672.0</ele><time>2026-04-25T08:32:44Z</time></trkpt><trkpt lat="44.01095742835578" lon="7.984922887290452"><ele>672.0</ele><time>2026-04-25T08:32:45Z</time></trkpt><trkpt lat="44.01092181646657" lon="7.984847321547643"><ele>672.0</ele><time>2026-04-25T08:32:46Z</time></trkpt><trkpt lat="44.01092423787481" lon="7.984732914369676"><ele>672.0</ele><time>2026-04-25T08:32:47Z</time></trkpt><trkpt lat="44.010986187629435" lon="7.9846317052746585"><ele>672.0</ele><time>2026-04-25T08:32:48Z</time></trkpt><trkpt lat="44.01108437259156" lon="7.984578563562382"><ele>672.0</ele><time>2026-04-25T08:32:49Z</time></trkpt><trkpt lat="44.0111885184097" lon="7.98446656108541"><ele>672.0</ele><time>2026-04-25T08:32:50Z</time></trkpt><trkpt lat="44.01127198354898" lon="7.984405511824123"><ele>672.0</ele><time>2026-04-25T08:32:51Z</time></trkpt><trkpt lat="44.011362295950065" lon="7.984323440247739"><ele>672.0</ele><time>2026-04-25T08:32:52Z</time></trkpt><trkpt lat="44.01144684797911" lon="7.9842644757520995"><ele>672.0</ele><time>2026-04-25T08:32:53Z</time></trkpt><trkpt lat="44.01152638393296" lon="7.984262993102306"><ele>672.0</ele><time>2026-04-25T08:32:54Z</time></trkpt><trkpt lat="44.01159609524551" lon="7.984242773455834"><ele>672.0</ele><time>2026-04-25T08:32:55Z</time></trkpt><trkpt lat="44.011669007844134" lon="7.984205186036886"><ele>672.6666666666666</ele><time>2026-04-25T08:32:56Z</time></trkpt><trkpt lat="44.011767248016604" lon="7.984147739608336"><ele>673.3333333333334</ele><time>2026-04-25T08:33:41.999Z</time></trkpt><trkpt lat="44.011829741626755" lon="7.984039672437319"><ele>674.0</ele><time>2026-04-25T08:33:42.999Z</time></trkpt><trkpt lat="44.01188097817368" lon="7.983961378373382"><ele>674.6666666666667</ele><time>2026-04-25T08:33:43.999Z</time></trkpt><trkpt lat="44.01192814890272" lon="7.983887559598749"><ele>675.3333333333334</ele><time>2026-04-25T08:33:44.999Z</time></trkpt><trkpt lat="44.011911720410794" lon="7.983794496113444"><ele>676.0</ele><time>2026-04-25T08:33:45.999Z</time></trkpt><trkpt lat="44.0119104189442" lon="7.9836873274390845"><ele>676.0</ele><time>2026-04-25T08:33:46.999Z</time></trkpt><trkpt lat="44.011933419751706" lon="7.983563078122218"><ele>676.0</ele><time>2026-04-25T08:33:47.999Z</time></trkpt><trkpt lat="44.01196348248212" lon="7.983436632720153"><ele>676.0</ele><time>2026-04-25T08:33:48.999Z</time></trkpt><trkpt lat="44.01200706846463" lon="7.983331714922147"><ele>676.0</ele><time>2026-04-25T08:33:49.999Z</time></trkpt><trkpt lat="44.01208301880217" lon="7.983273029157175"><ele>676.0</ele><time>2026-04-25T08:33:50.999Z</time></trkpt><trkpt lat="44.01217042043152" lon="7.983207226680356"><ele>674.3333333333334</ele><time>2026-04-25T08:33:51.999Z</time></trkpt><trkpt lat="44.01222451559083" lon="7.983139331104736"><ele>672.6666666666667</ele><time>2026-04-25T08:33:52.999Z</time></trkpt><trkpt lat="44.012262303618066" lon="7.983042713376913"><ele>671.0</ele><time>2026-04-25T08:33:53.999Z</time></trkpt><trkpt lat="44.012312045145244" lon="7.98293129597484"><ele>669.3333333333334</ele><time>2026-04-25T08:33:54.999Z</time></trkpt><trkpt lat="44.012376279390544" lon="7.982834251111206"><ele>667.6666666666666</ele><time>2026-04-25T08:33:55.999Z</time></trkpt><trkpt lat="44.01245176404638" lon="7.982775630960794"><ele>666.0</ele><time>2026-04-25T08:33:56.999Z</time></trkpt><trkpt lat="44.012534202636765" lon="7.98273150002349"><ele>666.0</ele><time>2026-04-25T08:33:57.999Z</time></trkpt><trkpt lat="44.01262096202324" lon="7.982697885199345"><ele>666.0</ele><time>2026-04-25T08:33:58.999Z</time></trkpt><trkpt lat="44.01268297593299" lon="7.982672801891762"><ele>666.0</ele><time>2026-04-25T08:33:59.999Z</time></trkpt><trkpt lat="44.01277227505426" lon="7.982562651307316"><ele>666.0</ele><time>2026-04-25T08:34:01.999Z</time></trkpt><trkpt lat="44.012816240990155" lon="7.982486444744432"><ele>666.0</ele><time>2026-04-25T08:34:02.999Z</time></trkpt><trkpt lat="44.01290492681631" lon="7.982393078844011"><ele>674.0</ele><time>2026-04-25T08:34:04.999Z</time></trkpt><trkpt lat="44.01300732744694" lon="7.982321426281075"><ele>682.0</ele><time>2026-04-25T08:34:06.999Z</time></trkpt><trkpt lat="44.013121328728026" lon="7.982234273065011"><ele>690.0</ele><time>2026-04-25T08:34:08.999Z</time></trkpt><trkpt lat="44.013196040532165" lon="7.982142395182696"><ele>698.0</ele><time>2026-04-25T08:34:10.999Z</time></trkpt><trkpt lat="44.01329719068849" lon="7.981991076001927"><ele>695.4</ele><time>2026-04-25T08:34:12.999Z</time></trkpt><trkpt lat="44.01332949039965" lon="7.981824973167754"><ele>692.8</ele><time>2026-04-25T08:34:13.999Z</time></trkpt><trkpt lat="44.013370098642355" lon="7.9817095849399005"><ele>690.2</ele><time>2026-04-25T08:34:14.999Z</time></trkpt><trkpt lat="44.01344733589687" lon="7.981648449000389"><ele>687.6</ele><time>2026-04-25T08:34:15.999Z</time></trkpt><trkpt lat="44.01352812133148" lon="7.981640905297754"><ele>685.0</ele><time>2026-04-25T08:34:16.999Z</time></trkpt><trkpt lat="44.0136068892933" lon="7.981661945636452"><ele>685.0</ele><time>2026-04-25T08:34:17.999Z</time></trkpt><trkpt lat="44.01368794076519" lon="7.981623353527552"><ele>685.0</ele><time>2026-04-25T08:34:18.999Z</time></trkpt><trkpt lat="44.01378773291795" lon="7.981506172576829"><ele>685.0</ele><time>2026-04-25T08:34:20.999Z</time></trkpt><trkpt lat="44.013843750410594" lon="7.981400129121838"><ele>685.0</ele><time>2026-04-25T08:34:21.999Z</time></trkpt><trkpt lat="44.01390927728043" lon="7.98132239133634"><ele>685.0</ele><time>2026-04-25T08:34:22.999Z</time></trkpt><trkpt lat="44.013990863888495" lon="7.9812544178270315"><ele>685.0</ele><time>2026-04-25T08:34:23.999Z</time></trkpt><trkpt lat="44.01407252016912" lon="7.981169568639447"><ele>685.0</ele><time>2026-04-25T08:34:24.999Z</time></trkpt><trkpt lat="44.014144925340176" lon="7.981117268002204"><ele>685.0</ele><time>2026-04-25T08:34:25.999Z</time></trkpt><trkpt lat="44.01422386437666" lon="7.981071232241655"><ele>685.0</ele><time>2026-04-25T08:34:26.999Z</time></trkpt><trkpt lat="44.01430636740337" lon="7.9810487945494675"><ele>685.0</ele><time>2026-04-25T08:34:27.999Z</time></trkpt><trkpt lat="44.01441899484504" lon="7.981000415244295"><ele>685.1666666666667</ele><time>2026-04-25T08:34:29.999Z</time></trkpt><trkpt lat="44.01449323144937" lon="7.9809452184979035"><ele>685.3333333333334</ele><time>2026-04-25T08:34:30.999Z</time></trkpt><trkpt lat="44.01455319618329" lon="7.980858735578377"><ele>685.5</ele><time>2026-04-25T08:34:31.999Z</time></trkpt><trkpt lat="44.014612833479084" lon="7.980773918820134"><ele>685.6666666666666</ele><time>2026-04-25T08:34:32.999Z</time></trkpt><trkpt lat="44.0146809658877" lon="7.980711628309594"><ele>685.8333333333333</ele><time>2026-04-25T08:34:33.999Z</time></trkpt><trkpt lat="44.0147701620114" lon="7.980786948988161"><ele>686.0</ele><time>2026-04-25T08:34:34.999Z</time></trkpt><trkpt lat="44.01484266841986" lon="7.98085636739342"><ele>683.8333333333333</ele><time>2026-04-25T08:34:35.999Z</time></trkpt><trkpt lat="44.014903387821214" lon="7.9809259151270835"><ele>681.6666666666666</ele><time>2026-04-25T08:34:36.999Z</time></trkpt><trkpt lat="44.0150154619952" lon="7.980898513345232"><ele>679.5</ele><time>2026-04-25T08:34:38.999Z</time></trkpt><trkpt lat="44.01505186559434" lon="7.980823272820169"><ele>677.3333333333334</ele><time>2026-04-25T08:34:39.999Z</time></trkpt><trkpt lat="44.01512843880929" lon="7.980760258192778"><ele>675.1666666666667</ele><time>2026-04-25T08:34:40.999Z</time></trkpt><trkpt lat="44.01521035847892" lon="7.980748433072147"><ele>673.0</ele><time>2026-04-25T08:34:41.999Z</time></trkpt><trkpt lat="44.01527461968975" lon="7.980719887329894"><ele>673.0</ele><time>2026-04-25T08:34:43Z</time></trkpt><trkpt lat="44.015310290190996" lon="7.980645098159412"><ele>673.0</ele><time>2026-04-25T08:34:44Z</time></trkpt><trkpt lat="44.01535826894639" lon="7.980564476585299"><ele>673.0</ele><time>2026-04-25T08:34:45Z</time></trkpt><trkpt lat="44.015428363446354" lon="7.980554466612507"><ele>673.0</ele><time>2026-04-25T08:34:46Z</time></trkpt><trkpt lat="44.01551241940546" lon="7.980567860940415"><ele>673.0</ele><time>2026-04-25T08:34:47Z</time></trkpt><trkpt lat="44.015594231860064" lon="7.980549918969117"><ele>673.0</ele><time>2026-04-25T08:34:48Z</time></trkpt><trkpt lat="44.015672487499906" lon="7.980550307453691"><ele>673.0</ele><time>2026-04-25T08:34:49Z</time></trkpt><trkpt lat="44.015755706422496" lon="7.980608228173844"><ele>673.0</ele><time>2026-04-25T08:34:50Z</time></trkpt><trkpt lat="44.01582931370538" lon="7.980669806535533"><ele>673.0</ele><time>2026-04-25T08:34:51Z</time></trkpt><trkpt lat="44.01590878675373" lon="7.980718040261255"><ele>673.0</ele><time>2026-04-25T08:34:52Z</time></trkpt><trkpt lat="44.01599485244452" lon="7.98076736360226"><ele>673.0</ele><time>2026-04-25T08:34:53Z</time></trkpt><trkpt lat="44.016082782532536" lon="7.980836953391084"><ele>665.4</ele><time>2026-04-25T08:34:54Z</time></trkpt><trkpt lat="44.01614791500948" lon="7.980921850870361"><ele>657.8</ele><time>2026-04-25T08:34:55Z</time></trkpt><trkpt lat="44.016219943981554" lon="7.981015086822679"><ele>650.2</ele><time>2026-04-25T08:34:56Z</time></trkpt><trkpt lat="44.01630354874112" lon="7.98108765578579"><ele>642.6</ele><time>2026-04-25T08:34:57Z</time></trkpt><trkpt lat="44.01639259161914" lon="7.981174719056416"><ele>635.0</ele><time>2026-04-25T08:34:58Z</time></trkpt><trkpt lat="44.01646006929867" lon="7.981249605462916"><ele>635.0</ele><time>2026-04-25T08:34:59Z</time></trkpt><trkpt lat="44.016502080108864" lon="7.981343905086958"><ele>635.0</ele><time>2026-04-25T08:35:00Z</time></trkpt><trkpt lat="44.01652194878413" lon="7.981468653110778"><ele>635.0</ele><time>2026-04-25T08:35:01Z</time></trkpt><trkpt lat="44.01654570807268" lon="7.98159339266726"><ele>635.0</ele><time>2026-04-25T08:35:02Z</time></trkpt><trkpt lat="44.01658239430259" lon="7.981731543646266"><ele>635.0</ele><time>2026-04-25T08:35:03Z</time></trkpt><trkpt lat="44.01660008106006" lon="7.981864303245157"><ele>637.5</ele><time>2026-04-25T08:35:04Z</time></trkpt><trkpt lat="44.01660164573476" lon="7.98198195255191"><ele>640.0</ele><time>2026-04-25T08:35:05Z</time></trkpt><trkpt lat="44.01662783374503" lon="7.982088635871549"><ele>642.5</ele><time>2026-04-25T08:35:06Z</time></trkpt><trkpt lat="44.01668162196747" lon="7.982204016487619"><ele>645.0</ele><time>2026-04-25T08:35:07Z</time></trkpt><trkpt lat="44.01673655836307" lon="7.9823118533721535"><ele>647.5</ele><time>2026-04-25T08:35:08Z</time></trkpt><trkpt lat="44.01678899977992" lon="7.982387557070052"><ele>650.0</ele><time>2026-04-25T08:35:09Z</time></trkpt><trkpt lat="44.016862106540216" lon="7.982429102445194"><ele>650.0</ele><time>2026-04-25T08:35:10Z</time></trkpt><trkpt lat="44.016951619237354" lon="7.982476907331724"><ele>650.0</ele><time>2026-04-25T08:35:11Z</time></trkpt><trkpt lat="44.01702351131866" lon="7.982532317392547"><ele>650.0</ele><time>2026-04-25T08:35:12Z</time></trkpt><trkpt lat="44.01708931269866" lon="7.9825407749262665"><ele>650.0</ele><time>2026-04-25T08:35:13Z</time></trkpt><trkpt lat="44.0171815487605" lon="7.9824305302039"><ele>650.0</ele><time>2026-04-25T08:35:15Z</time></trkpt><trkpt lat="44.017210356446185" lon="7.982309915855201"><ele>650.0</ele><time>2026-04-25T08:35:16Z</time></trkpt><trkpt lat="44.017217803534955" lon="7.982148580912856"><ele>650.0</ele><time>2026-04-25T08:35:17Z</time></trkpt><trkpt lat="44.017220605122475" lon="7.982001044868629"><ele>650.0</ele><time>2026-04-25T08:35:18Z</time></trkpt><trkpt lat="44.01722185978465" lon="7.981876792360178"><ele>650.0</ele><time>2026-04-25T08:35:19Z</time></trkpt><trkpt lat="44.01727889073077" lon="7.981789147777258"><ele>650.0</ele><time>2026-04-25T08:35:20Z</time></trkpt><trkpt lat="44.017376262558074" lon="7.981706317880605"><ele>654.0</ele><time>2026-04-25T08:35:21Z</time></trkpt><trkpt lat="44.01743350226851" lon="7.981583599637755"><ele>658.0</ele><time>2026-04-25T08:35:22Z</time></trkpt><trkpt lat="44.01753074777026" lon="7.981434882930325"><ele>662.0</ele><time>2026-04-25T08:35:23Z</time></trkpt><trkpt lat="44.017578181506295" lon="7.9813077683496365"><ele>666.0</ele><time>2026-04-25T08:35:24Z</time></trkpt><trkpt lat="44.017590587165884" lon="7.981218900201477"><ele>670.0</ele><time>2026-04-25T08:35:25Z</time></trkpt><trkpt lat="44.01774892680184" lon="7.981179994667349"><ele>671.0</ele><time>2026-04-25T08:35:27Z</time></trkpt><trkpt lat="44.01783881803715" lon="7.981217427448049"><ele>672.0</ele><time>2026-04-25T08:35:28Z</time></trkpt><trkpt lat="44.017920462717214" lon="7.98118230859959"><ele>673.0</ele><time>2026-04-25T08:35:30Z</time></trkpt><trkpt lat="44.01793770007371" lon="7.981090181627016"><ele>674.0</ele><time>2026-04-25T08:35:31Z</time></trkpt><trkpt lat="44.0179526425461" lon="7.980996526586946"><ele>675.0</ele><time>2026-04-25T08:35:32Z</time></trkpt><trkpt lat="44.01795289621153" lon="7.980890906020669"><ele>676.0</ele><time>2026-04-25T08:35:33Z</time></trkpt><trkpt lat="44.01793745078941" lon="7.98072805977892"><ele>679.8</ele><time>2026-04-25T08:35:34Z</time></trkpt><trkpt lat="44.01795506923046" lon="7.980594207319301"><ele>683.5999999999999</ele><time>2026-04-25T08:35:35Z</time></trkpt><trkpt lat="44.01796553241121" lon="7.980489750886911"><ele>687.4</ele><time>2026-04-25T08:35:36Z</time></trkpt><trkpt lat="44.018031672938776" lon="7.980393927938709"><ele>691.2</ele><time>2026-04-25T08:35:37Z</time></trkpt><trkpt lat="44.018187676769664" lon="7.980291721389688"><ele>695.0</ele><time>2026-04-25T08:35:38.999Z</time></trkpt><trkpt lat="44.018276319762165" lon="7.980326392828628"><ele>692.1666666666666</ele><time>2026-04-25T08:35:39.999Z</time></trkpt><trkpt lat="44.018387474191734" lon="7.98034001588695"><ele>689.3333333333333</ele><time>2026-04-25T08:35:42.999Z</time></trkpt><trkpt lat="44.018432277622615" lon="7.980248260624357"><ele>686.5</ele><time>2026-04-25T08:35:43.999Z</time></trkpt><trkpt lat="44.01845218523552" lon="7.98014401803902"><ele>683.6666666666666</ele><time>2026-04-25T08:35:44.999Z</time></trkpt><trkpt lat="44.01847863445496" lon="7.98002741856564"><ele>680.8333333333334</ele><time>2026-04-25T08:35:45.999Z</time></trkpt><trkpt lat="44.01851233422939" lon="7.979911814573628"><ele>678.0</ele><time>2026-04-25T08:35:46.999Z</time></trkpt><trkpt lat="44.018579703804406" lon="7.979830088890194"><ele>678.0</ele><time>2026-04-25T08:35:47.999Z</time></trkpt><trkpt lat="44.01864931804712" lon="7.979750691974888"><ele>678.0</ele><time>2026-04-25T08:35:48.999Z</time></trkpt><trkpt lat="44.01876816836466" lon="7.979704390715487"><ele>678.0</ele><time>2026-04-25T08:35:49.999Z</time></trkpt><trkpt lat="44.01883284739113" lon="7.97968789809"><ele>678.0</ele><time>2026-04-25T08:35:50.999Z</time></trkpt><trkpt lat="44.0189061761053" lon="7.9796790938307565"><ele>678.0</ele><time>2026-04-25T08:35:51.999Z</time></trkpt><trkpt lat="44.019004375599124" lon="7.979678211798264"><ele>678.0</ele><time>2026-04-25T08:35:52.999Z</time></trkpt><trkpt lat="44.01910336459564" lon="7.979696681057063"><ele>678.0</ele><time>2026-04-25T08:35:53.999Z</time></trkpt><trkpt lat="44.01919421564582" lon="7.979685434637626"><ele>678.0</ele><time>2026-04-25T08:35:54.999Z</time></trkpt><trkpt lat="44.01928562229509" lon="7.979838151695458"><ele>678.0</ele><time>2026-04-25T08:35:56.999Z</time></trkpt><trkpt lat="44.01931540079457" lon="7.979944219608631"><ele>678.0</ele><time>2026-04-25T08:35:57.999Z</time></trkpt><trkpt lat="44.01936742681659" lon="7.980044752180445"><ele>670.0</ele><time>2026-04-25T08:35:58.999Z</time></trkpt><trkpt lat="44.01942696032152" lon="7.980122488866776"><ele>662.0</ele><time>2026-04-25T08:35:59.999Z</time></trkpt><trkpt lat="44.01948256798355" lon="7.980186299848237"><ele>654.0</ele><time>2026-04-25T08:36:00.999Z</time></trkpt><trkpt lat="44.01953533030585" lon="7.980246364582731"><ele>646.0</ele><time>2026-04-25T08:36:01.999Z</time></trkpt><trkpt lat="44.01959623500403" lon="7.98028017608373"><ele>638.0</ele><time>2026-04-25T08:36:02.999Z</time></trkpt><trkpt lat="44.01967321557726" lon="7.980312436095208"><ele>630.0</ele><time>2026-04-25T08:36:03.999Z</time></trkpt><trkpt lat="44.01975710158548" lon="7.98032838492163"><ele>630.0</ele><time>2026-04-25T08:36:04.999Z</time></trkpt><trkpt lat="44.01983151043371" lon="7.980318649053056"><ele>630.0</ele><time>2026-04-25T08:36:05.999Z</time></trkpt><trkpt lat="44.019900483595634" lon="7.98031397399417"><ele>630.0</ele><time>2026-04-25T08:36:06.999Z</time></trkpt><trkpt lat="44.02000214150405" lon="7.980314208479546"><ele>630.0</ele><time>2026-04-25T08:36:08.999Z</time></trkpt><trkpt lat="44.02008898476842" lon="7.980250049000539"><ele>630.0</ele><time>2026-04-25T08:36:10.999Z</time></trkpt><trkpt lat="44.020118879591706" lon="7.980154034234974"><ele>630.0</ele><time>2026-04-25T08:36:11.999Z</time></trkpt><trkpt lat="44.02017942989698" lon="7.980041069182061"><ele>636.3333333333334</ele><time>2026-04-25T08:36:12.999Z</time></trkpt><trkpt lat="44.02021851009862" lon="7.979971412773412"><ele>642.6666666666666</ele><time>2026-04-25T08:36:13.999Z</time></trkpt><trkpt lat="44.02023195492938" lon="7.979857508329042"><ele>649.0</ele><time>2026-04-25T08:36:14.999Z</time></trkpt><trkpt lat="44.02022313760923" lon="7.979770012037871"><ele>655.3333333333333</ele><time>2026-04-25T08:36:15.999Z</time></trkpt><trkpt lat="44.02023304862349" lon="7.979673590554212"><ele>661.6666666666666</ele><time>2026-04-25T08:36:16.999Z</time></trkpt><trkpt lat="44.020293834039286" lon="7.979553457141427"><ele>668.0</ele><time>2026-04-25T08:36:18.999Z</time></trkpt><trkpt lat="44.02037834703168" lon="7.979562227751259"><ele>668.0</ele><time>2026-04-25T08:36:19.999Z</time></trkpt><trkpt lat="44.02043785654324" lon="7.979447561907381"><ele>668.0</ele><time>2026-04-25T08:36:21.999Z</time></trkpt><trkpt lat="44.020478953736514" lon="7.979351403471507"><ele>668.0</ele><time>2026-04-25T08:36:22.999Z</time></trkpt><trkpt lat="44.02053474497656" lon="7.979250350350497"><ele>668.0</ele><time>2026-04-25T08:36:23.999Z</time></trkpt><trkpt lat="44.02059966984385" lon="7.979190090069141"><ele>668.0</ele><time>2026-04-25T08:36:24.999Z</time></trkpt><trkpt lat="44.02066925022094" lon="7.979187869450906"><ele>668.0</ele><time>2026-04-25T08:36:25.999Z</time></trkpt><trkpt lat="44.02075312303516" lon="7.979206760477629"><ele>669.1666666666666</ele><time>2026-04-25T08:36:26.999Z</time></trkpt><trkpt lat="44.02084918784245" lon="7.979205451721355"><ele>670.3333333333333</ele><time>2026-04-25T08:36:27.999Z</time></trkpt><trkpt lat="44.02090684021007" lon="7.979153806776703"><ele>671.5</ele><time>2026-04-25T08:36:28.999Z</time></trkpt><trkpt lat="44.02095573328977" lon="7.979059716593357"><ele>672.6666666666666</ele><time>2026-04-25T08:36:29.999Z</time></trkpt><trkpt lat="44.021018582941196" lon="7.9789643984811525"><ele>673.8333333333334</ele><time>2026-04-25T08:36:30.999Z</time></trkpt><trkpt lat="44.02107922561859" lon="7.978906922052278"><ele>675.0</ele><time>2026-04-25T08:36:31.999Z</time></trkpt><trkpt lat="44.021143109716704" lon="7.978899861015102"><ele>675.0</ele><time>2026-04-25T08:36:32.999Z</time></trkpt><trkpt lat="44.02129364340297" lon="7.979004835902321"><ele>675.0</ele><time>2026-04-25T08:36:34.999Z</time></trkpt><trkpt lat="44.02138943310817" lon="7.979118116401116"><ele>675.0</ele><time>2026-04-25T08:36:35.999Z</time></trkpt><trkpt lat="44.02148637137168" lon="7.979210814184184"><ele>675.0</ele><time>2026-04-25T08:36:36.999Z</time></trkpt><trkpt lat="44.02159980693461" lon="7.979296034525264"><ele>668.4</ele><time>2026-04-25T08:36:37.999Z</time></trkpt><trkpt lat="44.0216798294182" lon="7.979367971214966"><ele>661.8</ele><time>2026-04-25T08:36:38.999Z</time></trkpt><trkpt lat="44.02174344199125" lon="7.979427553227221"><ele>655.2</ele><time>2026-04-25T08:36:39.999Z</time></trkpt><trkpt lat="44.021856697042814" lon="7.979451903934745"><ele>648.6</ele><time>2026-04-25T08:36:41.999Z</time></trkpt><trkpt lat="44.021928285440104" lon="7.97940524515651"><ele>642.0</ele><time>2026-04-25T08:36:42.999Z</time></trkpt><trkpt lat="44.02202763840562" lon="7.979355325387606"><ele>642.0</ele><time>2026-04-25T08:36:43.999Z</time></trkpt><trkpt lat="44.02212242073545" lon="7.979366657709652"><ele>642.0</ele><time>2026-04-25T08:36:44.999Z</time></trkpt><trkpt lat="44.022189214742525" lon="7.979437602251993"><ele>642.0</ele><time>2026-04-25T08:36:45.999Z</time></trkpt><trkpt lat="44.02224850344098" lon="7.979503188769521"><ele>642.0</ele><time>2026-04-25T08:36:46.999Z</time></trkpt><trkpt lat="44.02229617604395" lon="7.979566479220669"><ele>642.0</ele><time>2026-04-25T08:36:47.999Z</time></trkpt><trkpt lat="44.02236218403293" lon="7.979605406346546"><ele>642.0</ele><time>2026-04-25T08:36:49Z</time></trkpt><trkpt lat="44.022429486796376" lon="7.979626667830813"><ele>645.0</ele><time>2026-04-25T08:36:50Z</time></trkpt><trkpt lat="44.02249087010167" lon="7.9796674474761184"><ele>648.0</ele><time>2026-04-25T08:36:51Z</time></trkpt><trkpt lat="44.022550074132944" lon="7.979725095280162"><ele>651.0</ele><time>2026-04-25T08:36:52Z</time></trkpt><trkpt lat="44.022614455690714" lon="7.979798994046132"><ele>654.0</ele><time>2026-04-25T08:36:53Z</time></trkpt><trkpt lat="44.02267774328667" lon="7.97984749792592"><ele>657.0</ele><time>2026-04-25T08:36:54Z</time></trkpt><trkpt lat="44.022758688190315" lon="7.979857218591922"><ele>660.0</ele><time>2026-04-25T08:36:55Z</time></trkpt><trkpt lat="44.022850877520405" lon="7.979855355037581"><ele>660.0</ele><time>2026-04-25T08:36:56Z</time></trkpt><trkpt lat="44.022937676021144" lon="7.979900104574461"><ele>660.0</ele><time>2026-04-25T08:36:57Z</time></trkpt><trkpt lat="44.023010238717696" lon="7.98001052235955"><ele>660.0</ele><time>2026-04-25T08:36:58Z</time></trkpt><trkpt lat="44.023066361760556" lon="7.9801385744950535"><ele>660.0</ele><time>2026-04-25T08:36:59Z</time></trkpt><trkpt lat="44.02313039837185" lon="7.9802383397342185"><ele>660.0</ele><time>2026-04-25T08:37:00Z</time></trkpt><trkpt lat="44.023213563191625" lon="7.980329922401855"><ele>660.4</ele><time>2026-04-25T08:37:01Z</time></trkpt><trkpt lat="44.02330377653331" lon="7.980407609286598"><ele>660.8</ele><time>2026-04-25T08:37:02Z</time></trkpt><trkpt lat="44.02339828966124" lon="7.980493616332981"><ele>661.2</ele><time>2026-04-25T08:37:03Z</time></trkpt><trkpt lat="44.02348079600489" lon="7.980547326187151"><ele>661.6</ele><time>2026-04-25T08:37:04Z</time></trkpt><trkpt lat="44.02356125900642" lon="7.980592443784337"><ele>662.0</ele><time>2026-04-25T08:37:05Z</time></trkpt><trkpt lat="44.023641964704254" lon="7.980608964277026"><ele>662.0</ele><time>2026-04-25T08:37:06Z</time></trkpt><trkpt lat="44.02372188714175" lon="7.980638913627455"><ele>662.0</ele><time>2026-04-25T08:37:07Z</time></trkpt><trkpt lat="44.023813643147044" lon="7.980663368386093"><ele>662.0</ele><time>2026-04-25T08:37:08Z</time></trkpt><trkpt lat="44.02388731795694" lon="7.9806975964932345"><ele>662.0</ele><time>2026-04-25T08:37:09Z</time></trkpt><trkpt lat="44.02395974195646" lon="7.980768255658984"><ele>662.0</ele><time>2026-04-25T08:37:10Z</time></trkpt><trkpt lat="44.02403280774448" lon="7.980858380358492"><ele>662.0</ele><time>2026-04-25T08:37:11Z</time></trkpt><trkpt lat="44.024105800408286" lon="7.980973224026141"><ele>660.6</ele><time>2026-04-25T08:37:12Z</time></trkpt><trkpt lat="44.024186237107486" lon="7.98108314326445"><ele>659.2</ele><time>2026-04-25T08:37:13Z</time></trkpt><trkpt lat="44.024254241635994" lon="7.981180654906268"><ele>657.8</ele><time>2026-04-25T08:37:14Z</time></trkpt><trkpt lat="44.024293908396835" lon="7.9813057992043985"><ele>656.4</ele><time>2026-04-25T08:37:15Z</time></trkpt><trkpt lat="44.02433074266246" lon="7.9814488181934315"><ele>655.0</ele><time>2026-04-25T08:37:16Z</time></trkpt><trkpt lat="44.024370510335274" lon="7.981577462502738"><ele>651.4</ele><time>2026-04-25T08:37:17Z</time></trkpt><trkpt lat="44.024394764426894" lon="7.981700266429575"><ele>647.8</ele><time>2026-04-25T08:37:18Z</time></trkpt><trkpt lat="44.02444081925201" lon="7.981830771120448"><ele>644.2</ele><time>2026-04-25T08:37:19Z</time></trkpt><trkpt lat="44.02452218798315" lon="7.981944081745925"><ele>640.6</ele><time>2026-04-25T08:37:20Z</time></trkpt><trkpt lat="44.02459812826029" lon="7.982046420563176"><ele>637.0</ele><time>2026-04-25T08:37:21Z</time></trkpt><trkpt lat="44.02467487811802" lon="7.982150203648898"><ele>637.0</ele><time>2026-04-25T08:37:22Z</time></trkpt><trkpt lat="44.02475637626722" lon="7.982249988379784"><ele>637.0</ele><time>2026-04-25T08:37:23Z</time></trkpt><trkpt lat="44.024839629388936" lon="7.982361486561359"><ele>637.0</ele><time>2026-04-25T08:37:24Z</time></trkpt><trkpt lat="44.02490580178196" lon="7.9824698854206195"><ele>637.0</ele><time>2026-04-25T08:37:25Z</time></trkpt><trkpt lat="44.024981755772345" lon="7.982538002520083"><ele>637.0</ele><time>2026-04-25T08:37:26Z</time></trkpt><trkpt lat="44.02507046726203" lon="7.982617838492374"><ele>640.6</ele><time>2026-04-25T08:37:27Z</time></trkpt><trkpt lat="44.02517221354592" lon="7.982680110746507"><ele>644.2</ele><time>2026-04-25T08:37:28Z</time></trkpt><trkpt lat="44.025271653987744" lon="7.982757348572481"><ele>647.8</ele><time>2026-04-25T08:37:29Z</time></trkpt><trkpt lat="44.025360708967746" lon="7.982846609466951"><ele>651.4</ele><time>2026-04-25T08:37:30Z</time></trkpt><trkpt lat="44.02543349353917" lon="7.9829047009696685"><ele>655.0</ele><time>2026-04-25T08:37:31Z</time></trkpt><trkpt lat="44.025496656078225" lon="7.982952496817641"><ele>655.0</ele><time>2026-04-25T08:37:32Z</time></trkpt><trkpt lat="44.025544825424426" lon="7.983013247519229"><ele>655.0</ele><time>2026-04-25T08:37:33Z</time></trkpt><trkpt lat="44.02558522290111" lon="7.983100967328978"><ele>655.0</ele><time>2026-04-25T08:37:34Z</time></trkpt><trkpt lat="44.02561286425542" lon="7.983235579368166"><ele>655.0</ele><time>2026-04-25T08:37:35Z</time></trkpt><trkpt lat="44.02562019877707" lon="7.983376718215673"><ele>655.0</ele><time>2026-04-25T08:37:36Z</time></trkpt><trkpt lat="44.0256396899638" lon="7.983524753610414"><ele>657.4</ele><time>2026-04-25T08:37:37Z</time></trkpt><trkpt lat="44.0256753981249" lon="7.983661421282725"><ele>659.8</ele><time>2026-04-25T08:37:38Z</time></trkpt><trkpt lat="44.025709392490924" lon="7.98377596918274"><ele>662.2</ele><time>2026-04-25T08:37:39Z</time></trkpt><trkpt lat="44.02575096107864" lon="7.983894394498193"><ele>664.6</ele><time>2026-04-25T08:37:40Z</time></trkpt><trkpt lat="44.02581353981257" lon="7.9840020260211055"><ele>667.0</ele><time>2026-04-25T08:37:41Z</time></trkpt><trkpt lat="44.02586875086416" lon="7.984113994425297"><ele>665.8333333333334</ele><time>2026-04-25T08:37:42Z</time></trkpt><trkpt lat="44.025927830580265" lon="7.984204529228323"><ele>664.6666666666667</ele><time>2026-04-25T08:37:43Z</time></trkpt><trkpt lat="44.025990554610914" lon="7.984286981419121"><ele>663.5</ele><time>2026-04-25T08:37:44Z</time></trkpt><trkpt lat="44.02606776105076" lon="7.984369554721758"><ele>662.3333333333334</ele><time>2026-04-25T08:37:45Z</time></trkpt><trkpt lat="44.02614725223012" lon="7.984419680052112"><ele>661.1666666666666</ele><time>2026-04-25T08:37:45.999Z</time></trkpt><trkpt lat="44.02620818112894" lon="7.984465835535852"><ele>660.0</ele><time>2026-04-25T08:37:46.999Z</time></trkpt><trkpt lat="44.026254053619766" lon="7.984566868790094"><ele>660.0</ele><time>2026-04-25T08:37:47.999Z</time></trkpt><trkpt lat="44.02629048541944" lon="7.984705947712339"><ele>660.0</ele><time>2026-04-25T08:37:48.999Z</time></trkpt><trkpt lat="44.02635776769888" lon="7.984816450146591"><ele>660.0</ele><time>2026-04-25T08:37:49.999Z</time></trkpt><trkpt lat="44.02643168589155" lon="7.984922282397487"><ele>660.0</ele><time>2026-04-25T08:37:50.999Z</time></trkpt><trkpt lat="44.026522431273776" lon="7.985008700696899"><ele>660.0</ele><time>2026-04-25T08:37:51.999Z</time></trkpt><trkpt lat="44.026610302405686" lon="7.985088599668364"><ele>659.8</ele><time>2026-04-25T08:37:52.999Z</time></trkpt><trkpt lat="44.026686931734176" lon="7.985164526863464"><ele>659.6</ele><time>2026-04-25T08:37:53.999Z</time></trkpt><trkpt lat="44.02677868648442" lon="7.9852374917884665"><ele>659.4000000000001</ele><time>2026-04-25T08:37:54.999Z</time></trkpt><trkpt lat="44.02688143220661" lon="7.985289674149345"><ele>659.2</ele><time>2026-04-25T08:37:55.999Z</time></trkpt><trkpt lat="44.026989541397995" lon="7.98531734016655"><ele>659.0</ele><time>2026-04-25T08:37:56.999Z</time></trkpt><trkpt lat="44.02709759745003" lon="7.98538263953989"><ele>659.0</ele><time>2026-04-25T08:37:57.999Z</time></trkpt><trkpt lat="44.02718927713446" lon="7.985462877864017"><ele>659.0</ele><time>2026-04-25T08:37:58.999Z</time></trkpt><trkpt lat="44.027271533499686" lon="7.98553946022982"><ele>659.0</ele><time>2026-04-25T08:37:59.999Z</time></trkpt><trkpt lat="44.02735323102447" lon="7.98560495136686"><ele>659.0</ele><time>2026-04-25T08:38:00.999Z</time></trkpt><trkpt lat="44.027444697259455" lon="7.985676698432966"><ele>659.0</ele><time>2026-04-25T08:38:01.999Z</time></trkpt><trkpt lat="44.027542615290926" lon="7.985739641561156"><ele>660.1666666666666</ele><time>2026-04-25T08:38:02.999Z</time></trkpt><trkpt lat="44.02761538402351" lon="7.985781752800565"><ele>661.3333333333333</ele><time>2026-04-25T08:38:03.999Z</time></trkpt><trkpt lat="44.027663554335255" lon="7.985846126266251"><ele>662.5</ele><time>2026-04-25T08:38:04.999Z</time></trkpt><trkpt lat="44.02770345146919" lon="7.9859463138265925"><ele>663.6666666666666</ele><time>2026-04-25T08:38:06.999Z</time></trkpt><trkpt lat="44.02776014617228" lon="7.985882560971063"><ele>664.8333333333334</ele><time>2026-04-25T08:38:56Z</time></trkpt><trkpt lat="44.02775144401442" lon="7.985764780573895"><ele>666.0</ele><time>2026-04-25T08:38:58Z</time></trkpt><trkpt lat="44.0277180957888" lon="7.985639584627687"><ele>666.0</ele><time>2026-04-25T08:39:00Z</time></trkpt><trkpt lat="44.02765276930983" lon="7.985521312639483"><ele>666.0</ele><time>2026-04-25T08:39:02Z</time></trkpt><trkpt lat="44.02755025188256" lon="7.985430660617972"><ele>666.0</ele><time>2026-04-25T08:39:04Z</time></trkpt><trkpt lat="44.02746381576444" lon="7.985307919905247"><ele>666.0</ele><time>2026-04-25T08:39:06Z</time></trkpt><trkpt lat="44.02741969793687" lon="7.985224828974674"><ele>666.0</ele><time>2026-04-25T08:39:07Z</time></trkpt><trkpt lat="44.02735473474747" lon="7.9851416064130385"><ele>665.5999999999999</ele><time>2026-04-25T08:39:08Z</time></trkpt><trkpt lat="44.02727827617898" lon="7.9850449152036385"><ele>665.2</ele><time>2026-04-25T08:39:09Z</time></trkpt><trkpt lat="44.02722374026935" lon="7.9849482403266245"><ele>664.8</ele><time>2026-04-25T08:39:10Z</time></trkpt><trkpt lat="44.02717503070152" lon="7.984864227641577"><ele>664.4000000000001</ele><time>2026-04-25T08:39:11Z</time></trkpt><trkpt lat="44.027070426011875" lon="7.984733682187681"><ele>664.0</ele><time>2026-04-25T08:39:13Z</time></trkpt><trkpt lat="44.026986851408914" lon="7.984657228138151"><ele>664.0</ele><time>2026-04-25T08:39:14Z</time></trkpt><trkpt lat="44.026924315225976" lon="7.984584255115403"><ele>664.0</ele><time>2026-04-25T08:39:15Z</time></trkpt><trkpt lat="44.02686852254173" lon="7.984500885850718"><ele>664.0</ele><time>2026-04-25T08:39:16Z</time></trkpt><trkpt lat="44.02680752610172" lon="7.984414333009584"><ele>664.0</ele><time>2026-04-25T08:39:17Z</time></trkpt><trkpt lat="44.026750598915385" lon="7.984335420414314"><ele>664.0</ele><time>2026-04-25T08:39:18Z</time></trkpt><trkpt lat="44.02671383104964" lon="7.984262294203"><ele>664.0</ele><time>2026-04-25T08:39:19Z</time></trkpt><trkpt lat="44.0267058636498" lon="7.984168541940431"><ele>664.6</ele><time>2026-04-25T08:39:20Z</time></trkpt><trkpt lat="44.02670780854931" lon="7.984059317341341"><ele>665.2</ele><time>2026-04-25T08:39:21Z</time></trkpt><trkpt lat="44.02668235390356" lon="7.983878240776698"><ele>665.8000000000001</ele><time>2026-04-25T08:39:23Z</time></trkpt><trkpt lat="44.026651721344365" lon="7.983749073302002"><ele>666.4000000000001</ele><time>2026-04-25T08:39:24Z</time></trkpt><trkpt lat="44.026632838769316" lon="7.983637437562581"><ele>667.0</ele><time>2026-04-25T08:39:25Z</time></trkpt><trkpt lat="44.02661584590899" lon="7.983463963413171"><ele>667.0</ele><time>2026-04-25T08:39:27Z</time></trkpt><trkpt lat="44.02654324404079" lon="7.983408092028103"><ele>667.0</ele><time>2026-04-25T08:39:28Z</time></trkpt><trkpt lat="44.02648156729407" lon="7.983317037313452"><ele>667.0</ele><time>2026-04-25T08:39:29Z</time></trkpt><trkpt lat="44.02640842019736" lon="7.983176830278063"><ele>667.0</ele><time>2026-04-25T08:39:31Z</time></trkpt><trkpt lat="44.02638508680049" lon="7.983095196734978"><ele>667.0</ele><time>2026-04-25T08:39:32Z</time></trkpt><trkpt lat="44.026415502093265" lon="7.982928979986367"><ele>666.5714285714287</ele><time>2026-04-25T08:39:34Z</time></trkpt><trkpt lat="44.02644684600712" lon="7.982852758076756"><ele>666.1428571428571</ele><time>2026-04-25T08:39:35Z</time></trkpt><trkpt lat="44.02647673565229" lon="7.982765956287966"><ele>665.7142857142858</ele><time>2026-04-25T08:39:36Z</time></trkpt><trkpt lat="44.02651008945394" lon="7.982685282463529"><ele>665.2857142857143</ele><time>2026-04-25T08:39:37Z</time></trkpt><trkpt lat="44.02654947954925" lon="7.982598928591756"><ele>664.8571428571429</ele><time>2026-04-25T08:39:38Z</time></trkpt><trkpt lat="44.02657510501721" lon="7.982504067159697"><ele>664.4285714285714</ele><time>2026-04-25T08:39:39Z</time></trkpt><trkpt lat="44.026613983578194" lon="7.982405655778603"><ele>664.0</ele><time>2026-04-25T08:39:40Z</time></trkpt><trkpt lat="44.02665720034547" lon="7.982311739903792"><ele>653.2</ele><time>2026-04-25T08:39:41Z</time></trkpt><trkpt lat="44.02668703960798" lon="7.982222920216742"><ele>642.4000000000001</ele><time>2026-04-25T08:39:42Z</time></trkpt><trkpt lat="44.026697007981944" lon="7.98211978299728"><ele>631.6</ele><time>2026-04-25T08:39:43Z</time></trkpt><trkpt lat="44.02670762083707" lon="7.9819799417393025"><ele>620.8</ele><time>2026-04-25T08:39:45Z</time></trkpt><trkpt lat="44.02668275881687" lon="7.981797508857211"><ele>610.0</ele><time>2026-04-25T08:39:47Z</time></trkpt><trkpt lat="44.02667529910033" lon="7.981677423832604"><ele>607.6</ele><time>2026-04-25T08:39:47.999Z</time></trkpt><trkpt lat="44.02670207687939" lon="7.981555490750481"><ele>605.2</ele><time>2026-04-25T08:39:48.999Z</time></trkpt><trkpt lat="44.02672259931911" lon="7.9814566698990514"><ele>602.8</ele><time>2026-04-25T08:39:49.999Z</time></trkpt><trkpt lat="44.026755316331425" lon="7.981331728835722"><ele>600.4</ele><time>2026-04-25T08:39:51.999Z</time></trkpt><trkpt lat="44.02665556101293" lon="7.9812679077579425"><ele>598.0</ele><time>2026-04-25T08:39:54.999Z</time></trkpt><trkpt lat="44.0265361190289" lon="7.981216875154172"><ele>602.8333333333334</ele><time>2026-04-25T08:39:56.999Z</time></trkpt><trkpt lat="44.026469278288516" lon="7.98118902336782"><ele>607.6666666666667</ele><time>2026-04-25T08:39:57.999Z</time></trkpt><trkpt lat="44.02637537693683" lon="7.981147145884033"><ele>612.5</ele><time>2026-04-25T08:39:59.999Z</time></trkpt><trkpt lat="44.02629580638585" lon="7.981064127092722"><ele>617.3333333333334</ele><time>2026-04-25T08:40:05.999Z</time></trkpt><trkpt lat="44.02622999750631" lon="7.98104129200355"><ele>622.1666666666666</ele><time>2026-04-25T08:40:06.999Z</time></trkpt><trkpt lat="44.02616718420218" lon="7.981016401566179"><ele>627.0</ele><time>2026-04-25T08:40:07.999Z</time></trkpt><trkpt lat="44.02609034951828" lon="7.980975724638012"><ele>627.0</ele><time>2026-04-25T08:40:08.999Z</time></trkpt><trkpt lat="44.02598173430719" lon="7.980905433245583"><ele>627.0</ele><time>2026-04-25T08:40:10.999Z</time></trkpt><trkpt lat="44.025883387007944" lon="7.98095293657557"><ele>627.0</ele><time>2026-04-25T08:40:12.999Z</time></trkpt><trkpt lat="44.02582833682464" lon="7.981032269129825"><ele>627.0</ele><time>2026-04-25T08:40:13.999Z</time></trkpt><trkpt lat="44.02572008315604" lon="7.981025737262859"><ele>627.0</ele><time>2026-04-25T08:40:15.999Z</time></trkpt><trkpt lat="44.02565828297123" lon="7.980996014959436"><ele>630.6</ele><time>2026-04-25T08:40:16.999Z</time></trkpt><trkpt lat="44.025534087678324" lon="7.98100409796122"><ele>634.2</ele><time>2026-04-25T08:40:18.999Z</time></trkpt><trkpt lat="44.02541711238813" lon="7.98101120815471"><ele>637.8</ele><time>2026-04-25T08:40:20.999Z</time></trkpt><trkpt lat="44.02528382447564" lon="7.981016758888411"><ele>641.4</ele><time>2026-04-25T08:40:22.999Z</time></trkpt><trkpt lat="44.025213750470996" lon="7.980984604339885"><ele>645.0</ele><time>2026-04-25T08:40:23.999Z</time></trkpt><trkpt lat="44.02513540116756" lon="7.980947495147633"><ele>645.0</ele><time>2026-04-25T08:40:24.999Z</time></trkpt><trkpt lat="44.025077352069225" lon="7.980906846344684"><ele>645.0</ele><time>2026-04-25T08:40:25.999Z</time></trkpt><trkpt lat="44.02500550135758" lon="7.9807781513602265"><ele>645.0</ele><time>2026-04-25T08:40:27.999Z</time></trkpt><trkpt lat="44.02492801017215" lon="7.980668732233944"><ele>645.0</ele><time>2026-04-25T08:40:29.999Z</time></trkpt><trkpt lat="44.024879484836816" lon="7.980612820639681"><ele>645.0</ele><time>2026-04-25T08:40:30.999Z</time></trkpt><trkpt lat="44.02477707149091" lon="7.980549998345379"><ele>646.8571428571429</ele><time>2026-04-25T08:40:32.999Z</time></trkpt><trkpt lat="44.02470984175464" lon="7.980512327537597"><ele>648.7142857142857</ele><time>2026-04-25T08:40:33.999Z</time></trkpt><trkpt lat="44.024644826993494" lon="7.9804515952385655"><ele>650.5714285714286</ele><time>2026-04-25T08:40:34.999Z</time></trkpt><trkpt lat="44.02459452024119" lon="7.980371786166333"><ele>652.4285714285714</ele><time>2026-04-25T08:40:35.999Z</time></trkpt><trkpt lat="44.02455896116943" lon="7.980299432601068"><ele>654.2857142857142</ele><time>2026-04-25T08:40:36.999Z</time></trkpt><trkpt lat="44.0245413231713" lon="7.980206360039984"><ele>656.1428571428571</ele><time>2026-04-25T08:40:37.999Z</time></trkpt><trkpt lat="44.02452159917387" lon="7.980106821092518"><ele>658.0</ele><time>2026-04-25T08:40:38.999Z</time></trkpt><trkpt lat="44.02448575180806" lon="7.980026951068345"><ele>658.7142857142857</ele><time>2026-04-25T08:40:39.999Z</time></trkpt><trkpt lat="44.02443367767383" lon="7.979949724902132"><ele>659.4285714285714</ele><time>2026-04-25T08:40:40.999Z</time></trkpt><trkpt lat="44.02438327101745" lon="7.979894002484094"><ele>660.1428571428571</ele><time>2026-04-25T08:40:41.999Z</time></trkpt><trkpt lat="44.02433209011441" lon="7.979835792650891"><ele>660.8571428571429</ele><time>2026-04-25T08:40:42.999Z</time></trkpt><trkpt lat="44.02427135902779" lon="7.979769492232615"><ele>661.5714285714286</ele><time>2026-04-25T08:40:43.999Z</time></trkpt><trkpt lat="44.02419454709175" lon="7.979715071002215"><ele>662.2857142857142</ele><time>2026-04-25T08:40:44.999Z</time></trkpt><trkpt lat="44.02413393764596" lon="7.97968034957233"><ele>663.0</ele><time>2026-04-25T08:40:45.999Z</time></trkpt><trkpt lat="44.02405789054375" lon="7.979636395716146"><ele>663.0</ele><time>2026-04-25T08:40:46.999Z</time></trkpt><trkpt lat="44.02398174924333" lon="7.979600052513864"><ele>663.0</ele><time>2026-04-25T08:40:47.999Z</time></trkpt><trkpt lat="44.02390656326901" lon="7.979543439430062"><ele>663.0</ele><time>2026-04-25T08:40:48.999Z</time></trkpt><trkpt lat="44.02380412444513" lon="7.97941308487038"><ele>663.0</ele><time>2026-04-25T08:40:50.999Z</time></trkpt><trkpt lat="44.02370652992718" lon="7.979292608586457"><ele>663.0</ele><time>2026-04-25T08:40:52.999Z</time></trkpt><trkpt lat="44.02364942024267" lon="7.979226422231161"><ele>659.3333333333334</ele><time>2026-04-25T08:40:53.999Z</time></trkpt><trkpt lat="44.02361494859711" lon="7.979125340134322"><ele>655.6666666666666</ele><time>2026-04-25T08:40:54.999Z</time></trkpt><trkpt lat="44.023590948860836" lon="7.979039421922331"><ele>652.0</ele><time>2026-04-25T08:40:55.999Z</time></trkpt><trkpt lat="44.02351683761209" lon="7.978905511602038"><ele>648.3333333333333</ele><time>2026-04-25T08:40:57.999Z</time></trkpt><trkpt lat="44.02347832831171" lon="7.978829802612727"><ele>644.6666666666666</ele><time>2026-04-25T08:40:58.999Z</time></trkpt><trkpt lat="44.023445107152654" lon="7.978743502648107"><ele>641.0</ele><time>2026-04-25T08:40:59.999Z</time></trkpt><trkpt lat="44.023426748101414" lon="7.978657814836915"><ele>641.0</ele><time>2026-04-25T08:41:01Z</time></trkpt><trkpt lat="44.0234122421614" lon="7.978522648900388"><ele>641.0</ele><time>2026-04-25T08:41:03Z</time></trkpt><trkpt lat="44.02337243900073" lon="7.978401765030965"><ele>641.0</ele><time>2026-04-25T08:41:05Z</time></trkpt><trkpt lat="44.023306691252195" lon="7.978321081853417"><ele>641.0</ele><time>2026-04-25T08:41:07Z</time></trkpt><trkpt lat="44.02325167830079" lon="7.978275323722865"><ele>641.0</ele><time>2026-04-25T08:41:10Z</time></trkpt><trkpt lat="44.02322553234723" lon="7.978187949326415"><ele>641.0</ele><time>2026-04-25T08:41:12Z</time></trkpt><trkpt lat="44.02315797425131" lon="7.978154658483109"><ele>644.1666666666666</ele><time>2026-04-25T08:41:19Z</time></trkpt><trkpt lat="44.023060266469" lon="7.978044618468073"><ele>647.3333333333333</ele><time>2026-04-25T08:41:21Z</time></trkpt><trkpt lat="44.02300732212773" lon="7.977975024295462"><ele>650.5</ele><time>2026-04-25T08:41:22Z</time></trkpt><trkpt lat="44.02295551529785" lon="7.977882757811211"><ele>653.6666666666666</ele><time>2026-04-25T08:41:23Z</time></trkpt><trkpt lat="44.02292990095834" lon="7.9777957484562165"><ele>656.8333333333334</ele><time>2026-04-25T08:41:24Z</time></trkpt><trkpt lat="44.022891619546414" lon="7.977713353431303"><ele>660.0</ele><time>2026-04-25T08:41:25Z</time></trkpt><trkpt lat="44.022830244073624" lon="7.977648750834116"><ele>660.0</ele><time>2026-04-25T08:41:26Z</time></trkpt><trkpt lat="44.02278037923027" lon="7.977573338817343"><ele>660.0</ele><time>2026-04-25T08:41:27Z</time></trkpt><trkpt lat="44.022754035739126" lon="7.977489416019518"><ele>660.0</ele><time>2026-04-25T08:41:28Z</time></trkpt><trkpt lat="44.02267373030833" lon="7.977388172757397"><ele>660.0</ele><time>2026-04-25T08:41:30Z</time></trkpt><trkpt lat="44.022572921035525" lon="7.977285910683458"><ele>660.0</ele><time>2026-04-25T08:41:32Z</time></trkpt><trkpt lat="44.022550763397966" lon="7.977158208843357"><ele>660.6</ele><time>2026-04-25T08:41:35Z</time></trkpt><trkpt lat="44.022516308392355" lon="7.977036041434001"><ele>661.2</ele><time>2026-04-25T08:41:37Z</time></trkpt><trkpt lat="44.02250981968786" lon="7.976937013144561"><ele>661.8</ele><time>2026-04-25T08:41:38Z</time></trkpt><trkpt lat="44.02247198006064" lon="7.976793795822728"><ele>662.4</ele><time>2026-04-25T08:41:40Z</time></trkpt><trkpt lat="44.022383415317144" lon="7.976682802666343"><ele>663.0</ele><time>2026-04-25T08:41:42Z</time></trkpt><trkpt lat="44.022324206214364" lon="7.976641078119054"><ele>663.0</ele><time>2026-04-25T08:41:43Z</time></trkpt><trkpt lat="44.02224743641561" lon="7.976568672533904"><ele>663.0</ele><time>2026-04-25T08:41:45Z</time></trkpt><trkpt lat="44.022249725060036" lon="7.976445393733769"><ele>663.0</ele><time>2026-04-25T08:41:47Z</time></trkpt><trkpt lat="44.02228960213839" lon="7.976373497565231"><ele>663.0</ele><time>2026-04-25T08:41:49Z</time></trkpt><trkpt lat="44.02230215336169" lon="7.976267465575552"><ele>663.0</ele><time>2026-04-25T08:41:51Z</time></trkpt><trkpt lat="44.02237178939183" lon="7.976225270863064"><ele>663.0</ele><time>2026-04-25T08:41:54Z</time></trkpt><trkpt lat="44.02245560874948" lon="7.976183516222923"><ele>655.3333333333334</ele><time>2026-04-25T08:41:56Z</time></trkpt><trkpt lat="44.022553083271006" lon="7.97615697553192"><ele>647.6666666666666</ele><time>2026-04-25T08:41:58Z</time></trkpt><trkpt lat="44.02264400624364" lon="7.976108602155218"><ele>640.0</ele><time>2026-04-25T08:41:58.999Z</time></trkpt><trkpt lat="44.0226966971856" lon="7.976055660500341"><ele>632.3333333333333</ele><time>2026-04-25T08:41:59.999Z</time></trkpt><trkpt lat="44.02276314903735" lon="7.9759896751966215"><ele>624.6666666666666</ele><time>2026-04-25T08:42:00.999Z</time></trkpt><trkpt lat="44.022835768450115" lon="7.975928239501939"><ele>617.0</ele><time>2026-04-25T08:42:01.999Z</time></trkpt><trkpt lat="44.02291187292839" lon="7.975898894462167"><ele>617.0</ele><time>2026-04-25T08:42:02.999Z</time></trkpt><trkpt lat="44.022972704812396" lon="7.975867975920342"><ele>617.0</ele><time>2026-04-25T08:42:03.999Z</time></trkpt><trkpt lat="44.02305806330483" lon="7.9758251564357625"><ele>617.0</ele><time>2026-04-25T08:42:04.999Z</time></trkpt><trkpt lat="44.02312674598447" lon="7.975767279119272"><ele>617.0</ele><time>2026-04-25T08:42:07.999Z</time></trkpt><trkpt lat="44.0231623933712" lon="7.975670459349689"><ele>617.0</ele><time>2026-04-25T08:42:09.999Z</time></trkpt><trkpt lat="44.023210670272476" lon="7.9755882284785855"><ele>617.0</ele><time>2026-04-25T08:42:11.999Z</time></trkpt><trkpt lat="44.02327345673068" lon="7.975508291115178"><ele>615.6666666666666</ele><time>2026-04-25T08:42:13.999Z</time></trkpt><trkpt lat="44.02335672405773" lon="7.975461503374445"><ele>614.3333333333333</ele><time>2026-04-25T08:42:15.999Z</time></trkpt><trkpt lat="44.023412029242394" lon="7.975381250421915"><ele>613.0</ele><time>2026-04-25T08:42:17.999Z</time></trkpt><trkpt lat="44.023476982077746" lon="7.975325509171319"><ele>611.6666666666666</ele><time>2026-04-25T08:42:20.999Z</time></trkpt><trkpt lat="44.023529379880536" lon="7.9752714183123405"><ele>610.3333333333334</ele><time>2026-04-25T08:42:22.999Z</time></trkpt><trkpt lat="44.023598307265885" lon="7.975187561047003"><ele>609.0</ele><time>2026-04-25T08:42:25.999Z</time></trkpt><trkpt lat="44.023660573982916" lon="7.975086062510288"><ele>616.6</ele><time>2026-04-25T08:42:27.999Z</time></trkpt><trkpt lat="44.02372079755491" lon="7.974999135802466"><ele>624.2</ele><time>2026-04-25T08:42:29.999Z</time></trkpt><trkpt lat="44.02378311509657" lon="7.974909022752095"><ele>631.8000000000001</ele><time>2026-04-25T08:42:31.999Z</time></trkpt><trkpt lat="44.02377207893666" lon="7.974790950512792"><ele>639.4</ele><time>2026-04-25T08:42:33.999Z</time></trkpt><trkpt lat="44.02369711889608" lon="7.974667514841968"><ele>647.0</ele><time>2026-04-25T08:42:35.999Z</time></trkpt><trkpt lat="44.023651240283314" lon="7.974577697587974"><ele>647.0</ele><time>2026-04-25T08:42:36.999Z</time></trkpt><trkpt lat="44.02359234961941" lon="7.974491407661256"><ele>647.0</ele><time>2026-04-25T08:42:37.999Z</time></trkpt><trkpt lat="44.023534470635845" lon="7.974410231332869"><ele>647.0</ele><time>2026-04-25T08:42:38.999Z</time></trkpt><trkpt lat="44.02347888585826" lon="7.974353266056162"><ele>647.0</ele><time>2026-04-25T08:42:39.999Z</time></trkpt><trkpt lat="44.02342006621441" lon="7.974291050266268"><ele>647.0</ele><time>2026-04-25T08:42:40.999Z</time></trkpt><trkpt lat="44.02338373709764" lon="7.9742111766454045"><ele>647.0</ele><time>2026-04-25T08:42:41.999Z</time></trkpt><trkpt lat="44.023358672409245" lon="7.974095689974903"><ele>648.2</ele><time>2026-04-25T08:42:42.999Z</time></trkpt><trkpt lat="44.023329642061874" lon="7.973960531310841"><ele>649.4000000000001</ele><time>2026-04-25T08:42:44.999Z</time></trkpt><trkpt lat="44.023230902136085" lon="7.9738648921999955"><ele>650.5999999999999</ele><time>2026-04-25T08:42:46.999Z</time></trkpt><trkpt lat="44.023160763466834" lon="7.973810292648201"><ele>651.8</ele><time>2026-04-25T08:42:47.999Z</time></trkpt><trkpt lat="44.02311578909602" lon="7.973734727431354"><ele>653.0</ele><time>2026-04-25T08:42:48.999Z</time></trkpt><trkpt lat="44.02303401719129" lon="7.973657070795502"><ele>659.2</ele><time>2026-04-25T08:42:50.999Z</time></trkpt><trkpt lat="44.0229691760859" lon="7.9736285970716025"><ele>665.4</ele><time>2026-04-25T08:42:51.999Z</time></trkpt><trkpt lat="44.02287850654814" lon="7.973618553060478"><ele>671.6</ele><time>2026-04-25T08:42:53.999Z</time></trkpt><trkpt lat="44.02276236386641" lon="7.973632443580134"><ele>677.8000000000001</ele><time>2026-04-25T08:42:55.999Z</time></trkpt><trkpt lat="44.022698883552465" lon="7.973509186232495"><ele>684.0</ele><time>2026-04-25T08:42:57.999Z</time></trkpt><trkpt lat="44.022683320434496" lon="7.973415218719316"><ele>680.3333333333334</ele><time>2026-04-25T08:42:58.999Z</time></trkpt><trkpt lat="44.022640736560334" lon="7.973284564133528"><ele>676.6666666666666</ele><time>2026-04-25T08:43:00.999Z</time></trkpt><trkpt lat="44.02261066014536" lon="7.973181909873902"><ele>673.0</ele><time>2026-04-25T08:43:02.999Z</time></trkpt><trkpt lat="44.02259959634604" lon="7.973065306203347"><ele>669.3333333333333</ele><time>2026-04-25T08:43:04.999Z</time></trkpt><trkpt lat="44.02259134980745" lon="7.972965085016998"><ele>665.6666666666666</ele><time>2026-04-25T08:43:07Z</time></trkpt><trkpt lat="44.02257094344969" lon="7.972863074468955"><ele>662.0</ele><time>2026-04-25T08:43:09Z</time></trkpt><trkpt lat="44.02251224712988" lon="7.9727451443345885"><ele>665.0</ele><time>2026-04-25T08:43:11Z</time></trkpt><trkpt lat="44.0224523800941" lon="7.972612608158524"><ele>668.0</ele><time>2026-04-25T08:43:13Z</time></trkpt><trkpt lat="44.022446080216135" lon="7.972422952647381"><ele>671.0</ele><time>2026-04-25T08:43:15Z</time></trkpt><trkpt lat="44.02242968520454" lon="7.972312428702391"><ele>674.0</ele><time>2026-04-25T08:43:16Z</time></trkpt><trkpt lat="44.02241746631227" lon="7.972208569905955"><ele>677.0</ele><time>2026-04-25T08:43:17Z</time></trkpt><trkpt lat="44.02242206429463" lon="7.972109423289468"><ele>677.0</ele><time>2026-04-25T08:43:18Z</time></trkpt><trkpt lat="44.02240365631843" lon="7.972022491260753"><ele>677.0</ele><time>2026-04-25T08:43:19Z</time></trkpt><trkpt lat="44.02231725187107" lon="7.971920088639982"><ele>677.0</ele><time>2026-04-25T08:43:21Z</time></trkpt><trkpt lat="44.02223150026471" lon="7.9719355483942875"><ele>677.0</ele><time>2026-04-25T08:43:23Z</time></trkpt><trkpt lat="44.02216646115273" lon="7.971962349905482"><ele>677.0</ele><time>2026-04-25T08:43:24Z</time></trkpt><trkpt lat="44.022097982517614" lon="7.97194972176559"><ele>677.0</ele><time>2026-04-25T08:43:25Z</time></trkpt><trkpt lat="44.02197616765391" lon="7.971893604020762"><ele>677.0</ele><time>2026-04-25T08:43:27Z</time></trkpt><trkpt lat="44.02187312358616" lon="7.971834660397701"><ele>677.0</ele><time>2026-04-25T08:43:29Z</time></trkpt><trkpt lat="44.02183851660073" lon="7.971669621457187"><ele>677.0</ele><time>2026-04-25T08:43:31Z</time></trkpt><trkpt lat="44.021858346895016" lon="7.971523720693755"><ele>677.0</ele><time>2026-04-25T08:43:33Z</time></trkpt><trkpt lat="44.021871838857756" lon="7.9714257367996755"><ele>677.0</ele><time>2026-04-25T08:43:36Z</time></trkpt><trkpt lat="44.02180691687079" lon="7.971362435923264"><ele>673.2</ele><time>2026-04-25T08:43:44Z</time></trkpt><trkpt lat="44.02169721920779" lon="7.971298999297896"><ele>669.4000000000001</ele><time>2026-04-25T08:43:46Z</time></trkpt><trkpt lat="44.021595292936354" lon="7.971252712155428"><ele>665.5999999999999</ele><time>2026-04-25T08:43:48Z</time></trkpt><trkpt lat="44.02160083146116" lon="7.97111098541159"><ele>661.8</ele><time>2026-04-25T08:43:50Z</time></trkpt><trkpt lat="44.0215705650873" lon="7.970972926024154"><ele>658.0</ele><time>2026-04-25T08:43:52Z</time></trkpt><trkpt lat="44.021545666252216" lon="7.970890612340899"><ele>663.8</ele><time>2026-04-25T08:43:53Z</time></trkpt><trkpt lat="44.021500111784604" lon="7.970760726996677"><ele>669.5999999999999</ele><time>2026-04-25T08:43:55Z</time></trkpt><trkpt lat="44.02145617464913" lon="7.970690735491109"><ele>675.4000000000001</ele><time>2026-04-25T08:43:56Z</time></trkpt><trkpt lat="44.021407054772375" lon="7.970565611048972"><ele>681.2</ele><time>2026-04-25T08:43:58Z</time></trkpt><trkpt lat="44.02143627498631" lon="7.970457136169472"><ele>687.0</ele><time>2026-04-25T08:44:00Z</time></trkpt><trkpt lat="44.021565708818606" lon="7.970384619838643"><ele>687.0</ele><time>2026-04-25T08:44:02Z</time></trkpt><trkpt lat="44.02162781224059" lon="7.970344915280522"><ele>687.0</ele><time>2026-04-25T08:44:03Z</time></trkpt><trkpt lat="44.02169315410677" lon="7.970287145405084"><ele>687.0</ele><time>2026-04-25T08:44:03.999Z</time></trkpt><trkpt lat="44.02174118293193" lon="7.970203610194385"><ele>687.0</ele><time>2026-04-25T08:44:05.999Z</time></trkpt><trkpt lat="44.021694941136474" lon="7.970053661844731"><ele>687.0</ele><time>2026-04-25T08:44:07.999Z</time></trkpt><trkpt lat="44.02164328199699" lon="7.969947478861044"><ele>687.0</ele><time>2026-04-25T08:44:08.999Z</time></trkpt><trkpt lat="44.021643964075714" lon="7.969852824800406"><ele>680.3333333333334</ele><time>2026-04-25T08:44:09.999Z</time></trkpt><trkpt lat="44.02167849723032" lon="7.969768407310844"><ele>673.6666666666666</ele><time>2026-04-25T08:44:10.999Z</time></trkpt><trkpt lat="44.021748217785316" lon="7.9697218021665215"><ele>667.0</ele><time>2026-04-25T08:44:11.999Z</time></trkpt><trkpt lat="44.02184081774425" lon="7.969691546588072"><ele>660.3333333333333</ele><time>2026-04-25T08:44:12.999Z</time></trkpt><trkpt lat="44.02192635618388" lon="7.969673244839455"><ele>653.6666666666666</ele><time>2026-04-25T08:44:13.999Z</time></trkpt><trkpt lat="44.021999148217866" lon="7.969651361579826"><ele>647.0</ele><time>2026-04-25T08:44:14.999Z</time></trkpt><trkpt lat="44.0220530939387" lon="7.96960267066776"><ele>647.0</ele><time>2026-04-25T08:44:15.999Z</time></trkpt><trkpt lat="44.02212175653261" lon="7.969536579011568"><ele>647.0</ele><time>2026-04-25T08:44:16.999Z</time></trkpt><trkpt lat="44.02222110086022" lon="7.969484217242775"><ele>647.0</ele><time>2026-04-25T08:44:17.999Z</time></trkpt><trkpt lat="44.022307462801585" lon="7.969482713726493"><ele>647.0</ele><time>2026-04-25T08:44:18.999Z</time></trkpt><trkpt lat="44.02237071467037" lon="7.969451870724847"><ele>647.0</ele><time>2026-04-25T08:44:19.999Z</time></trkpt><trkpt lat="44.02244301142148" lon="7.969416962716857"><ele>647.0</ele><time>2026-04-25T08:44:20.999Z</time></trkpt><trkpt lat="44.02251650087449" lon="7.969352578392911"><ele>645.3333333333333</ele><time>2026-04-25T08:44:21.999Z</time></trkpt><trkpt lat="44.02257966413312" lon="7.969268458105434"><ele>643.6666666666666</ele><time>2026-04-25T08:44:22.999Z</time></trkpt><trkpt lat="44.02262430826643" lon="7.969186412010657"><ele>642.0</ele><time>2026-04-25T08:44:23.999Z</time></trkpt><trkpt lat="44.022653427129896" lon="7.969094705430548"><ele>640.3333333333334</ele><time>2026-04-25T08:44:24.999Z</time></trkpt><trkpt lat="44.022681454645976" lon="7.968982408784537"><ele>638.6666666666667</ele><time>2026-04-25T08:44:25.999Z</time></trkpt><trkpt lat="44.02270434256548" lon="7.96886144728805"><ele>637.0</ele><time>2026-04-25T08:44:26.999Z</time></trkpt><trkpt lat="44.02271826295021" lon="7.968737860666573"><ele>637.0</ele><time>2026-04-25T08:44:27.999Z</time></trkpt><trkpt lat="44.022734391746376" lon="7.9685963998904"><ele>637.0</ele><time>2026-04-25T08:44:28.999Z</time></trkpt><trkpt lat="44.02277426950813" lon="7.96845866977818"><ele>637.0</ele><time>2026-04-25T08:44:29.999Z</time></trkpt><trkpt lat="44.02282814940453" lon="7.96832777248913"><ele>637.0</ele><time>2026-04-25T08:44:30.999Z</time></trkpt><trkpt lat="44.02287144462773" lon="7.968201137202663"><ele>637.0</ele><time>2026-04-25T08:44:31.999Z</time></trkpt><trkpt lat="44.022923757755045" lon="7.9681107302647725"><ele>640.1666666666667</ele><time>2026-04-25T08:44:32.999Z</time></trkpt><trkpt lat="44.022998443159594" lon="7.968031470829494"><ele>643.3333333333334</ele><time>2026-04-25T08:44:33.999Z</time></trkpt><trkpt lat="44.023080110023514" lon="7.967942609172159"><ele>646.5</ele><time>2026-04-25T08:44:34.999Z</time></trkpt><trkpt lat="44.02313943233155" lon="7.96785886358348"><ele>649.6666666666666</ele><time>2026-04-25T08:44:35.999Z</time></trkpt><trkpt lat="44.023167077513826" lon="7.967776999204307"><ele>652.8333333333333</ele><time>2026-04-25T08:44:36.999Z</time></trkpt><trkpt lat="44.02319456033166" lon="7.967672228891297"><ele>656.0</ele><time>2026-04-25T08:44:37.999Z</time></trkpt><trkpt lat="44.02322477811417" lon="7.967548629059803"><ele>652.1999999999999</ele><time>2026-04-25T08:44:38.999Z</time></trkpt><trkpt lat="44.023259666709095" lon="7.967418433381704"><ele>648.4</ele><time>2026-04-25T08:44:39.999Z</time></trkpt><trkpt lat="44.02330763262261" lon="7.96730361196984"><ele>644.6</ele><time>2026-04-25T08:44:40.999Z</time></trkpt><trkpt lat="44.02337952738639" lon="7.967191745943726"><ele>640.8</ele><time>2026-04-25T08:44:41.999Z</time></trkpt><trkpt lat="44.023447310978234" lon="7.967086503564515"><ele>637.0</ele><time>2026-04-25T08:44:42.999Z</time></trkpt><trkpt lat="44.02349589879313" lon="7.96698678730516"><ele>637.0</ele><time>2026-04-25T08:44:43.999Z</time></trkpt><trkpt lat="44.02353729934293" lon="7.966884282903465"><ele>637.0</ele><time>2026-04-25T08:44:44.999Z</time></trkpt><trkpt lat="44.0235656255272" lon="7.966786150512236"><ele>637.0</ele><time>2026-04-25T08:44:45.999Z</time></trkpt><trkpt lat="44.02359486123527" lon="7.9666701420127914"><ele>637.0</ele><time>2026-04-25T08:44:46.999Z</time></trkpt><trkpt lat="44.02362689536281" lon="7.966544741733436"><ele>637.0</ele><time>2026-04-25T08:44:47.999Z</time></trkpt><trkpt lat="44.02365850780989" lon="7.966420340327899"><ele>637.0</ele><time>2026-04-25T08:44:48.999Z</time></trkpt><trkpt lat="44.02367504680831" lon="7.966285581491854"><ele>641.0</ele><time>2026-04-25T08:44:49.999Z</time></trkpt><trkpt lat="44.023679255575004" lon="7.966154247705342"><ele>645.0</ele><time>2026-04-25T08:44:50.999Z</time></trkpt><trkpt lat="44.02367830815126" lon="7.966029621021213"><ele>649.0</ele><time>2026-04-25T08:44:51.999Z</time></trkpt><trkpt lat="44.02366045109318" lon="7.965911846521771"><ele>653.0</ele><time>2026-04-25T08:44:52.999Z</time></trkpt><trkpt lat="44.023660447254485" lon="7.965785856277502"><ele>657.0</ele><time>2026-04-25T08:44:53.999Z</time></trkpt><trkpt lat="44.023663826161986" lon="7.965661353380473"><ele>657.0</ele><time>2026-04-25T08:44:54.999Z</time></trkpt><trkpt lat="44.02366750519886" lon="7.965541056746566"><ele>657.0</ele><time>2026-04-25T08:44:55.999Z</time></trkpt><trkpt lat="44.023663171610934" lon="7.96542245869861"><ele>657.0</ele><time>2026-04-25T08:44:56.999Z</time></trkpt><trkpt lat="44.023667549416515" lon="7.965304681013892"><ele>657.0</ele><time>2026-04-25T08:44:57.999Z</time></trkpt><trkpt lat="44.023718813564244" lon="7.965203763961485"><ele>657.0</ele><time>2026-04-25T08:44:58.999Z</time></trkpt><trkpt lat="44.02376431797067" lon="7.96511324106127"><ele>657.0</ele><time>2026-04-25T08:44:59.999Z</time></trkpt><trkpt lat="44.02380052889576" lon="7.965006511752424"><ele>657.0</ele><time>2026-04-25T08:45:00.999Z</time></trkpt><trkpt lat="44.02381599626189" lon="7.964906804687956"><ele>657.0</ele><time>2026-04-25T08:45:01.999Z</time></trkpt><trkpt lat="44.02377956339885" lon="7.96480554296166"><ele>657.0</ele><time>2026-04-25T08:45:03.999Z</time></trkpt><trkpt lat="44.0236917663023" lon="7.964850255811665"><ele>657.0</ele><time>2026-04-25T08:45:31Z</time></trkpt><trkpt lat="44.02359968761154" lon="7.964965373103533"><ele>657.0</ele><time>2026-04-25T08:45:33Z</time></trkpt><trkpt lat="44.02355082793128" lon="7.9650420145722745"><ele>657.0</ele><time>2026-04-25T08:45:34Z</time></trkpt><trkpt lat="44.02348659475805" lon="7.965138337324871"><ele>657.0</ele><time>2026-04-25T08:45:35Z</time></trkpt><trkpt lat="44.023415415972536" lon="7.965246678419304"><ele>657.0</ele><time>2026-04-25T08:45:36Z</time></trkpt><trkpt lat="44.0233627312327" lon="7.965346662854107"><ele>657.0</ele><time>2026-04-25T08:45:37Z</time></trkpt><trkpt lat="44.023326236564635" lon="7.965435033155033"><ele>657.0</ele><time>2026-04-25T08:45:38Z</time></trkpt><trkpt lat="44.023281814696915" lon="7.965505397866436"><ele>657.0</ele><time>2026-04-25T08:45:39Z</time></trkpt><trkpt lat="44.02321571736597" lon="7.965562491217409"><ele>657.0</ele><time>2026-04-25T08:45:40Z</time></trkpt><trkpt lat="44.02314013362099" lon="7.965609612169703"><ele>658.8333333333334</ele><time>2026-04-25T08:45:41Z</time></trkpt><trkpt lat="44.02307687391373" lon="7.965665215046104"><ele>660.6666666666666</ele><time>2026-04-25T08:45:42Z</time></trkpt><trkpt lat="44.02300078475414" lon="7.965691657410649"><ele>662.5</ele><time>2026-04-25T08:45:43Z</time></trkpt><trkpt lat="44.02292281276046" lon="7.965696863705462"><ele>664.3333333333333</ele><time>2026-04-25T08:45:44Z</time></trkpt><trkpt lat="44.0228433131732" lon="7.965676475319488"><ele>666.1666666666666</ele><time>2026-04-25T08:45:45Z</time></trkpt><trkpt lat="44.02276965443835" lon="7.965663787124042"><ele>668.0</ele><time>2026-04-25T08:45:46Z</time></trkpt><trkpt lat="44.02265325386218" lon="7.965730290059142"><ele>668.0</ele><time>2026-04-25T08:45:48Z</time></trkpt><trkpt lat="44.02253243137855" lon="7.9656812894194"><ele>668.0</ele><time>2026-04-25T08:45:50Z</time></trkpt><trkpt lat="44.02244530778162" lon="7.965653281522722"><ele>668.0</ele><time>2026-04-25T08:45:51Z</time></trkpt><trkpt lat="44.02236796766989" lon="7.965654245190657"><ele>668.0</ele><time>2026-04-25T08:45:52Z</time></trkpt><trkpt lat="44.02230116934375" lon="7.965756162308012"><ele>668.0</ele><time>2026-04-25T08:45:54Z</time></trkpt><trkpt lat="44.022271953801905" lon="7.965840124366725"><ele>670.0</ele><time>2026-04-25T08:45:55Z</time></trkpt><trkpt lat="44.02220523595735" lon="7.965892410353098"><ele>672.0</ele><time>2026-04-25T08:45:56Z</time></trkpt><trkpt lat="44.022141933015575" lon="7.96594358173432"><ele>674.0</ele><time>2026-04-25T08:45:57Z</time></trkpt><trkpt lat="44.022087727714485" lon="7.9660683674577815"><ele>676.0</ele><time>2026-04-25T08:45:59Z</time></trkpt><trkpt lat="44.022063071760726" lon="7.966166431153015"><ele>678.0</ele><time>2026-04-25T08:46:00Z</time></trkpt><trkpt lat="44.02202209980283" lon="7.96625856524939"><ele>680.0</ele><time>2026-04-25T08:46:01Z</time></trkpt><trkpt lat="44.02196632751917" lon="7.966339370563614"><ele>680.0</ele><time>2026-04-25T08:46:02Z</time></trkpt><trkpt lat="44.02189015838685" lon="7.966379915578894"><ele>680.0</ele><time>2026-04-25T08:46:03Z</time></trkpt><trkpt lat="44.021805579062914" lon="7.966400401105198"><ele>680.0</ele><time>2026-04-25T08:46:04Z</time></trkpt><trkpt lat="44.02172409433897" lon="7.966429770776346"><ele>680.0</ele><time>2026-04-25T08:46:05Z</time></trkpt><trkpt lat="44.0216428756775" lon="7.966421507242062"><ele>680.0</ele><time>2026-04-25T08:46:06Z</time></trkpt><trkpt lat="44.02156988549142" lon="7.966449386643521"><ele>680.0</ele><time>2026-04-25T08:46:07Z</time></trkpt><trkpt lat="44.02151029252379" lon="7.966504286767475"><ele>678.0</ele><time>2026-04-25T08:46:08Z</time></trkpt><trkpt lat="44.021432782033884" lon="7.966547942329989"><ele>676.0</ele><time>2026-04-25T08:46:09Z</time></trkpt><trkpt lat="44.02136180492787" lon="7.966600575995163"><ele>674.0</ele><time>2026-04-25T08:46:09.999Z</time></trkpt><trkpt lat="44.02128515555783" lon="7.9666115590022315"><ele>672.0</ele><time>2026-04-25T08:46:10.999Z</time></trkpt><trkpt lat="44.02120816084384" lon="7.966645550728602"><ele>670.0</ele><time>2026-04-25T08:46:11.999Z</time></trkpt><trkpt lat="44.021143002164266" lon="7.966721990257991"><ele>668.0</ele><time>2026-04-25T08:46:12.999Z</time></trkpt><trkpt lat="44.02108722405091" lon="7.966799367656"><ele>672.8333333333333</ele><time>2026-04-25T08:46:13.999Z</time></trkpt><trkpt lat="44.02105823973411" lon="7.966896831759666"><ele>677.6666666666666</ele><time>2026-04-25T08:46:14.999Z</time></trkpt><trkpt lat="44.02102298762267" lon="7.966972528186615"><ele>682.5</ele><time>2026-04-25T08:46:15.999Z</time></trkpt><trkpt lat="44.020977380069546" lon="7.967068482441969"><ele>687.3333333333334</ele><time>2026-04-25T08:46:16.999Z</time></trkpt><trkpt lat="44.02089579426167" lon="7.967114076856794"><ele>692.1666666666667</ele><time>2026-04-25T08:46:17.999Z</time></trkpt><trkpt lat="44.02082830275131" lon="7.967165821343745"><ele>697.0</ele><time>2026-04-25T08:46:18.999Z</time></trkpt><trkpt lat="44.02076027487247" lon="7.9672230710104675"><ele>699.3333333333334</ele><time>2026-04-25T08:46:19.999Z</time></trkpt><trkpt lat="44.02067284064277" lon="7.967272908236592"><ele>701.6666666666667</ele><time>2026-04-25T08:46:20.999Z</time></trkpt><trkpt lat="44.020604640862096" lon="7.967237038648939"><ele>704.0</ele><time>2026-04-25T08:46:21.999Z</time></trkpt><trkpt lat="44.02054558567853" lon="7.967159954153781"><ele>706.3333333333334</ele><time>2026-04-25T08:46:22.999Z</time></trkpt><trkpt lat="44.02048215061469" lon="7.9670734439040976"><ele>708.6666666666666</ele><time>2026-04-25T08:46:23.999Z</time></trkpt><trkpt lat="44.020414840813025" lon="7.967015680469911"><ele>711.0</ele><time>2026-04-25T08:46:24.999Z</time></trkpt><trkpt lat="44.020350140287434" lon="7.9669307480773455"><ele>711.0</ele><time>2026-04-25T08:46:25.999Z</time></trkpt><trkpt lat="44.020287575843376" lon="7.96681962925554"><ele>711.0</ele><time>2026-04-25T08:46:26.999Z</time></trkpt><trkpt lat="44.02022001150672" lon="7.966756613685889"><ele>711.0</ele><time>2026-04-25T08:46:27.999Z</time></trkpt><trkpt lat="44.020147616054544" lon="7.966723383742137"><ele>711.0</ele><time>2026-04-25T08:46:28.999Z</time></trkpt><trkpt lat="44.02005188435868" lon="7.966707403846826"><ele>711.0</ele><time>2026-04-25T08:46:29.999Z</time></trkpt><trkpt lat="44.01996674730999" lon="7.966650845444771"><ele>711.1666666666666</ele><time>2026-04-25T08:46:30.999Z</time></trkpt><trkpt lat="44.01991295968196" lon="7.966555538530179"><ele>711.3333333333334</ele><time>2026-04-25T08:46:31.999Z</time></trkpt><trkpt lat="44.01987600943357" lon="7.9664696094145055"><ele>711.5</ele><time>2026-04-25T08:46:32.999Z</time></trkpt><trkpt lat="44.01984261628953" lon="7.9663731655464955"><ele>711.6666666666667</ele><time>2026-04-25T08:46:33.999Z</time></trkpt><trkpt lat="44.019801915063596" lon="7.966299881425455"><ele>711.8333333333334</ele><time>2026-04-25T08:46:34.999Z</time></trkpt><trkpt lat="44.019762066467315" lon="7.966221857003084"><ele>712.0</ele><time>2026-04-25T08:46:35.999Z</time></trkpt><trkpt lat="44.019694214238775" lon="7.966136770468779"><ele>712.0</ele><time>2026-04-25T08:46:36.999Z</time></trkpt><trkpt lat="44.01961636205251" lon="7.96604576572889"><ele>712.0</ele><time>2026-04-25T08:46:37.999Z</time></trkpt><trkpt lat="44.01954332665043" lon="7.965984758612644"><ele>712.0</ele><time>2026-04-25T08:46:38.999Z</time></trkpt><trkpt lat="44.01947592922585" lon="7.9659398933941725"><ele>712.0</ele><time>2026-04-25T08:46:39.999Z</time></trkpt><trkpt lat="44.01940597667858" lon="7.965897263635481"><ele>712.0</ele><time>2026-04-25T08:46:40.999Z</time></trkpt><trkpt lat="44.019324564830356" lon="7.965863600336767"><ele>712.0</ele><time>2026-04-25T08:46:41.999Z</time></trkpt><trkpt lat="44.01923352265979" lon="7.965817068925654"><ele>707.1666666666667</ele><time>2026-04-25T08:46:42.999Z</time></trkpt><trkpt lat="44.01914165283582" lon="7.965759907212514"><ele>702.3333333333334</ele><time>2026-04-25T08:46:43.999Z</time></trkpt><trkpt lat="44.019059803855754" lon="7.965678560980281"><ele>697.5</ele><time>2026-04-25T08:46:44.999Z</time></trkpt><trkpt lat="44.019001177021416" lon="7.965599228429018"><ele>692.6666666666666</ele><time>2026-04-25T08:46:45.999Z</time></trkpt><trkpt lat="44.01895050227849" lon="7.965509999236019"><ele>687.8333333333333</ele><time>2026-04-25T08:46:46.999Z</time></trkpt><trkpt lat="44.01890394645421" lon="7.965413012891239"><ele>683.0</ele><time>2026-04-25T08:46:47.999Z</time></trkpt><trkpt lat="44.01887020359841" lon="7.9653036127445365"><ele>683.0</ele><time>2026-04-25T08:46:48.999Z</time></trkpt><trkpt lat="44.01887457574057" lon="7.96518509121423"><ele>683.0</ele><time>2026-04-25T08:46:49.999Z</time></trkpt><trkpt lat="44.01889532944839" lon="7.965060601084125"><ele>683.0</ele><time>2026-04-25T08:46:50.999Z</time></trkpt><trkpt lat="44.01890061878439" lon="7.964913757794632"><ele>683.0</ele><time>2026-04-25T08:46:51.999Z</time></trkpt><trkpt lat="44.01889120564995" lon="7.9647674496873915"><ele>683.0</ele><time>2026-04-25T08:46:52.999Z</time></trkpt><trkpt lat="44.01888402411904" lon="7.964628436196492"><ele>685.6666666666666</ele><time>2026-04-25T08:46:53.999Z</time></trkpt><trkpt lat="44.018916475069325" lon="7.9645109044142135"><ele>688.3333333333333</ele><time>2026-04-25T08:46:54.999Z</time></trkpt><trkpt lat="44.018953400980855" lon="7.964374404589085"><ele>691.0</ele><time>2026-04-25T08:46:55.999Z</time></trkpt><trkpt lat="44.01896823013614" lon="7.964272894567486"><ele>693.6666666666666</ele><time>2026-04-25T08:46:56.999Z</time></trkpt><trkpt lat="44.01889277169316" lon="7.964199252776201"><ele>696.3333333333334</ele><time>2026-04-25T08:46:58.999Z</time></trkpt><trkpt lat="44.01881024152924" lon="7.964189301762323"><ele>699.0</ele><time>2026-04-25T08:46:59.999Z</time></trkpt><trkpt lat="44.018697479847646" lon="7.964163397148503"><ele>698.5</ele><time>2026-04-25T08:47:00.999Z</time></trkpt><trkpt lat="44.01862681051747" lon="7.964123516214034"><ele>698.0</ele><time>2026-04-25T08:47:01.999Z</time></trkpt><trkpt lat="44.01854607935155" lon="7.964052469868891"><ele>697.5</ele><time>2026-04-25T08:47:02.999Z</time></trkpt><trkpt lat="44.01847636999529" lon="7.9639488325199554"><ele>697.0</ele><time>2026-04-25T08:47:03.999Z</time></trkpt><trkpt lat="44.018428908514736" lon="7.963864095394717"><ele>696.5</ele><time>2026-04-25T08:47:04.999Z</time></trkpt><trkpt lat="44.018364860489626" lon="7.963783420797716"><ele>696.0</ele><time>2026-04-25T08:47:05.999Z</time></trkpt><trkpt lat="44.01827960620046" lon="7.963707259907126"><ele>696.0</ele><time>2026-04-25T08:47:06.999Z</time></trkpt><trkpt lat="44.018216720782014" lon="7.963634375718045"><ele>696.0</ele><time>2026-04-25T08:47:07.999Z</time></trkpt><trkpt lat="44.0181595335845" lon="7.963561450408933"><ele>696.0</ele><time>2026-04-25T08:47:08.999Z</time></trkpt><trkpt lat="44.01808486374275" lon="7.963505853027359"><ele>696.0</ele><time>2026-04-25T08:47:09.999Z</time></trkpt><trkpt lat="44.017989669473565" lon="7.9634579332201145"><ele>696.0</ele><time>2026-04-25T08:47:10.999Z</time></trkpt><trkpt lat="44.01787504456645" lon="7.96340620623648"><ele>698.25</ele><time>2026-04-25T08:47:11.999Z</time></trkpt><trkpt lat="44.017762529819464" lon="7.963360621799857"><ele>700.5</ele><time>2026-04-25T08:47:12.999Z</time></trkpt><trkpt lat="44.01767504779529" lon="7.963287402751945"><ele>702.75</ele><time>2026-04-25T08:47:13.999Z</time></trkpt><trkpt lat="44.0175791776013" lon="7.96317966424376"><ele>705.0</ele><time>2026-04-25T08:47:14.999Z</time></trkpt><trkpt lat="44.01748755288311" lon="7.963096537836495"><ele>704.2</ele><time>2026-04-25T08:47:15.999Z</time></trkpt><trkpt lat="44.017397399317254" lon="7.963036621076805"><ele>703.4</ele><time>2026-04-25T08:47:16.999Z</time></trkpt><trkpt lat="44.01732773213479" lon="7.962982530463822"><ele>702.5999999999999</ele><time>2026-04-25T08:47:17.999Z</time></trkpt><trkpt lat="44.01726470262008" lon="7.962891535830898"><ele>701.8</ele><time>2026-04-25T08:47:19Z</time></trkpt><trkpt lat="44.0172078266551" lon="7.962793359192521"><ele>701.0</ele><time>2026-04-25T08:47:20Z</time></trkpt><trkpt lat="44.01714184511102" lon="7.9627099210404495"><ele>701.0</ele><time>2026-04-25T08:47:21Z</time></trkpt><trkpt lat="44.01707613780448" lon="7.962637327824046"><ele>701.0</ele><time>2026-04-25T08:47:22Z</time></trkpt><trkpt lat="44.01701543499653" lon="7.962578523430273"><ele>701.0</ele><time>2026-04-25T08:47:23Z</time></trkpt><trkpt lat="44.01697147367708" lon="7.962482631615127"><ele>701.0</ele><time>2026-04-25T08:47:24Z</time></trkpt><trkpt lat="44.0169487180724" lon="7.962389279626745"><ele>701.0</ele><time>2026-04-25T08:47:25Z</time></trkpt><trkpt lat="44.01692829317778" lon="7.962272069383264"><ele>701.0</ele><time>2026-04-25T08:47:27Z</time></trkpt><trkpt lat="44.01689250299128" lon="7.962139292972055"><ele>701.6666666666666</ele><time>2026-04-25T08:47:40Z</time></trkpt><trkpt lat="44.0168330505486" lon="7.962077058238067"><ele>702.3333333333333</ele><time>2026-04-25T08:47:41Z</time></trkpt><trkpt lat="44.01675899873849" lon="7.962015136117608"><ele>703.0</ele><time>2026-04-25T08:47:42Z</time></trkpt><trkpt lat="44.016677515246066" lon="7.961920138103806"><ele>703.6666666666666</ele><time>2026-04-25T08:47:43Z</time></trkpt><trkpt lat="44.01659091302588" lon="7.961866960297784"><ele>704.3333333333334</ele><time>2026-04-25T08:47:44Z</time></trkpt><trkpt lat="44.0165238284457" lon="7.961820128691055"><ele>705.0</ele><time>2026-04-25T08:47:45Z</time></trkpt><trkpt lat="44.016419690053404" lon="7.961766487800397"><ele>705.0</ele><time>2026-04-25T08:47:46Z</time></trkpt><trkpt lat="44.016314994773715" lon="7.961716519226591"><ele>705.0</ele><time>2026-04-25T08:47:47Z</time></trkpt><trkpt lat="44.01621514219712" lon="7.961667791934271"><ele>705.0</ele><time>2026-04-25T08:47:48Z</time></trkpt><trkpt lat="44.016125593998865" lon="7.9616004752658345"><ele>705.0</ele><time>2026-04-25T08:47:49Z</time></trkpt><trkpt lat="44.01604667982567" lon="7.961515990130099"><ele>705.0</ele><time>2026-04-25T08:47:50Z</time></trkpt><trkpt lat="44.015977154285004" lon="7.961431412447329"><ele>705.8</ele><time>2026-04-25T08:47:51Z</time></trkpt><trkpt lat="44.015910431503734" lon="7.961366612107481"><ele>706.6</ele><time>2026-04-25T08:47:52Z</time></trkpt><trkpt lat="44.01586319307972" lon="7.961299887612243"><ele>707.4000000000001</ele><time>2026-04-25T08:47:53Z</time></trkpt><trkpt lat="44.01577509646919" lon="7.9612098954101675"><ele>708.2</ele><time>2026-04-25T08:47:55Z</time></trkpt><trkpt lat="44.015629786582025" lon="7.961209128414793"><ele>709.0</ele><time>2026-04-25T08:47:57Z</time></trkpt><trkpt lat="44.015526388633845" lon="7.961199018336648"><ele>704.8000000000001</ele><time>2026-04-25T08:47:58Z</time></trkpt><trkpt lat="44.01542585955815" lon="7.961172124236541"><ele>700.6</ele><time>2026-04-25T08:47:59Z</time></trkpt><trkpt lat="44.01534108454363" lon="7.9611493607538035"><ele>696.4</ele><time>2026-04-25T08:48:00Z</time></trkpt><trkpt lat="44.01525771843272" lon="7.96113442781226"><ele>692.2</ele><time>2026-04-25T08:48:01Z</time></trkpt><trkpt lat="44.015153134722446" lon="7.96110878847497"><ele>688.0</ele><time>2026-04-25T08:48:02Z</time></trkpt><trkpt lat="44.01505921257349" lon="7.961089260629842"><ele>683.8333333333334</ele><time>2026-04-25T08:48:03Z</time></trkpt><trkpt lat="44.014982877250084" lon="7.961064306843697"><ele>679.6666666666667</ele><time>2026-04-25T08:48:04Z</time></trkpt><trkpt lat="44.01490938877083" lon="7.961037737592542"><ele>675.5</ele><time>2026-04-25T08:48:05Z</time></trkpt><trkpt lat="44.014848709758496" lon="7.96098209251418"><ele>671.3333333333334</ele><time>2026-04-25T08:48:06Z</time></trkpt><trkpt lat="44.01478562025346" lon="7.960891864022904"><ele>667.1666666666666</ele><time>2026-04-25T08:48:07Z</time></trkpt><trkpt lat="44.01472911045339" lon="7.960791479808839"><ele>663.0</ele><time>2026-04-25T08:48:08Z</time></trkpt><trkpt lat="44.01468224430418" lon="7.9606783861531705"><ele>663.0</ele><time>2026-04-25T08:48:09Z</time></trkpt><trkpt lat="44.0146316382077" lon="7.9605733767056845"><ele>663.0</ele><time>2026-04-25T08:48:10Z</time></trkpt><trkpt lat="44.014592423552706" lon="7.960470973040454"><ele>663.0</ele><time>2026-04-25T08:48:11Z</time></trkpt><trkpt lat="44.0145402676853" lon="7.960391540173383"><ele>663.0</ele><time>2026-04-25T08:48:12Z</time></trkpt><trkpt lat="44.01449056921267" lon="7.960317383340061"><ele>663.0</ele><time>2026-04-25T08:48:13Z</time></trkpt><trkpt lat="44.01442539774809" lon="7.960244933701721"><ele>663.0</ele><time>2026-04-25T08:48:14Z</time></trkpt><trkpt lat="44.01435249298699" lon="7.9601682905543765"><ele>663.0</ele><time>2026-04-25T08:48:15Z</time></trkpt><trkpt lat="44.01428543368244" lon="7.960094191651923"><ele>663.0</ele><time>2026-04-25T08:48:15.999Z</time></trkpt><trkpt lat="44.01423271227452" lon="7.960013206468018"><ele>663.0</ele><time>2026-04-25T08:48:16.999Z</time></trkpt><trkpt lat="44.01418935700819" lon="7.959905811181612"><ele>663.0</ele><time>2026-04-25T08:48:17.999Z</time></trkpt><trkpt lat="44.014147158862784" lon="7.959787099335903"><ele>663.0</ele><time>2026-04-25T08:48:18.999Z</time></trkpt><trkpt lat="44.01411885980053" lon="7.959689591753719"><ele>663.0</ele><time>2026-04-25T08:48:19.999Z</time></trkpt><trkpt lat="44.01405006981734" lon="7.959578391281042"><ele>657.8333333333334</ele><time>2026-04-25T08:48:21.999Z</time></trkpt><trkpt lat="44.01395350472089" lon="7.959544971912249"><ele>652.6666666666666</ele><time>2026-04-25T08:48:23.999Z</time></trkpt><trkpt lat="44.01386265736447" lon="7.959537257680538"><ele>647.5</ele><time>2026-04-25T08:48:25.999Z</time></trkpt><trkpt lat="44.013872950865796" lon="7.959443739988771"><ele>642.3333333333333</ele><time>2026-04-25T08:49:16.999Z</time></trkpt><trkpt lat="44.01398947692463" lon="7.959481184426706"><ele>637.1666666666666</ele><time>2026-04-25T08:49:18.999Z</time></trkpt><trkpt lat="44.014041655490296" lon="7.959429630174647"><ele>632.0</ele><time>2026-04-25T08:49:20.999Z</time></trkpt><trkpt lat="44.014032159679815" lon="7.95932871397256"><ele>632.0</ele><time>2026-04-25T08:49:21.999Z</time></trkpt><trkpt lat="44.013995571968586" lon="7.959211911733168"><ele>632.0</ele><time>2026-04-25T08:49:22.999Z</time></trkpt><trkpt lat="44.013941851530426" lon="7.9591120009252165"><ele>632.0</ele><time>2026-04-25T08:49:25Z</time></trkpt><trkpt lat="44.01398768946434" lon="7.9592041056861484"><ele>632.0</ele><time>2026-04-25T08:49:33Z</time></trkpt><trkpt lat="44.01402336159793" lon="7.959295357332737"><ele>632.0</ele><time>2026-04-25T08:49:35Z</time></trkpt><trkpt lat="44.01402988650717" lon="7.959399800759021"><ele>632.0</ele><time>2026-04-25T08:49:38Z</time></trkpt><trkpt lat="44.0139563948056" lon="7.959437903855352"><ele>632.0</ele><time>2026-04-25T08:49:58Z</time></trkpt><trkpt lat="44.01389108820978" lon="7.959438004414785"><ele>632.0</ele><time>2026-04-25T08:49:59Z</time></trkpt><trkpt lat="44.01382295633264" lon="7.959408346239645"><ele>632.0</ele><time>2026-04-25T08:50:00Z</time></trkpt><trkpt lat="44.01374323284293" lon="7.959359782179013"><ele>632.0</ele><time>2026-04-25T08:50:01Z</time></trkpt><trkpt lat="44.01365817939791" lon="7.959286969271305"><ele>632.0</ele><time>2026-04-25T08:50:02Z</time></trkpt><trkpt lat="44.01357079754959" lon="7.959202879651063"><ele>632.0</ele><time>2026-04-25T08:50:03Z</time></trkpt><trkpt lat="44.01347507885311" lon="7.959113477604884"><ele>631.0</ele><time>2026-04-25T08:50:04Z</time></trkpt><trkpt lat="44.013371661319006" lon="7.959039464943927"><ele>630.0</ele><time>2026-04-25T08:50:05Z</time></trkpt><trkpt lat="44.01326691650673" lon="7.95898913936773"><ele>629.0</ele><time>2026-04-25T08:50:06Z</time></trkpt><trkpt lat="44.01316801592051" lon="7.958964342479669"><ele>628.0</ele><time>2026-04-25T08:50:07Z</time></trkpt><trkpt lat="44.013075351255836" lon="7.958932951255793"><ele>627.0</ele><time>2026-04-25T08:50:08Z</time></trkpt><trkpt lat="44.01298931401456" lon="7.958864418487126"><ele>627.0</ele><time>2026-04-25T08:50:09Z</time></trkpt><trkpt lat="44.012901143154146" lon="7.958781211675881"><ele>627.0</ele><time>2026-04-25T08:50:10Z</time></trkpt><trkpt lat="44.01280769260952" lon="7.958691363185537"><ele>627.0</ele><time>2026-04-25T08:50:11Z</time></trkpt><trkpt lat="44.01273923030626" lon="7.958581646268858"><ele>627.0</ele><time>2026-04-25T08:50:12Z</time></trkpt><trkpt lat="44.01266951638883" lon="7.958481776249962"><ele>627.0</ele><time>2026-04-25T08:50:13Z</time></trkpt><trkpt lat="44.01258956998203" lon="7.958407317790288"><ele>624.8000000000001</ele><time>2026-04-25T08:50:14Z</time></trkpt><trkpt lat="44.01248944077209" lon="7.958386303394318"><ele>622.6</ele><time>2026-04-25T08:50:15Z</time></trkpt><trkpt lat="44.012379050260115" lon="7.958400396815171"><ele>620.4000000000001</ele><time>2026-04-25T08:50:16Z</time></trkpt><trkpt lat="44.01227513943022" lon="7.958421424835634"><ele>618.2</ele><time>2026-04-25T08:50:17Z</time></trkpt><trkpt lat="44.01216212586761" lon="7.958435143289066"><ele>616.0</ele><time>2026-04-25T08:50:18Z</time></trkpt><trkpt lat="44.01207188014117" lon="7.9584314377255945"><ele>616.0</ele><time>2026-04-25T08:50:19Z</time></trkpt><trkpt lat="44.01198476768172" lon="7.9584033642694045"><ele>616.0</ele><time>2026-04-25T08:50:20Z</time></trkpt><trkpt lat="44.01191794286328" lon="7.9583450634290545"><ele>616.0</ele><time>2026-04-25T08:50:21Z</time></trkpt><trkpt lat="44.01184359021476" lon="7.958275395854153"><ele>616.0</ele><time>2026-04-25T08:50:22Z</time></trkpt><trkpt lat="44.0117114906519" lon="7.958200979843851"><ele>616.0</ele><time>2026-04-25T08:50:24Z</time></trkpt><trkpt lat="44.011621373788415" lon="7.958261182087392"><ele>615.6</ele><time>2026-04-25T08:50:25Z</time></trkpt><trkpt lat="44.011536437855895" lon="7.958347751271879"><ele>615.2</ele><time>2026-04-25T08:50:25.999Z</time></trkpt><trkpt lat="44.011430351348075" lon="7.958368841033664"><ele>614.8</ele><time>2026-04-25T08:50:26.999Z</time></trkpt><trkpt lat="44.01135608485114" lon="7.9583962890952895"><ele>614.4</ele><time>2026-04-25T08:50:27.999Z</time></trkpt><trkpt lat="44.01126610003899" lon="7.958350481470495"><ele>614.0</ele><time>2026-04-25T08:50:28.999Z</time></trkpt><trkpt lat="44.01116560566558" lon="7.958295088359075"><ele>617.6</ele><time>2026-04-25T08:50:29.999Z</time></trkpt><trkpt lat="44.01106432052267" lon="7.9582486313242375"><ele>621.2</ele><time>2026-04-25T08:50:30.999Z</time></trkpt><trkpt lat="44.010973395268465" lon="7.958256369461658"><ele>624.8000000000001</ele><time>2026-04-25T08:50:31.999Z</time></trkpt><trkpt lat="44.01089979522694" lon="7.958210078257427"><ele>628.4</ele><time>2026-04-25T08:50:32.999Z</time></trkpt><trkpt lat="44.01084747256599" lon="7.958123846692626"><ele>632.0</ele><time>2026-04-25T08:50:33.999Z</time></trkpt><trkpt lat="44.010830283757755" lon="7.957977355360501"><ele>632.0</ele><time>2026-04-25T08:50:34.999Z</time></trkpt><trkpt lat="44.01080587765507" lon="7.957820468192377"><ele>632.0</ele><time>2026-04-25T08:50:35.999Z</time></trkpt><trkpt lat="44.01083171226306" lon="7.957684291876223"><ele>632.0</ele><time>2026-04-25T08:50:36.999Z</time></trkpt><trkpt lat="44.01084901414765" lon="7.957551028509145"><ele>632.0</ele><time>2026-04-25T08:50:37.999Z</time></trkpt><trkpt lat="44.010879987437406" lon="7.957432724633898"><ele>632.0</ele><time>2026-04-25T08:50:38.999Z</time></trkpt><trkpt lat="44.010880403668565" lon="7.957306430341952"><ele>633.0</ele><time>2026-04-25T08:50:39.999Z</time></trkpt><trkpt lat="44.01084237895825" lon="7.957196414692851"><ele>634.0</ele><time>2026-04-25T08:50:40.999Z</time></trkpt><trkpt lat="44.01076103050733" lon="7.957102495547597"><ele>635.0</ele><time>2026-04-25T08:50:41.999Z</time></trkpt><trkpt lat="44.01067610441094" lon="7.957011771497308"><ele>636.0</ele><time>2026-04-25T08:50:42.999Z</time></trkpt><trkpt lat="44.010623909503686" lon="7.956867473447396"><ele>637.0</ele><time>2026-04-25T08:50:43.999Z</time></trkpt><trkpt lat="44.010584090767836" lon="7.9567243531941"><ele>631.0</ele><time>2026-04-25T08:50:44.999Z</time></trkpt><trkpt lat="44.010530208897045" lon="7.9565955226916305"><ele>625.0</ele><time>2026-04-25T08:50:45.999Z</time></trkpt><trkpt lat="44.01045912451316" lon="7.95651114998569"><ele>619.0</ele><time>2026-04-25T08:50:46.999Z</time></trkpt><trkpt lat="44.01036194453849" lon="7.956447750979467"><ele>613.0</ele><time>2026-04-25T08:50:47.999Z</time></trkpt><trkpt lat="44.010280127473095" lon="7.956385908203797"><ele>607.0</ele><time>2026-04-25T08:50:48.999Z</time></trkpt><trkpt lat="44.010219461598034" lon="7.956319032693233"><ele>607.0</ele><time>2026-04-25T08:50:49.999Z</time></trkpt><trkpt lat="44.0101944639183" lon="7.956215853239433"><ele>607.0</ele><time>2026-04-25T08:50:50.999Z</time></trkpt><trkpt lat="44.010186516492084" lon="7.956088192040285"><ele>607.0</ele><time>2026-04-25T08:50:51.999Z</time></trkpt><trkpt lat="44.01022207860266" lon="7.9559636053098535"><ele>607.0</ele><time>2026-04-25T08:50:52.999Z</time></trkpt><trkpt lat="44.01030220371309" lon="7.955870292603496"><ele>607.0</ele><time>2026-04-25T08:50:53.999Z</time></trkpt><trkpt lat="44.01039644916139" lon="7.955828358297856"><ele>606.0</ele><time>2026-04-25T08:50:54.999Z</time></trkpt><trkpt lat="44.01048924675132" lon="7.955818330258725"><ele>605.0</ele><time>2026-04-25T08:50:55.999Z</time></trkpt><trkpt lat="44.01056150290336" lon="7.95578269433186"><ele>604.0</ele><time>2026-04-25T08:50:56.999Z</time></trkpt><trkpt lat="44.01060061016418" lon="7.955699744087616"><ele>603.0</ele><time>2026-04-25T08:50:57.999Z</time></trkpt><trkpt lat="44.01061597672924" lon="7.9556099991111235"><ele>602.0</ele><time>2026-04-25T08:50:58.999Z</time></trkpt><trkpt lat="44.010625712116116" lon="7.955498627261932"><ele>601.0</ele><time>2026-04-25T08:51:00.999Z</time></trkpt><trkpt lat="44.0106816572585" lon="7.9553472760781725"><ele>601.0</ele><time>2026-04-25T08:51:02.999Z</time></trkpt><trkpt lat="44.01072494949473" lon="7.955251523893512"><ele>601.0</ele><time>2026-04-25T08:51:03.999Z</time></trkpt><trkpt lat="44.01075578194306" lon="7.955143298660311"><ele>601.0</ele><time>2026-04-25T08:51:04.999Z</time></trkpt><trkpt lat="44.010782707395634" lon="7.955029380879295"><ele>601.0</ele><time>2026-04-25T08:51:05.999Z</time></trkpt><trkpt lat="44.01080604794643" lon="7.954912406268825"><ele>601.0</ele><time>2026-04-25T08:51:06.999Z</time></trkpt><trkpt lat="44.010802896584174" lon="7.954779659152896"><ele>601.0</ele><time>2026-04-25T08:51:07.999Z</time></trkpt><trkpt lat="44.010774230991196" lon="7.9546413192193945"><ele>599.6</ele><time>2026-04-25T08:51:08.999Z</time></trkpt><trkpt lat="44.01073779556618" lon="7.954512494490406"><ele>598.2</ele><time>2026-04-25T08:51:09.999Z</time></trkpt><trkpt lat="44.01069253551036" lon="7.954383819922125"><ele>596.8</ele><time>2026-04-25T08:51:10.999Z</time></trkpt><trkpt lat="44.01064698854658" lon="7.954256110264594"><ele>595.4</ele><time>2026-04-25T08:51:11.999Z</time></trkpt><trkpt lat="44.01060752248911" lon="7.954127045266437"><ele>594.0</ele><time>2026-04-25T08:51:12.999Z</time></trkpt><trkpt lat="44.01056537952023" lon="7.953992297214619"><ele>594.0</ele><time>2026-04-25T08:51:13.999Z</time></trkpt><trkpt lat="44.010528845914614" lon="7.953868233446278"><ele>594.0</ele><time>2026-04-25T08:51:14.999Z</time></trkpt><trkpt lat="44.01049545652378" lon="7.953772505769863"><ele>594.0</ele><time>2026-04-25T08:51:15.999Z</time></trkpt><trkpt lat="44.01047911011531" lon="7.953675451322344"><ele>594.0</ele><time>2026-04-25T08:51:16.999Z</time></trkpt><trkpt lat="44.01044554721339" lon="7.953600712584538"><ele>594.0</ele><time>2026-04-25T08:51:17.999Z</time></trkpt><trkpt lat="44.01041440176924" lon="7.953519036337396"><ele>594.0</ele><time>2026-04-25T08:51:18.999Z</time></trkpt><trkpt lat="44.01038365089342" lon="7.953429213339995"><ele>594.0</ele><time>2026-04-25T08:51:19.999Z</time></trkpt><trkpt lat="44.01035213004451" lon="7.9533300070195105"><ele>597.0</ele><time>2026-04-25T08:51:20.999Z</time></trkpt><trkpt lat="44.01031915983276" lon="7.953224088744454"><ele>600.0</ele><time>2026-04-25T08:51:21.999Z</time></trkpt><trkpt lat="44.01029117473212" lon="7.95310491969861"><ele>603.0</ele><time>2026-04-25T08:51:22.999Z</time></trkpt><trkpt lat="44.01026217857255" lon="7.95298366455728"><ele>606.0</ele><time>2026-04-25T08:51:23.999Z</time></trkpt><trkpt lat="44.01025238531838" lon="7.952844549713378"><ele>609.0</ele><time>2026-04-25T08:51:24.999Z</time></trkpt><trkpt lat="44.01024658901284" lon="7.9527002574552625"><ele>609.0</ele><time>2026-04-25T08:51:25.999Z</time></trkpt><trkpt lat="44.010239840351005" lon="7.952550540045584"><ele>609.0</ele><time>2026-04-25T08:51:26.999Z</time></trkpt><trkpt lat="44.01023139526825" lon="7.952400611553164"><ele>609.0</ele><time>2026-04-25T08:51:27.999Z</time></trkpt><trkpt lat="44.010224067085055" lon="7.95225163967348"><ele>609.0</ele><time>2026-04-25T08:51:28.999Z</time></trkpt><trkpt lat="44.01022926606419" lon="7.952109203717903"><ele>609.0</ele><time>2026-04-25T08:51:29.999Z</time></trkpt><trkpt lat="44.010246587100006" lon="7.951956709704555"><ele>611.5</ele><time>2026-04-25T08:51:31Z</time></trkpt><trkpt lat="44.01027220225253" lon="7.951809758933998"><ele>614.0</ele><time>2026-04-25T08:51:32Z</time></trkpt><trkpt lat="44.01031242520503" lon="7.951663468283086"><ele>616.5</ele><time>2026-04-25T08:51:33Z</time></trkpt><trkpt lat="44.01033445318178" lon="7.9515061267124585"><ele>619.0</ele><time>2026-04-25T08:51:34Z</time></trkpt><trkpt lat="44.01030836867219" lon="7.951338002960064"><ele>620.5</ele><time>2026-04-25T08:51:35Z</time></trkpt><trkpt lat="44.010248331495724" lon="7.951176052423157"><ele>622.0</ele><time>2026-04-25T08:51:36Z</time></trkpt><trkpt lat="44.0101577796368" lon="7.9510399915476855"><ele>623.5</ele><time>2026-04-25T08:51:37Z</time></trkpt><trkpt lat="44.01005653312906" lon="7.950932512356862"><ele>625.0</ele><time>2026-04-25T08:51:38Z</time></trkpt><trkpt lat="44.009951606505645" lon="7.950873756606576"><ele>625.0</ele><time>2026-04-25T08:51:39Z</time></trkpt><trkpt lat="44.00983886118757" lon="7.950858078460745"><ele>625.0</ele><time>2026-04-25T08:51:40Z</time></trkpt><trkpt lat="44.00973276504709" lon="7.950829842483339"><ele>625.0</ele><time>2026-04-25T08:51:41Z</time></trkpt><trkpt lat="44.00963786649125" lon="7.950778381892556"><ele>625.0</ele><time>2026-04-25T08:51:42Z</time></trkpt><trkpt lat="44.00953475887307" lon="7.950713076447925"><ele>625.0</ele><time>2026-04-25T08:51:43Z</time></trkpt><trkpt lat="44.00944249789328" lon="7.950621555048402"><ele>625.0</ele><time>2026-04-25T08:51:44Z</time></trkpt><trkpt lat="44.00936906721579" lon="7.950508132825916"><ele>625.0</ele><time>2026-04-25T08:51:45Z</time></trkpt><trkpt lat="44.00932266612278" lon="7.950364923879986"><ele>625.0</ele><time>2026-04-25T08:51:46Z</time></trkpt><trkpt lat="44.00929187496218" lon="7.9502043556106665"><ele>625.0</ele><time>2026-04-25T08:51:47Z</time></trkpt><trkpt lat="44.00928085135345" lon="7.950033969302155"><ele>625.0</ele><time>2026-04-25T08:51:48Z</time></trkpt><trkpt lat="44.00929608630871" lon="7.94986805894258"><ele>625.0</ele><time>2026-04-25T08:51:49Z</time></trkpt><trkpt lat="44.00933722423652" lon="7.949711550176732"><ele>625.0</ele><time>2026-04-25T08:51:50Z</time></trkpt><trkpt lat="44.009386684508414" lon="7.949558861855234"><ele>625.0</ele><time>2026-04-25T08:51:51Z</time></trkpt><trkpt lat="44.00943102388834" lon="7.949399897039417"><ele>625.0</ele><time>2026-04-25T08:51:52Z</time></trkpt><trkpt lat="44.00947141682524" lon="7.949239377531465"><ele>625.0</ele><time>2026-04-25T08:51:53Z</time></trkpt><trkpt lat="44.00951930288946" lon="7.949080980549167"><ele>625.0</ele><time>2026-04-25T08:51:54Z</time></trkpt><trkpt lat="44.00957336841809" lon="7.948944720244315"><ele>625.0</ele><time>2026-04-25T08:51:55Z</time></trkpt><trkpt lat="44.009614408040825" lon="7.9488186268267516"><ele>623.6</ele><time>2026-04-25T08:51:56Z</time></trkpt><trkpt lat="44.009614896808806" lon="7.948704008010142"><ele>622.2</ele><time>2026-04-25T08:51:57Z</time></trkpt><trkpt lat="44.009577699133935" lon="7.948599410216459"><ele>620.8</ele><time>2026-04-25T08:51:58Z</time></trkpt><trkpt lat="44.00950215735379" lon="7.948547639916541"><ele>619.4</ele><time>2026-04-25T08:51:59Z</time></trkpt><trkpt lat="44.00940324925314" lon="7.948541165137962"><ele>618.0</ele><time>2026-04-25T08:52:00Z</time></trkpt><trkpt lat="44.00928478849272" lon="7.948563853184788"><ele>622.5</ele><time>2026-04-25T08:52:01Z</time></trkpt><trkpt lat="44.00914905311768" lon="7.94858343359818"><ele>627.0</ele><time>2026-04-25T08:52:02Z</time></trkpt><trkpt lat="44.009012097175" lon="7.948596017881265"><ele>631.5</ele><time>2026-04-25T08:52:03Z</time></trkpt><trkpt lat="44.00888447683458" lon="7.948602946551697"><ele>636.0</ele><time>2026-04-25T08:52:04Z</time></trkpt><trkpt lat="44.00876665497471" lon="7.948589555797033"><ele>636.0</ele><time>2026-04-25T08:52:05Z</time></trkpt><trkpt lat="44.00866437633601" lon="7.948563842883636"><ele>636.0</ele><time>2026-04-25T08:52:06Z</time></trkpt><trkpt lat="44.008563092326604" lon="7.948548863657177"><ele>636.0</ele><time>2026-04-25T08:52:07Z</time></trkpt><trkpt lat="44.00847225306258" lon="7.948536182703249"><ele>636.0</ele><time>2026-04-25T08:52:08Z</time></trkpt><trkpt lat="44.008383452997535" lon="7.948517901060357"><ele>636.0</ele><time>2026-04-25T08:52:09Z</time></trkpt><trkpt lat="44.00830639497796" lon="7.948499270171184"><ele>635.5</ele><time>2026-04-25T08:52:10Z</time></trkpt><trkpt lat="44.00825296613036" lon="7.948434609859512"><ele>635.0</ele><time>2026-04-25T08:52:11Z</time></trkpt><trkpt lat="44.0082362339175" lon="7.948323008703541"><ele>634.5</ele><time>2026-04-25T08:52:12Z</time></trkpt><trkpt lat="44.008257231987876" lon="7.948194469974527"><ele>634.0</ele><time>2026-04-25T08:52:13Z</time></trkpt><trkpt lat="44.00825429270905" lon="7.948074391909682"><ele>633.5</ele><time>2026-04-25T08:52:14Z</time></trkpt><trkpt lat="44.00824106674016" lon="7.947956210204451"><ele>633.0</ele><time>2026-04-25T08:52:15Z</time></trkpt><trkpt lat="44.00823242420619" lon="7.947841987241606"><ele>633.0</ele><time>2026-04-25T08:52:16Z</time></trkpt><trkpt lat="44.0082188193591" lon="7.94772658488188"><ele>633.0</ele><time>2026-04-25T08:52:17Z</time></trkpt><trkpt lat="44.00820431103841" lon="7.947612230651625"><ele>633.0</ele><time>2026-04-25T08:52:18Z</time></trkpt><trkpt lat="44.00818620508354" lon="7.947485452155625"><ele>633.0</ele><time>2026-04-25T08:52:19Z</time></trkpt><trkpt lat="44.00817078060939" lon="7.947370545856926"><ele>633.0</ele><time>2026-04-25T08:52:20Z</time></trkpt><trkpt lat="44.008143997676" lon="7.947264550542779"><ele>633.0</ele><time>2026-04-25T08:52:21Z</time></trkpt><trkpt lat="44.00809136749494" lon="7.947183003642934"><ele>629.4285714285714</ele><time>2026-04-25T08:52:22Z</time></trkpt><trkpt lat="44.00802880258978" lon="7.947123247088422"><ele>625.8571428571429</ele><time>2026-04-25T08:52:23Z</time></trkpt><trkpt lat="44.007963258070895" lon="7.947070969574719"><ele>622.2857142857142</ele><time>2026-04-25T08:52:23.999Z</time></trkpt><trkpt lat="44.00790023708854" lon="7.947065983813721"><ele>618.7142857142858</ele><time>2026-04-25T08:52:24.999Z</time></trkpt><trkpt lat="44.00783815295101" lon="7.947080892962402"><ele>615.1428571428572</ele><time>2026-04-25T08:52:25.999Z</time></trkpt><trkpt lat="44.00777279544225" lon="7.947091711719016"><ele>611.5714285714286</ele><time>2026-04-25T08:52:26.999Z</time></trkpt><trkpt lat="44.007673679699224" lon="7.947112866642467"><ele>608.0</ele><time>2026-04-25T08:52:28.999Z</time></trkpt><trkpt lat="44.00759464448936" lon="7.94712366520347"><ele>608.0</ele><time>2026-04-25T08:52:30.999Z</time></trkpt><trkpt lat="44.00752006852461" lon="7.947149761501459"><ele>608.0</ele><time>2026-04-25T08:52:33.999Z</time></trkpt><trkpt lat="44.00744905587335" lon="7.947153228596347"><ele>608.0</ele><time>2026-04-25T08:52:35.999Z</time></trkpt><trkpt lat="44.00738069004307" lon="7.947134709276157"><ele>608.0</ele><time>2026-04-25T08:52:37.999Z</time></trkpt><trkpt lat="44.00731680304009" lon="7.947050033241533"><ele>608.0</ele><time>2026-04-25T08:52:40.999Z</time></trkpt><trkpt lat="44.00729163352944" lon="7.9469320040508835"><ele>608.0</ele><time>2026-04-25T08:52:43.999Z</time></trkpt><trkpt lat="44.00729499894068" lon="7.94682712839193"><ele>611.0</ele><time>2026-04-25T08:52:45.999Z</time></trkpt><trkpt lat="44.007342298910295" lon="7.946649521110271"><ele>614.0</ele><time>2026-04-25T08:52:47.999Z</time></trkpt><trkpt lat="44.007385283276285" lon="7.946498999536635"><ele>617.0</ele><time>2026-04-25T08:52:49.999Z</time></trkpt><trkpt lat="44.007443634035184" lon="7.946357803977922"><ele>620.0</ele><time>2026-04-25T08:52:52.999Z</time></trkpt><trkpt lat="44.00737235774651" lon="7.946501231900742"><ele>620.0</ele><time>2026-04-25T08:53:13.999Z</time></trkpt><trkpt lat="44.00733083023283" lon="7.946668856626226"><ele>620.0</ele><time>2026-04-25T08:53:14.999Z</time></trkpt><trkpt lat="44.007293732083134" lon="7.946784440090988"><ele>620.0</ele><time>2026-04-25T08:53:15.999Z</time></trkpt><trkpt lat="44.00726255994041" lon="7.946910167885977"><ele>620.0</ele><time>2026-04-25T08:53:16.999Z</time></trkpt><trkpt lat="44.00726507532367" lon="7.947049235566788"><ele>620.0</ele><time>2026-04-25T08:53:17.999Z</time></trkpt><trkpt lat="44.007296580368696" lon="7.9471504887921345"><ele>622.2</ele><time>2026-04-25T08:53:18.999Z</time></trkpt><trkpt lat="44.007357496222916" lon="7.9472139671618605"><ele>624.4</ele><time>2026-04-25T08:53:19.999Z</time></trkpt><trkpt lat="44.007436080058774" lon="7.947250843777627"><ele>626.6</ele><time>2026-04-25T08:53:20.999Z</time></trkpt><trkpt lat="44.00753829315905" lon="7.947228947258823"><ele>628.8</ele><time>2026-04-25T08:53:21.999Z</time></trkpt><trkpt lat="44.00765380344877" lon="7.947183860553533"><ele>631.0</ele><time>2026-04-25T08:53:22.999Z</time></trkpt><trkpt lat="44.007807663469606" lon="7.947134481000763"><ele>626.4</ele><time>2026-04-25T08:53:23.999Z</time></trkpt><trkpt lat="44.007940201652" lon="7.947112517187967"><ele>621.8</ele><time>2026-04-25T08:53:24.999Z</time></trkpt><trkpt lat="44.00803140289381" lon="7.947146620341336"><ele>617.1999999999999</ele><time>2026-04-25T08:53:25.999Z</time></trkpt><trkpt lat="44.00809660950887" lon="7.947249098604321"><ele>612.6</ele><time>2026-04-25T08:53:26.999Z</time></trkpt><trkpt lat="44.00814601983611" lon="7.947384597108225"><ele>608.0</ele><time>2026-04-25T08:53:27.999Z</time></trkpt><trkpt lat="44.0081718123669" lon="7.947536859935842"><ele>616.3333333333333</ele><time>2026-04-25T08:53:28.999Z</time></trkpt><trkpt lat="44.008177265158515" lon="7.9477182655093515"><ele>624.6666666666666</ele><time>2026-04-25T08:53:29.999Z</time></trkpt><trkpt lat="44.00819865358629" lon="7.947943193705887"><ele>633.0</ele><time>2026-04-25T08:53:30.999Z</time></trkpt><trkpt lat="44.00821233457718" lon="7.94817632267201"><ele>633.0</ele><time>2026-04-25T08:53:31.999Z</time></trkpt><trkpt lat="44.00819795819276" lon="7.9483465097775285"><ele>633.0</ele><time>2026-04-25T08:53:32.999Z</time></trkpt><trkpt lat="44.00824874832908" lon="7.948500440103803"><ele>633.0</ele><time>2026-04-25T08:53:34.999Z</time></trkpt><trkpt lat="44.0083235394508" lon="7.9485507636534365"><ele>633.0</ele><time>2026-04-25T08:53:35.999Z</time></trkpt><trkpt lat="44.008414157711826" lon="7.948554158304439"><ele>633.0</ele><time>2026-04-25T08:53:37Z</time></trkpt><trkpt lat="44.00851781419797" lon="7.948546787126465"><ele>633.75</ele><time>2026-04-25T08:53:38Z</time></trkpt><trkpt lat="44.00865669647901" lon="7.948564840529355"><ele>634.5</ele><time>2026-04-25T08:53:39Z</time></trkpt><trkpt lat="44.0088094000773" lon="7.948591339139311"><ele>635.25</ele><time>2026-04-25T08:53:40Z</time></trkpt><trkpt lat="44.00891469097413" lon="7.948621154475423"><ele>636.0</ele><time>2026-04-25T08:53:41Z</time></trkpt><trkpt lat="44.00904314516066" lon="7.948625566153865"><ele>632.4</ele><time>2026-04-25T08:53:42Z</time></trkpt><trkpt lat="44.009161820082014" lon="7.948613875400369"><ele>628.8</ele><time>2026-04-25T08:53:43Z</time></trkpt><trkpt lat="44.00927268304865" lon="7.94859568656937"><ele>625.1999999999999</ele><time>2026-04-25T08:53:44Z</time></trkpt><trkpt lat="44.0093720025827" lon="7.948588686582111"><ele>621.6</ele><time>2026-04-25T08:53:45Z</time></trkpt><trkpt lat="44.009470392313716" lon="7.948601775899606"><ele>618.0</ele><time>2026-04-25T08:53:46Z</time></trkpt><trkpt lat="44.009553141653875" lon="7.948657331885212"><ele>618.0</ele><time>2026-04-25T08:53:47Z</time></trkpt><trkpt lat="44.009577829849846" lon="7.948765147876122"><ele>618.0</ele><time>2026-04-25T08:53:48Z</time></trkpt><trkpt lat="44.00955012077364" lon="7.948890597658897"><ele>618.0</ele><time>2026-04-25T08:53:49Z</time></trkpt><trkpt lat="44.00949650107271" lon="7.949027559674146"><ele>618.0</ele><time>2026-04-25T08:53:50Z</time></trkpt><trkpt lat="44.00944303276408" lon="7.949172393456532"><ele>618.0</ele><time>2026-04-25T08:53:51Z</time></trkpt><trkpt lat="44.009401328116354" lon="7.949325854277662"><ele>619.75</ele><time>2026-04-25T08:53:52Z</time></trkpt><trkpt lat="44.00935894393352" lon="7.949476842493075"><ele>621.5</ele><time>2026-04-25T08:53:53Z</time></trkpt><trkpt lat="44.00930888833632" lon="7.949622226770105"><ele>623.25</ele><time>2026-04-25T08:53:54Z</time></trkpt><trkpt lat="44.009263225709034" lon="7.9497695060713225"><ele>625.0</ele><time>2026-04-25T08:53:55Z</time></trkpt><trkpt lat="44.009226400476415" lon="7.9499139017009774"><ele>625.0</ele><time>2026-04-25T08:53:56Z</time></trkpt><trkpt lat="44.00920982897189" lon="7.950061244175767"><ele>625.0</ele><time>2026-04-25T08:53:57Z</time></trkpt><trkpt lat="44.009216377190434" lon="7.950200075107303"><ele>625.0</ele><time>2026-04-25T08:53:58Z</time></trkpt><trkpt lat="44.00924016781416" lon="7.950308373126293"><ele>625.0</ele><time>2026-04-25T08:53:59Z</time></trkpt><trkpt lat="44.00928053032456" lon="7.9504603358867145"><ele>625.0</ele><time>2026-04-25T08:54:01Z</time></trkpt><trkpt lat="44.009310027888645" lon="7.9505536828082395"><ele>625.0000000000001</ele><time>2026-04-25T08:54:03Z</time></trkpt><trkpt lat="44.00936199261613" lon="7.950624649532261"><ele>625.0</ele><time>2026-04-25T08:54:06Z</time></trkpt><trkpt lat="44.00941179222655" lon="7.95067955970013"><ele>625.0</ele><time>2026-04-25T08:54:08Z</time></trkpt><trkpt lat="44.00946710366981" lon="7.950722088543125"><ele>625.0</ele><time>2026-04-25T08:54:09Z</time></trkpt><trkpt lat="44.00953504665975" lon="7.950763795732493"><ele>625.0</ele><time>2026-04-25T08:54:10Z</time></trkpt><trkpt lat="44.00960283463769" lon="7.950800664558329"><ele>625.0000000000001</ele><time>2026-04-25T08:54:11Z</time></trkpt><trkpt lat="44.009692397326205" lon="7.950841653699926"><ele>625.0</ele><time>2026-04-25T08:54:13Z</time></trkpt><trkpt lat="44.009762658448786" lon="7.950824637270633"><ele>625.0</ele><time>2026-04-25T08:54:15Z</time></trkpt><trkpt lat="44.009855926077265" lon="7.95080959563961"><ele>625.0</ele><time>2026-04-25T08:54:17Z</time></trkpt><trkpt lat="44.009939770404415" lon="7.950823805996568"><ele>625.0</ele><time>2026-04-25T08:54:19Z</time></trkpt><trkpt lat="44.00997634761975" lon="7.950895991115136"><ele>625.0</ele><time>2026-04-25T08:54:27Z</time></trkpt><trkpt lat="44.010024689364165" lon="7.9509856709821465"><ele>625.0</ele><time>2026-04-25T08:54:28.999Z</time></trkpt><trkpt lat="44.0100837649779" lon="7.951029014845198"><ele>625.0</ele><time>2026-04-25T08:54:29.999Z</time></trkpt><trkpt lat="44.01012763267496" lon="7.951102519720794"><ele>625.0</ele><time>2026-04-25T08:54:30.999Z</time></trkpt><trkpt lat="44.01018186527193" lon="7.95118354805278"><ele>625.0</ele><time>2026-04-25T08:54:31.999Z</time></trkpt><trkpt lat="44.01022014574703" lon="7.9512912661677"><ele>625.0</ele><time>2026-04-25T08:54:32.999Z</time></trkpt><trkpt lat="44.01024237322608" lon="7.951401205151463"><ele>625.0</ele><time>2026-04-25T08:54:33.999Z</time></trkpt><trkpt lat="44.01025463424743" lon="7.95150466307951"><ele>625.0</ele><time>2026-04-25T08:54:34.999Z</time></trkpt><trkpt lat="44.010246464181975" lon="7.95167925793325"><ele>625.0</ele><time>2026-04-25T08:54:36.999Z</time></trkpt><trkpt lat="44.01019853943741" lon="7.951804106757222"><ele>625.0</ele><time>2026-04-25T08:54:38.999Z</time></trkpt><trkpt lat="44.010275066624374" lon="7.951747914075442"><ele>625.0</ele><time>2026-04-25T08:54:47.999Z</time></trkpt><trkpt lat="44.01029708534246" lon="7.9515871597966"><ele>625.0</ele><time>2026-04-25T08:54:48.999Z</time></trkpt><trkpt lat="44.010293015128475" lon="7.951397715717371"><ele>625.0</ele><time>2026-04-25T08:54:49.999Z</time></trkpt><trkpt lat="44.010255636735245" lon="7.9512585491741685"><ele>625.0</ele><time>2026-04-25T08:54:50.999Z</time></trkpt><trkpt lat="44.01020925197882" lon="7.951145048854436"><ele>625.0</ele><time>2026-04-25T08:54:51.999Z</time></trkpt><trkpt lat="44.01014856701504" lon="7.951031962805456"><ele>625.0</ele><time>2026-04-25T08:54:52.999Z</time></trkpt><trkpt lat="44.01006086880168" lon="7.950925220727478"><ele>625.0</ele><time>2026-04-25T08:54:53.999Z</time></trkpt><trkpt lat="44.0099597885385" lon="7.9508550972273495"><ele>625.0</ele><time>2026-04-25T08:54:54.999Z</time></trkpt><trkpt lat="44.009867294417035" lon="7.950817987803994"><ele>625.0</ele><time>2026-04-25T08:54:55.999Z</time></trkpt><trkpt lat="44.0097845981779" lon="7.950816351283696"><ele>625.0</ele><time>2026-04-25T08:54:56.999Z</time></trkpt><trkpt lat="44.00970596895776" lon="7.950758088340097"><ele>625.0</ele><time>2026-04-25T08:54:58.999Z</time></trkpt><trkpt lat="44.009652572140254" lon="7.9506758478124695"><ele>625.0</ele><time>2026-04-25T08:55:40.999Z</time></trkpt><trkpt lat="44.00958621943709" lon="7.950638795685162"><ele>625.0</ele><time>2026-04-25T08:55:41.999Z</time></trkpt><trkpt lat="44.009510446831904" lon="7.950609831251504"><ele>625.0</ele><time>2026-04-25T08:55:43Z</time></trkpt><trkpt lat="44.00943061434807" lon="7.95056336904255"><ele>625.0</ele><time>2026-04-25T08:55:44Z</time></trkpt><trkpt lat="44.009355651446135" lon="7.950473267318257"><ele>625.0</ele><time>2026-04-25T08:55:45Z</time></trkpt><trkpt lat="44.009298142646415" lon="7.950337320510066"><ele>625.0</ele><time>2026-04-25T08:55:46Z</time></trkpt><trkpt lat="44.00926893885688" lon="7.950202831789179"><ele>625.0</ele><time>2026-04-25T08:55:47Z</time></trkpt><trkpt lat="44.009264827271295" lon="7.950080107963276"><ele>625.0</ele><time>2026-04-25T08:55:48Z</time></trkpt><trkpt lat="44.00927307409836" lon="7.949957083732655"><ele>625.0</ele><time>2026-04-25T08:55:49Z</time></trkpt><trkpt lat="44.009301411350066" lon="7.949828037976582"><ele>625.0</ele><time>2026-04-25T08:55:50Z</time></trkpt><trkpt lat="44.009345989312614" lon="7.949697376024749"><ele>625.0</ele><time>2026-04-25T08:55:51Z</time></trkpt><trkpt lat="44.00938449471042" lon="7.949550188106132"><ele>625.0</ele><time>2026-04-25T08:55:52Z</time></trkpt><trkpt lat="44.00941770137683" lon="7.949410560323313"><ele>625.0</ele><time>2026-04-25T08:55:53Z</time></trkpt><trkpt lat="44.00945011836289" lon="7.949277195983805"><ele>625.0</ele><time>2026-04-25T08:55:54Z</time></trkpt><trkpt lat="44.00947738819495" lon="7.9491567134902255"><ele>623.8333333333334</ele><time>2026-04-25T08:55:55Z</time></trkpt><trkpt lat="44.00951269779654" lon="7.949056172818864"><ele>622.6666666666667</ele><time>2026-04-25T08:55:56Z</time></trkpt><trkpt lat="44.00956086901067" lon="7.948964404564831"><ele>621.5</ele><time>2026-04-25T08:55:57Z</time></trkpt><trkpt lat="44.00959963581752" lon="7.948869425962416"><ele>620.3333333333334</ele><time>2026-04-25T08:55:58Z</time></trkpt><trkpt lat="44.00961680859935" lon="7.948774087620405"><ele>619.1666666666666</ele><time>2026-04-25T08:55:59Z</time></trkpt><trkpt lat="44.009607250446976" lon="7.948680094974297"><ele>618.0</ele><time>2026-04-25T08:56:00Z</time></trkpt><trkpt lat="44.00956382844844" lon="7.948589160184288"><ele>618.0</ele><time>2026-04-25T08:56:01Z</time></trkpt><trkpt lat="44.00947893354228" lon="7.948534903618894"><ele>618.0</ele><time>2026-04-25T08:56:02Z</time></trkpt><trkpt lat="44.009374831968984" lon="7.948538723239445"><ele>618.0</ele><time>2026-04-25T08:56:03Z</time></trkpt><trkpt lat="44.009262280321664" lon="7.948555197119074"><ele>618.0</ele><time>2026-04-25T08:56:04Z</time></trkpt><trkpt lat="44.00914535461653" lon="7.948569253618733"><ele>618.0</ele><time>2026-04-25T08:56:05Z</time></trkpt><trkpt lat="44.00901479745063" lon="7.948586894714014"><ele>622.5</ele><time>2026-04-25T08:56:06Z</time></trkpt><trkpt lat="44.0088874088639" lon="7.948591648502687"><ele>627.0</ele><time>2026-04-25T08:56:07Z</time></trkpt><trkpt lat="44.008776350915454" lon="7.94857392649358"><ele>631.5</ele><time>2026-04-25T08:56:08Z</time></trkpt><trkpt lat="44.008660654441044" lon="7.948549904567201"><ele>636.0</ele><time>2026-04-25T08:56:09Z</time></trkpt><trkpt lat="44.008546741461494" lon="7.948534670202029"><ele>636.0</ele><time>2026-04-25T08:56:10Z</time></trkpt><trkpt lat="44.00844685513205" lon="7.948525246052059"><ele>636.0</ele><time>2026-04-25T08:56:11Z</time></trkpt><trkpt lat="44.00836112866959" lon="7.948509301216394"><ele>636.0</ele><time>2026-04-25T08:56:12Z</time></trkpt><trkpt lat="44.00829389028964" lon="7.948485933480982"><ele>636.0</ele><time>2026-04-25T08:56:13Z</time></trkpt><trkpt lat="44.00820840902233" lon="7.948320498336079"><ele>636.0</ele><time>2026-04-25T08:56:15Z</time></trkpt><trkpt lat="44.008222187873024" lon="7.948176444022023"><ele>635.4</ele><time>2026-04-25T08:56:16Z</time></trkpt><trkpt lat="44.00824641056573" lon="7.948028869497086"><ele>634.8</ele><time>2026-04-25T08:56:17Z</time></trkpt><trkpt lat="44.008234939538376" lon="7.947878759358693"><ele>634.1999999999999</ele><time>2026-04-25T08:56:18Z</time></trkpt><trkpt lat="44.00821444328434" lon="7.947733171427703"><ele>633.6</ele><time>2026-04-25T08:56:19Z</time></trkpt><trkpt lat="44.00819316675275" lon="7.947601669422015"><ele>633.0</ele><time>2026-04-25T08:56:20Z</time></trkpt><trkpt lat="44.00817751524547" lon="7.947473732764156"><ele>628.0</ele><time>2026-04-25T08:56:21Z</time></trkpt><trkpt lat="44.00815957713729" lon="7.947350227530925"><ele>623.0</ele><time>2026-04-25T08:56:22Z</time></trkpt><trkpt lat="44.008130953841835" lon="7.94723054206109"><ele>618.0</ele><time>2026-04-25T08:56:23Z</time></trkpt><trkpt lat="44.00807166815705" lon="7.947128038665353"><ele>613.0</ele><time>2026-04-25T08:56:24Z</time></trkpt><trkpt lat="44.007978235880415" lon="7.947062287268673"><ele>608.0</ele><time>2026-04-25T08:56:25Z</time></trkpt><trkpt lat="44.00787185279708" lon="7.947050157295193"><ele>608.0</ele><time>2026-04-25T08:56:26Z</time></trkpt><trkpt lat="44.00775696037481" lon="7.947079220102622"><ele>608.0</ele><time>2026-04-25T08:56:27Z</time></trkpt><trkpt lat="44.007645789151134" lon="7.947128718940621"><ele>608.0</ele><time>2026-04-25T08:56:28Z</time></trkpt><trkpt lat="44.00754214719261" lon="7.947170418691524"><ele>608.0</ele><time>2026-04-25T08:56:29Z</time></trkpt><trkpt lat="44.00745507621044" lon="7.947183742616643"><ele>608.0</ele><time>2026-04-25T08:56:30Z</time></trkpt><trkpt lat="44.00737910616245" lon="7.947155656470157"><ele>610.4</ele><time>2026-04-25T08:56:31Z</time></trkpt><trkpt lat="44.00731131563541" lon="7.947093496303433"><ele>612.8</ele><time>2026-04-25T08:56:32Z</time></trkpt><trkpt lat="44.00726905106622" lon="7.946987820088059"><ele>615.2</ele><time>2026-04-25T08:56:33Z</time></trkpt><trkpt lat="44.00726594004596" lon="7.946844887596913"><ele>617.6</ele><time>2026-04-25T08:56:34Z</time></trkpt><trkpt lat="44.00729844659593" lon="7.946698257291016"><ele>620.0</ele><time>2026-04-25T08:56:35Z</time></trkpt><trkpt lat="44.007355830915735" lon="7.946559512890779"><ele>620.0</ele><time>2026-04-25T08:56:36Z</time></trkpt><trkpt lat="44.00740818328086" lon="7.946427434828999"><ele>620.0</ele><time>2026-04-25T08:56:37Z</time></trkpt><trkpt lat="44.00744367857903" lon="7.946298996805627"><ele>620.0</ele><time>2026-04-25T08:56:38Z</time></trkpt><trkpt lat="44.00747497039374" lon="7.9461728587928"><ele>620.0</ele><time>2026-04-25T08:56:39Z</time></trkpt><trkpt lat="44.00750817255305" lon="7.946046089415462"><ele>620.0</ele><time>2026-04-25T08:56:39.999Z</time></trkpt><trkpt lat="44.00753244932916" lon="7.945941283778966"><ele>619.6666666666666</ele><time>2026-04-25T08:56:40.999Z</time></trkpt><trkpt lat="44.00754521038084" lon="7.945854901033633"><ele>619.3333333333333</ele><time>2026-04-25T08:56:41.999Z</time></trkpt><trkpt lat="44.00753907443874" lon="7.945742014129682"><ele>619.0</ele><time>2026-04-25T08:56:42.999Z</time></trkpt><trkpt lat="44.007507788267944" lon="7.945619851759748"><ele>618.6666666666666</ele><time>2026-04-25T08:56:43.999Z</time></trkpt><trkpt lat="44.00747656511171" lon="7.945489090828206"><ele>618.3333333333334</ele><time>2026-04-25T08:56:44.999Z</time></trkpt><trkpt lat="44.00745408424935" lon="7.945349912403012"><ele>618.0</ele><time>2026-04-25T08:56:45.999Z</time></trkpt><trkpt lat="44.00743321056632" lon="7.945208449789015"><ele>618.0</ele><time>2026-04-25T08:56:46.999Z</time></trkpt><trkpt lat="44.00741371211506" lon="7.945086536493561"><ele>618.0</ele><time>2026-04-25T08:56:47.999Z</time></trkpt><trkpt lat="44.00738539946265" lon="7.944966789991707"><ele>618.0</ele><time>2026-04-25T08:56:48.999Z</time></trkpt><trkpt lat="44.007348696275926" lon="7.944847975156449"><ele>618.0</ele><time>2026-04-25T08:56:49.999Z</time></trkpt><trkpt lat="44.00733528448144" lon="7.94470603135787"><ele>618.0</ele><time>2026-04-25T08:56:50.999Z</time></trkpt><trkpt lat="44.00732010670459" lon="7.944571556331596"><ele>617.4</ele><time>2026-04-25T08:56:51.999Z</time></trkpt><trkpt lat="44.007296936751914" lon="7.944442134165113"><ele>616.8</ele><time>2026-04-25T08:56:52.999Z</time></trkpt><trkpt lat="44.007277108822386" lon="7.944307528363513"><ele>616.2</ele><time>2026-04-25T08:56:53.999Z</time></trkpt><trkpt lat="44.007261866550216" lon="7.9441699791540525"><ele>615.6</ele><time>2026-04-25T08:56:54.999Z</time></trkpt><trkpt lat="44.00723782969067" lon="7.944032620641578"><ele>615.0</ele><time>2026-04-25T08:56:55.999Z</time></trkpt><trkpt lat="44.00719764678822" lon="7.943916790145801"><ele>612.6</ele><time>2026-04-25T08:56:56.999Z</time></trkpt><trkpt lat="44.00714504278399" lon="7.943783885549987"><ele>610.2</ele><time>2026-04-25T08:56:57.999Z</time></trkpt><trkpt lat="44.0070729772026" lon="7.943667171153699"><ele>607.8</ele><time>2026-04-25T08:56:58.999Z</time></trkpt><trkpt lat="44.00699472467388" lon="7.94356591972223"><ele>605.4</ele><time>2026-04-25T08:56:59.999Z</time></trkpt><trkpt lat="44.00690826265516" lon="7.943468444227585"><ele>603.0</ele><time>2026-04-25T08:57:00.999Z</time></trkpt><trkpt lat="44.00681757525524" lon="7.943382656209655"><ele>605.1999999999999</ele><time>2026-04-25T08:57:01.999Z</time></trkpt><trkpt lat="44.00671497228044" lon="7.943328311803495"><ele>607.4</ele><time>2026-04-25T08:57:02.999Z</time></trkpt><trkpt lat="44.006615610770176" lon="7.943300628768781"><ele>609.5999999999999</ele><time>2026-04-25T08:57:03.999Z</time></trkpt><trkpt lat="44.00654362259109" lon="7.943241604542318"><ele>611.8</ele><time>2026-04-25T08:57:04.999Z</time></trkpt><trkpt lat="44.00649448851067" lon="7.943145775632234"><ele>614.0</ele><time>2026-04-25T08:57:05.999Z</time></trkpt><trkpt lat="44.00649004924914" lon="7.943007975815942"><ele>614.0</ele><time>2026-04-25T08:57:06.999Z</time></trkpt><trkpt lat="44.006539145689494" lon="7.942883050370633"><ele>614.0</ele><time>2026-04-25T08:57:07.999Z</time></trkpt><trkpt lat="44.00662823389083" lon="7.94279595973258"><ele>614.0</ele><time>2026-04-25T08:57:08.999Z</time></trkpt><trkpt lat="44.00675336303911" lon="7.9427731519681"><ele>614.0</ele><time>2026-04-25T08:57:09.999Z</time></trkpt><trkpt lat="44.00689878508815" lon="7.942764481609411"><ele>602.0</ele><time>2026-04-25T08:57:10.999Z</time></trkpt><trkpt lat="44.00705326911409" lon="7.942757976550319"><ele>590.0</ele><time>2026-04-25T08:57:11.999Z</time></trkpt><trkpt lat="44.00720963937508" lon="7.942738522372495"><ele>578.0</ele><time>2026-04-25T08:57:12.999Z</time></trkpt><trkpt lat="44.007362143026945" lon="7.942719453185769"><ele>571.25</ele><time>2026-04-25T08:57:13.999Z</time></trkpt><trkpt lat="44.00750552817226" lon="7.942702990485016"><ele>564.5</ele><time>2026-04-25T08:57:14.999Z</time></trkpt><trkpt lat="44.00764548963344" lon="7.942688556660481"><ele>557.75</ele><time>2026-04-25T08:57:15.999Z</time></trkpt><trkpt lat="44.00779070305065" lon="7.942653655178112"><ele>551.0</ele><time>2026-04-25T08:57:16.999Z</time></trkpt><trkpt lat="44.00793591818207" lon="7.94263060953386"><ele>551.0</ele><time>2026-04-25T08:57:17.999Z</time></trkpt><trkpt lat="44.008076429612906" lon="7.942611574607451"><ele>551.0</ele><time>2026-04-25T08:57:18.999Z</time></trkpt><trkpt lat="44.008219072120134" lon="7.942597108779861"><ele>551.0</ele><time>2026-04-25T08:57:19.999Z</time></trkpt><trkpt lat="44.0083659944238" lon="7.942578944240477"><ele>551.0</ele><time>2026-04-25T08:57:20.999Z</time></trkpt><trkpt lat="44.00851502335861" lon="7.94255854894228"><ele>553.25</ele><time>2026-04-25T08:57:21.999Z</time></trkpt><trkpt lat="44.00866072571159" lon="7.942546136960001"><ele>555.5</ele><time>2026-04-25T08:57:22.999Z</time></trkpt><trkpt lat="44.00878865246105" lon="7.942536675996866"><ele>557.75</ele><time>2026-04-25T08:57:23.999Z</time></trkpt><trkpt lat="44.008903977926" lon="7.942541405872656"><ele>560.0</ele><time>2026-04-25T08:57:24.999Z</time></trkpt><trkpt lat="44.00901354198593" lon="7.942538813728382"><ele>560.0</ele><time>2026-04-25T08:57:25.999Z</time></trkpt><trkpt lat="44.00910689023315" lon="7.942514615828199"><ele>560.0</ele><time>2026-04-25T08:57:26.999Z</time></trkpt><trkpt lat="44.00917875500432" lon="7.9424583582366495"><ele>560.0</ele><time>2026-04-25T08:57:27.999Z</time></trkpt><trkpt lat="44.00923532992052" lon="7.942359960997145"><ele>560.0</ele><time>2026-04-25T08:57:28.999Z</time></trkpt><trkpt lat="44.009257909000965" lon="7.942198091596295"><ele>560.0</ele><time>2026-04-25T08:57:29.999Z</time></trkpt><trkpt lat="44.009243224106186" lon="7.9419989301928755"><ele>557.5</ele><time>2026-04-25T08:57:30.999Z</time></trkpt><trkpt lat="44.00924004531285" lon="7.941809116616802"><ele>555.0</ele><time>2026-04-25T08:57:31.999Z</time></trkpt><trkpt lat="44.00923856991811" lon="7.9416381239988825"><ele>552.5</ele><time>2026-04-25T08:57:32.999Z</time></trkpt><trkpt lat="44.0092469573995" lon="7.941456766924618"><ele>550.0</ele><time>2026-04-25T08:57:33.999Z</time></trkpt><trkpt lat="44.00922931072623" lon="7.9412663730178865"><ele>550.0</ele><time>2026-04-25T08:57:34.999Z</time></trkpt><trkpt lat="44.00921094507803" lon="7.941082237643884"><ele>550.0</ele><time>2026-04-25T08:57:35.999Z</time></trkpt><trkpt lat="44.00919135216719" lon="7.940919546813037"><ele>550.0</ele><time>2026-04-25T08:57:36.999Z</time></trkpt><trkpt lat="44.00918195886319" lon="7.94076257226002"><ele>550.0</ele><time>2026-04-25T08:57:37.999Z</time></trkpt><trkpt lat="44.009198399537595" lon="7.940606570120209"><ele>549.8</ele><time>2026-04-25T08:57:38.999Z</time></trkpt><trkpt lat="44.00922920091945" lon="7.9404277080982295"><ele>549.6</ele><time>2026-04-25T08:57:39.999Z</time></trkpt><trkpt lat="44.00926260035135" lon="7.94028097351421"><ele>549.4</ele><time>2026-04-25T08:57:40.999Z</time></trkpt><trkpt lat="44.00928580617289" lon="7.940148927895464"><ele>549.2</ele><time>2026-04-25T08:57:41.999Z</time></trkpt><trkpt lat="44.00936516941636" lon="7.9400661989131835"><ele>549.0</ele><time>2026-04-25T08:57:42.999Z</time></trkpt><trkpt lat="44.00946056778406" lon="7.940039541691956"><ele>549.0</ele><time>2026-04-25T08:57:43.999Z</time></trkpt><trkpt lat="44.00955537183641" lon="7.9400790199052995"><ele>549.0</ele><time>2026-04-25T08:57:44.999Z</time></trkpt><trkpt lat="44.00964819399522" lon="7.940187759972175"><ele>549.0</ele><time>2026-04-25T08:57:45.999Z</time></trkpt><trkpt lat="44.00972980701418" lon="7.940339883289094"><ele>549.0</ele><time>2026-04-25T08:57:46.999Z</time></trkpt><trkpt lat="44.0098454732554" lon="7.940473242105488"><ele>549.0</ele><time>2026-04-25T08:57:47.999Z</time></trkpt><trkpt lat="44.009982983219835" lon="7.940568284338444"><ele>549.0</ele><time>2026-04-25T08:57:49Z</time></trkpt><trkpt lat="44.01008589801583" lon="7.940653821546347"><ele>549.0</ele><time>2026-04-25T08:57:50Z</time></trkpt><trkpt lat="44.01020678605845" lon="7.940727120451914"><ele>549.0</ele><time>2026-04-25T08:57:51Z</time></trkpt><trkpt lat="44.010322229877175" lon="7.940817232468034"><ele>540.5</ele><time>2026-04-25T08:57:52Z</time></trkpt><trkpt lat="44.01042658553218" lon="7.94093372005826"><ele>532.0</ele><time>2026-04-25T08:57:53Z</time></trkpt><trkpt lat="44.01052964014703" lon="7.941049844970883"><ele>523.5</ele><time>2026-04-25T08:57:54Z</time></trkpt><trkpt lat="44.01063515042402" lon="7.941161914854046"><ele>515.0</ele><time>2026-04-25T08:57:55Z</time></trkpt><trkpt lat="44.01074377155115" lon="7.941257771021375"><ele>514.5</ele><time>2026-04-25T08:57:56Z</time></trkpt><trkpt lat="44.01084960912925" lon="7.941342119699009"><ele>514.0</ele><time>2026-04-25T08:57:57Z</time></trkpt><trkpt lat="44.0109570688784" lon="7.941408594454834"><ele>513.5</ele><time>2026-04-25T08:57:58Z</time></trkpt><trkpt lat="44.01106553817309" lon="7.941458849102601"><ele>513.0</ele><time>2026-04-25T08:57:59Z</time></trkpt><trkpt lat="44.01116510389668" lon="7.941483088800024"><ele>513.0</ele><time>2026-04-25T08:58:00Z</time></trkpt><trkpt lat="44.01126454825998" lon="7.941469941589203"><ele>513.0</ele><time>2026-04-25T08:58:01Z</time></trkpt><trkpt lat="44.0113556826257" lon="7.941410389629229"><ele>513.0</ele><time>2026-04-25T08:58:02Z</time></trkpt><trkpt lat="44.01142370378393" lon="7.941325834305916"><ele>513.0</ele><time>2026-04-25T08:58:03Z</time></trkpt><trkpt lat="44.011482963729534" lon="7.94124732709725"><ele>513.0</ele><time>2026-04-25T08:58:04Z</time></trkpt><trkpt lat="44.0115393766061" lon="7.9411793490865135"><ele>513.0</ele><time>2026-04-25T08:58:05Z</time></trkpt><trkpt lat="44.011591305424886" lon="7.941124322013438"><ele>511.4</ele><time>2026-04-25T08:58:06Z</time></trkpt><trkpt lat="44.01168191569881" lon="7.9410321605515355"><ele>509.79999999999995</ele><time>2026-04-25T08:58:08Z</time></trkpt><trkpt lat="44.01176688659931" lon="7.940982779804895"><ele>508.2</ele><time>2026-04-25T08:58:10Z</time></trkpt><trkpt lat="44.01185131973178" lon="7.940961339270095"><ele>506.6</ele><time>2026-04-25T08:58:13Z</time></trkpt><trkpt lat="44.011740292331005" lon="7.940958878151726"><ele>505.0</ele><time>2026-04-25T08:58:20Z</time></trkpt><trkpt lat="44.01167199060626" lon="7.9410045889147085"><ele>506.6</ele><time>2026-04-25T08:58:22Z</time></trkpt><trkpt lat="44.011630793867766" lon="7.941123012221992"><ele>508.2</ele><time>2026-04-25T08:58:24Z</time></trkpt><trkpt lat="44.0115849846346" lon="7.9412692598815715"><ele>509.79999999999995</ele><time>2026-04-25T08:58:26Z</time></trkpt><trkpt lat="44.01154038353538" lon="7.941368954491363"><ele>511.4</ele><time>2026-04-25T08:58:28Z</time></trkpt><trkpt lat="44.01148820668021" lon="7.9414429999643925"><ele>513.0</ele><time>2026-04-25T08:58:30Z</time></trkpt><trkpt lat="44.01157448864166" lon="7.941480185957412"><ele>513.0000000000001</ele><time>2026-04-25T08:59:33.999Z</time></trkpt><trkpt lat="44.01158542759819" lon="7.941368464732631"><ele>513.0</ele><time>2026-04-25T08:59:36.999Z</time></trkpt><trkpt lat="44.01161363292764" lon="7.941278079171527"><ele>513.0</ele><time>2026-04-25T08:59:40.999Z</time></trkpt><trkpt lat="44.01164638588318" lon="7.9411919884179385"><ele>513.0</ele><time>2026-04-25T08:59:44.999Z</time></trkpt><trkpt lat="44.011655839528686" lon="7.941103178879643"><ele>513.0</ele><time>2026-04-25T08:59:49.999Z</time></trkpt><trkpt lat="44.01163450655708" lon="7.941197736806753"><ele>513.0000000000001</ele><time>2026-04-25T08:59:57Z</time></trkpt><trkpt lat="44.011579541978776" lon="7.94125482804173"><ele>513.0</ele><time>2026-04-25T09:00:02Z</time></trkpt><trkpt lat="44.011536844549326" lon="7.9413376116268894"><ele>513.0</ele><time>2026-04-25T09:00:08Z</time></trkpt><trkpt lat="44.01150609094681" lon="7.941414432376684"><ele>513.0</ele><time>2026-04-25T09:00:52.999Z</time></trkpt><trkpt lat="44.0114373543487" lon="7.9414976799716035"><ele>513.0</ele><time>2026-04-25T09:01:27.999Z</time></trkpt><trkpt lat="44.0113789932488" lon="7.941579870961843"><ele>513.0</ele><time>2026-04-25T09:01:28.999Z</time></trkpt><trkpt lat="44.01131178617955" lon="7.941617369352871"><ele>513.0</ele><time>2026-04-25T09:01:29.999Z</time></trkpt><trkpt lat="44.01118142906762" lon="7.941622681320542"><ele>513.0</ele><time>2026-04-25T09:01:31.999Z</time></trkpt><trkpt lat="44.01110007465126" lon="7.941596552589794"><ele>513.0</ele><time>2026-04-25T09:01:32.999Z</time></trkpt><trkpt lat="44.01099845022829" lon="7.941591245571638"><ele>513.0</ele><time>2026-04-25T09:01:33.999Z</time></trkpt><trkpt lat="44.010910053886086" lon="7.941580682470189"><ele>513.0</ele><time>2026-04-25T09:01:34.999Z</time></trkpt><trkpt lat="44.01083347135469" lon="7.9415759711439025"><ele>513.0</ele><time>2026-04-25T09:01:35.999Z</time></trkpt><trkpt lat="44.01075243845948" lon="7.941587711861551"><ele>513.0</ele><time>2026-04-25T09:01:36.999Z</time></trkpt><trkpt lat="44.0106760691484" lon="7.9415947949009285"><ele>513.0</ele><time>2026-04-25T09:01:37.999Z</time></trkpt><trkpt lat="44.010558171288295" lon="7.941558718865374"><ele>513.3333333333334</ele><time>2026-04-25T09:01:39.999Z</time></trkpt><trkpt lat="44.010436706033495" lon="7.9415643918957395"><ele>513.6666666666666</ele><time>2026-04-25T09:01:41.999Z</time></trkpt><trkpt lat="44.01033755273167" lon="7.941639567623296"><ele>514.0</ele><time>2026-04-25T09:01:43.999Z</time></trkpt><trkpt lat="44.01028985870256" lon="7.941707967491117"><ele>514.3333333333333</ele><time>2026-04-25T09:01:44.999Z</time></trkpt><trkpt lat="44.010250805764564" lon="7.941787364857926"><ele>514.6666666666666</ele><time>2026-04-25T09:01:45.999Z</time></trkpt><trkpt lat="44.01021241961611" lon="7.941868721003273"><ele>515.0</ele><time>2026-04-25T09:01:46.999Z</time></trkpt><trkpt lat="44.010169323115605" lon="7.941932753802248"><ele>515.8</ele><time>2026-04-25T09:01:47.999Z</time></trkpt><trkpt lat="44.010129038171954" lon="7.942034749608863"><ele>516.6</ele><time>2026-04-25T09:01:49.999Z</time></trkpt><trkpt lat="44.01018309316147" lon="7.942192672218527"><ele>517.4</ele><time>2026-04-25T09:01:51.999Z</time></trkpt><trkpt lat="44.01023768360961" lon="7.942270050737944"><ele>518.2</ele><time>2026-04-25T09:01:52.999Z</time></trkpt><trkpt lat="44.01030463373968" lon="7.942337917918561"><ele>519.0</ele><time>2026-04-25T09:01:53.999Z</time></trkpt><trkpt lat="44.01037021925672" lon="7.942420678383475"><ele>519.0</ele><time>2026-04-25T09:01:54.999Z</time></trkpt><trkpt lat="44.01043539897733" lon="7.9424995756175285"><ele>519.0</ele><time>2026-04-25T09:01:55.999Z</time></trkpt><trkpt lat="44.01051634521498" lon="7.942607795898915"><ele>519.0</ele><time>2026-04-25T09:01:56.999Z</time></trkpt><trkpt lat="44.01057586671479" lon="7.94265376397446"><ele>519.0</ele><time>2026-04-25T09:01:57.999Z</time></trkpt><trkpt lat="44.01067320040669" lon="7.9427436320656035"><ele>519.0</ele><time>2026-04-25T09:01:59.999Z</time></trkpt><trkpt lat="44.010739076980435" lon="7.9428745518791235"><ele>519.0</ele><time>2026-04-25T09:02:02Z</time></trkpt><trkpt lat="44.01077553296093" lon="7.943028994198601"><ele>519.0</ele><time>2026-04-25T09:02:04Z</time></trkpt><trkpt lat="44.01080017739071" lon="7.943123380811"><ele>519.0</ele><time>2026-04-25T09:02:06Z</time></trkpt></trkseg></trk></gpx>